[[{"header":{"parameterUnit":"m.s-1","parameterCategory":1,"la1":30.6,"la2":28.766,"lo1":-90.7593,"lo2":-88.6598,"dy":0.0162,"dx":0.0183,"nx":116,"ny":114,"refTime":"2024-04-06T00:00:00:Z","depth":0,"parameterNumber":2,"parameterNumberName":"U-component_of_WINDS"},"data":[0.0,0.0,0.0,0.0,0.0,0.0,0.0,0.0,0.0,0.0,0.0,0.0,0.0,0.0,0.0,0.0,0.0,0.0,0.0,0.0,0.0,0.0,0.0,0.0,0.0,0.0,0.0,0.0,0.0,0.0,0.0,0.0,0.0,0.0,0.0,0.0,0.0,0.0,0.0,0.0,0.0,0.0,0.0,0.0,0.0,0.0,0.0,0.0,0.0,0.0,0.0,0.0,0.0,0.0,0.0,0.0,0.0,0.0,0.0,0.0,0.0,0.0,0.0,0.0,0.0,0.0,0.0,0.0,0.0,0.0,0.0,0.0,0.0,0.0,0.0,0.0,0.0,0.0,0.0,0.0,0.0,0.0,0.0,0.0,0.0,0.0,0.0,0.0,0.0,0.0,0.0,0.0,0.0,0.0,0.0,0.0,0.0,0.0,0.0,0.0,0.0,0.0,0.0,0.0,0.0,0.0,0.0,0.0,0.0,0.0,0.0,0.0,0.0,0.0,0.0,0.0,0.0,0.0,0.0,0.0,0.0,0.0,0.0,0.0,0.0,0.0,0.0,0.0,0.0,0.0,0.0,0.0,0.0,0.0,0.0,0.0,0.0,0.0,0.0,0.0,0.0,0.0,0.0,0.0,0.0,0.0,0.0,0.0,0.0,0.0,0.0,0.0,0.0,0.0,0.0,0.0,0.0,0.0,0.0,0.0,0.0,0.0,0.0,0.0,0.0,0.0,0.0,0.0,0.0,0.0,0.0,0.0,0.0,0.0,0.0,0.0,0.0,0.0,0.0,0.0,0.0,0.0,0.0,0.0,0.0,0.0,0.0,0.0,0.0,0.0,0.0,0.0,0.0,0.0,0.0,0.0,0.0,0.0,0.0,0.0,0.0,0.0,0.0,0.0,0.0,0.0,0.0,0.0,0.0,0.0,0.0,0.0,0.0,0.0,0.0,0.0,0.0,0.0,0.0,0.0,0.0,0.0,0.0,0.0,0.0,0.0,0.0,0.0,0.0,0.0,0.0,0.0,0.0,0.0,0.0,0.0,0.0,0.0,0.0,0.0,0.0,0.0,0.0,0.0,0.0,0.0,0.0,0.0,0.0,0.0,0.0,0.0,0.0,0.0,0.0,0.0,0.0,0.0,0.0,0.0,0.0,0.0,0.0,0.0,0.0,0.0,0.0,0.0,0.0,0.0,0.0,0.0,0.0,0.0,0.0,0.0,0.0,0.0,0.0,0.0,0.0,0.0,0.0,0.0,0.0,0.0,0.0,0.0,0.0,0.0,0.0,0.0,0.0,0.0,0.0,0.0,0.0,0.0,0.0,0.0,0.0,0.0,0.0,0.0,0.0,0.0,0.0,0.0,0.0,0.0,0.0,0.0,0.0,0.0,0.0,0.0,0.0,0.0,0.0,0.0,0.0,0.0,0.0,0.0,0.0,0.0,0.0,0.0,0.0,0.0,0.0,0.0,0.0,0.0,0.0,0.0,0.0,0.0,0.0,0.0,0.0,0.0,0.0,0.0,0.0,0.0,0.0,0.0,0.0,0.0,0.0,0.0,0.0,0.0,0.0,0.0,0.0,0.0,0.0,0.0,0.0,0.0,0.0,0.0,0.0,0.0,0.0,0.0,0.0,0.0,0.0,0.0,0.0,0.0,0.0,0.0,0.0,0.0,0.0,0.0,0.0,0.0,0.0,0.0,0.0,0.0,0.0,0.0,0.0,0.0,0.0,0.0,0.0,0.0,0.0,0.0,0.0,0.0,0.0,0.0,0.0,0.0,0.0,0.0,0.0,0.0,0.0,0.0,0.0,0.0,0.0,0.0,0.0,0.0,0.0,0.0,0.0,0.0,0.0,0.0,0.0,0.0,0.0,0.0,0.0,0.0,0.0,0.0,0.0,0.0,0.0,0.0,0.0,0.0,0.0,0.0,0.0,0.0,0.0,0.0,0.0,0.0,0.0,0.0,0.0,0.0,0.0,0.0,0.0,0.0,0.0,0.0,0.0,0.0,0.0,0.0,0.0,0.0,0.0,0.0,0.0,0.0,0.0,0.0,0.0,0.0,0.0,0.0,0.0,0.0,0.0,0.0,0.0,0.0,0.0,0.0,0.0,0.0,0.0,0.0,0.0,0.0,0.0,0.0,0.0,0.0,0.0,0.0,0.0,0.0,0.0,0.0,0.0,0.0,0.0,0.0,0.0,0.0,0.0,0.0,0.0,0.0,0.0,0.0,0.0,0.0,0.0,0.0,0.0,0.0,0.0,0.0,0.0,0.0,0.0,0.0,0.0,0.0,0.0,0.0,0.0,0.0,0.0,0.0,0.0,0.0,0.0,0.0,0.0,0.0,0.0,0.0,0.0,0.0,0.0,0.0,0.0,0.0,0.0,0.0,0.0,0.0,0.0,0.0,0.0,0.0,0.0,0.0,0.0,0.0,0.0,0.0,0.0,0.0,0.0,0.0,0.0,0.0,0.0,0.0,0.0,0.0,0.0,0.0,0.0,0.0,0.0,0.0,0.0,0.0,0.0,0.0,0.0,0.0,0.0,0.0,0.0,0.0,0.0,0.0,0.0,0.0,0.0,0.0,0.0,0.0,0.0,0.0,0.0,0.0,0.0,0.0,0.0,0.0,0.0,0.0,0.0,0.0,0.0,0.0,0.0,0.0,0.0,0.0,0.0,0.0,0.0,0.0,0.0,0.0,0.0,0.0,0.0,0.0,0.0,0.0,0.0,0.0,0.0,0.0,0.0,0.0,0.0,0.0,0.0,0.0,0.0,0.0,0.0,0.0,0.0,0.0,0.0,0.0,0.0,0.0,0.0,0.0,0.0,0.0,0.0,0.0,0.0,0.0,0.0,0.0,0.0,0.0,0.0,0.0,0.0,0.0,0.0,0.0,0.0,0.0,0.0,0.0,0.0,0.0,0.0,0.0,0.0,0.0,0.0,0.0,0.0,0.0,0.0,0.0,0.0,0.0,0.0,0.0,0.0,0.0,0.0,0.0,0.0,0.0,0.0,0.0,0.0,0.0,0.0,0.0,0.0,0.0,0.0,0.0,0.0,0.0,0.0,0.0,0.0,0.0,0.0,0.0,0.0,0.0,0.0,0.0,0.0,0.0,0.0,0.0,0.0,0.0,0.0,0.0,0.0,0.0,0.0,0.0,0.0,0.0,0.0,0.0,0.0,0.0,0.0,0.0,0.0,0.0,0.0,0.0,0.0,0.0,0.0,0.0,0.0,0.0,0.0,0.0,0.0,0.0,0.0,0.0,0.0,0.0,0.0,0.0,0.0,0.0,0.0,0.0,0.0,0.0,0.0,0.0,0.0,0.0,0.0,0.0,0.0,0.0,0.0,0.0,0.0,0.0,0.0,0.0,0.0,0.0,0.0,0.0,0.0,0.0,0.0,0.0,0.0,0.0,0.0,0.0,0.0,0.0,0.0,0.0,0.0,0.0,0.0,0.0,0.0,0.0,0.0,0.0,0.0,0.0,0.0,0.0,0.0,0.0,0.0,0.0,0.0,0.0,0.0,0.0,0.0,0.0,0.0,0.0,0.0,0.0,0.0,0.0,0.0,0.0,0.0,0.0,0.0,0.0,0.0,0.0,0.0,0.0,0.0,0.0,0.0,0.0,0.0,0.0,0.0,0.0,0.0,0.0,0.0,0.0,0.0,0.0,0.0,0.0,0.0,0.0,0.0,0.0,0.0,0.0,0.0,0.0,0.0,0.0,0.0,0.0,0.0,0.0,0.0,0.0,0.0,0.0,0.0,0.0,0.0,0.0,0.0,0.0,0.0,0.0,0.0,0.0,0.0,0.0,0.0,0.0,0.0,0.0,0.0,0.0,0.0,0.0,0.0,0.0,0.0,0.0,0.0,0.0,0.0,0.0,0.0,0.0,0.0,0.0,0.0,0.0,0.0,0.0,0.0,0.0,0.0,0.0,0.0,0.0,0.0,0.0,0.0,0.0,0.0,0.0,0.0,0.0,0.0,0.0,0.0,0.0,0.0,0.0,0.0,0.0,0.0,0.0,0.0,0.0,0.0,0.0,0.0,0.0,0.0,0.0,0.0,0.0,0.0,0.0,0.0,0.0,0.0,0.0,0.0,0.0,0.0,0.0,0.0,0.0,0.0,0.0,0.0,0.0,0.0,0.0,0.0,0.0,0.0,0.0,0.0,0.0,0.0,0.0,0.0,0.0,0.0,0.0,0.0,0.0,0.0,0.0,0.0,0.0,0.0,0.0,0.0,0.0,0.0,0.0,0.0,0.0,0.0,0.0,0.0,0.0,0.0,0.0,0.0,0.0,0.0,0.0,0.0,0.0,0.0,0.0,0.0,0.0,0.0,0.0,0.0,0.0,0.0,0.0,0.0,0.0,0.0,0.0,0.0,0.0,0.0,0.0,0.0,0.0,0.0,0.0,0.0,0.0,0.0,0.0,0.0,0.0,0.0,0.0,0.0,0.0,0.0,0.0,0.0,0.0,0.0,0.0,0.0,0.0,0.0,0.0,0.0,0.0,0.0,0.0,0.0,0.0,0.0,0.0,0.0,0.0,0.0,0.0,0.0,0.0,0.0,0.0,0.0,0.0,0.0,0.0,0.0,0.0,0.0,0.0,0.0,0.0,0.0,0.0,0.0,0.0,0.0,0.0,0.0,0.0,0.0,0.0,0.0,0.0,0.0,0.0,0.0,0.0,0.0,0.0,0.0,0.0,0.0,0.0,0.0,0.0,0.0,0.0,0.0,0.0,0.0,0.0,0.0,0.0,0.0,0.0,0.0,0.0,0.0,0.0,0.0,0.0,0.0,0.0,0.0,0.0,0.0,0.0,0.0,0.0,0.0,0.0,0.0,0.0,0.0,0.0,0.0,0.0,0.0,0.0,0.0,0.0,0.0,0.0,0.0,0.0,0.0,0.0,0.0,0.0,0.0,0.0,0.0,0.0,0.0,0.0,0.0,0.0,0.0,0.0,0.0,0.0,0.0,0.0,0.0,0.0,0.0,0.0,0.0,0.0,0.0,0.0,0.0,0.0,0.0,0.0,0.0,0.0,0.0,0.0,0.0,0.0,0.0,0.0,0.0,0.0,0.0,0.0,0.0,0.0,0.0,0.0,0.0,0.0,0.0,0.0,0.0,0.0,0.0,0.0,0.0,0.0,0.0,0.0,0.0,0.0,0.0,0.0,0.0,0.0,0.0,0.0,0.0,0.0,0.0,0.0,0.0,0.0,0.0,0.0,0.0,0.0,0.0,0.0,0.0,0.0,0.0,0.0,0.0,0.0,0.0,0.0,0.0,0.0,0.0,0.0,0.0,0.0,0.0,0.0,0.0,0.0,0.0,0.0,0.0,0.0,0.0,0.0,0.0,0.0,0.0,0.0,0.0,0.0,0.0,0.0,0.0,0.0,0.0,0.0,0.0,0.0,0.0,0.0,0.0,0.0,0.0,0.0,0.0,0.0,0.0,0.0,0.0,0.0,0.0,0.0,0.0,0.0,0.0,0.0,0.0,0.0,0.0,0.0,0.0,0.0,0.0,0.0,0.0,0.0,0.0,0.0,0.0,0.0,0.0,0.0,0.0,0.0,0.0,0.0,0.0,0.0,0.0,0.0,0.0,0.0,0.0,0.0,0.0,0.0,0.0,0.0,0.0,0.0,0.0,0.0,0.0,0.0,0.0,0.0,0.0,0.0,0.0,0.0,0.0,0.0,0.0,0.0,0.0,0.0,0.0,0.0,0.0,0.0,0.0,0.0,0.0,0.0,0.0,0.0,0.0,0.0,0.0,0.0,0.0,0.0,0.0,0.0,0.0,0.0,0.0,0.0,0.0,0.0,0.0,0.0,0.0,0.0,0.0,0.0,0.0,0.0,0.0,0.0,0.0,0.0,0.0,0.0,0.0,0.0,0.0,0.0,0.0,0.0,0.0,0.0,0.0,0.0,0.0,0.0,0.0,0.0,0.0,0.0,0.0,0.0,0.0,0.0,0.0,0.0,0.0,0.0,0.0,0.0,0.0,0.0,0.0,0.0,0.0,0.0,0.0,0.0,0.0,0.0,0.0,0.0,0.0,0.0,0.0,0.0,0.0,0.0,0.0,0.0,0.0,0.0,0.0,0.0,-4.4526,0.0,0.0,0.0,0.0,0.0,0.0,0.0,0.0,0.0,0.0,0.0,0.0,0.0,0.0,0.0,0.0,0.0,0.0,0.0,0.0,0.0,0.0,0.0,0.0,-4.2696,-4.2696,-4.2696,-4.2958,-4.2995,-4.2715,0.0,0.0,0.0,0.0,0.0,-3.9558,-3.9532,-3.9156,-3.8358,-3.8358,-3.8383,-3.836,-4.0668,-4.2201,-4.3142,0.0,0.0,0.0,0.0,0.0,0.0,0.0,0.0,0.0,0.0,0.0,0.0,0.0,0.0,0.0,0.0,0.0,0.0,0.0,0.0,0.0,0.0,0.0,0.0,0.0,0.0,0.0,0.0,0.0,0.0,0.0,0.0,0.0,0.0,0.0,0.0,0.0,0.0,0.0,0.0,0.0,0.0,0.0,0.0,0.0,0.0,0.0,0.0,0.0,0.0,0.0,0.0,0.0,0.0,0.0,0.0,0.0,0.0,0.0,0.0,0.0,0.0,0.0,0.0,0.0,0.0,0.0,0.0,0.0,0.0,0.0,-4.5822,0.0,0.0,0.0,0.0,0.0,0.0,0.0,0.0,0.0,0.0,0.0,0.0,0.0,0.0,0.0,0.0,0.0,0.0,0.0,0.0,0.0,-4.2462,-4.1874,-4.181,-4.181,-4.181,-4.2262,-4.2322,-4.1832,-4.218,0.0,0.0,0.0,-4.0043,-3.8935,-3.8772,-3.833,-3.7618,-3.7599,-3.7888,-3.8486,-3.8259,-3.9347,-4.1704,-4.346,0.0,0.0,0.0,0.0,0.0,0.0,0.0,0.0,0.0,0.0,0.0,0.0,0.0,0.0,0.0,0.0,0.0,0.0,0.0,0.0,0.0,0.0,0.0,0.0,0.0,0.0,0.0,0.0,0.0,0.0,0.0,0.0,0.0,0.0,0.0,0.0,0.0,0.0,0.0,0.0,0.0,0.0,0.0,0.0,0.0,0.0,0.0,0.0,0.0,0.0,0.0,0.0,0.0,0.0,0.0,0.0,0.0,0.0,0.0,0.0,0.0,0.0,0.0,-5.0845,-5.1251,-5.2131,-5.0913,-5.0608,-5.1014,-4.9796,-4.9255,-4.8984,-4.6278,0.0,0.0,0.0,0.0,0.0,0.0,0.0,0.0,0.0,0.0,0.0,0.0,0.0,0.0,0.0,0.0,0.0,0.0,0.0,-4.2462,-4.1874,-4.181,-4.181,-4.181,-4.1874,-4.1895,-4.181,-4.1362,-4.1082,-4.092,-3.9792,-3.9096,-3.8908,-3.8274,-3.7557,-3.6752,-3.6712,-3.6721,-3.6874,-3.8606,-3.9621,-4.0007,-4.0373,-4.1154,-4.2227,0.0,0.0,0.0,0.0,0.0,0.0,0.0,0.0,0.0,0.0,0.0,0.0,0.0,0.0,0.0,0.0,0.0,0.0,0.0,0.0,0.0,0.0,0.0,0.0,0.0,0.0,0.0,0.0,0.0,0.0,0.0,0.0,0.0,0.0,0.0,0.0,0.0,0.0,0.0,0.0,0.0,-5.0906,-5.1635,0.0,0.0,0.0,0.0,0.0,0.0,0.0,0.0,0.0,0.0,0.0,0.0,0.0,-5.2063,-5.2739,-5.4769,-5.5513,-5.5006,-5.6833,-5.7137,-5.6055,-5.5852,-5.548,-5.4972,-5.4769,0.0,-4.983,-4.8173,0.0,0.0,0.0,0.0,0.0,0.0,0.0,0.0,0.0,0.0,0.0,0.0,0.0,0.0,0.0,0.0,0.0,0.0,0.0,0.0,0.0,-4.0148,-4.0148,-4.0148,-4.0865,-4.1183,-4.0838,-4.1324,-4.124,-4.049,-3.9439,-3.8718,-3.8274,-3.7528,-3.6662,-3.5647,-3.5638,-3.5849,-3.6195,-3.7695,-3.8409,-3.8415,-3.89,-4.0212,-4.1983,-4.1912,0.0,0.0,0.0,0.0,0.0,0.0,0.0,0.0,0.0,0.0,0.0,0.0,0.0,0.0,0.0,0.0,0.0,0.0,0.0,0.0,0.0,0.0,0.0,0.0,0.0,0.0,0.0,0.0,0.0,0.0,0.0,0.0,0.0,0.0,0.0,0.0,0.0,0.0,0.0,-5.0438,-5.2661,-5.1695,-5.2358,-5.1714,0.0,0.0,0.0,0.0,0.0,0.0,0.0,0.0,0.0,-5.4296,-5.4668,-5.5412,-5.6596,-5.7543,-5.8084,-5.8186,-5.8761,-5.9133,-5.9302,-5.8863,-5.8254,-5.7541,-5.7541,-5.6156,-5.3653,-5.0913,-4.8917,-4.7327,0.0,0.0,0.0,0.0,-4.4215,-4.4384,0.0,0.0,0.0,0.0,0.0,0.0,0.0,0.0,0.0,0.0,0.0,0.0,-3.9043,-3.8881,-3.8869,-3.8869,-3.998,-4.0479,-4.0076,-4.1041,-4.1047,-3.985,-3.9049,-3.8157,-3.7172,-3.6227,-3.5392,-3.4534,-3.4889,-3.5317,-3.5772,-3.695,-3.7499,-3.7534,-3.828,-3.9784,-4.1661,-4.1259,-4.1327,-4.1638,0.0,0.0,0.0,0.0,0.0,0.0,0.0,0.0,0.0,0.0,0.0,0.0,0.0,0.0,0.0,0.0,0.0,0.0,0.0,0.0,0.0,0.0,0.0,0.0,0.0,0.0,0.0,0.0,0.0,0.0,0.0,0.0,0.0,0.0,0.0,0.0,0.0,-5.258,-5.4473,-5.2092,-5.4232,-5.4301,0.0,0.0,0.0,0.0,0.0,0.0,-5.4262,-5.4871,-5.6122,-5.8152,-5.8423,-5.9066,-6.0148,-6.0182,-6.0351,-6.0689,-6.0148,-6.0385,-6.1264,-6.0452,-5.9708,-5.8998,-5.8795,-5.7881,-5.6292,-5.3112,-5.1014,-4.9627,-4.7428,-4.6549,-4.6549,-4.6549,-4.6549,-4.6786,0.0,0.0,0.0,0.0,0.0,0.0,0.0,0.0,0.0,0.0,0.0,-3.9623,-3.8989,-3.8861,-3.8814,-3.8814,-3.9512,-3.9934,-3.9901,-4.0065,-3.9825,-3.8989,-3.8246,-3.7051,-3.5383,-3.419,-3.3522,-3.3468,-3.4692,-3.5311,-3.5366,-3.7025,-3.7765,-3.7794,-3.8438,-3.9512,-4.0774,-3.9498,-3.9736,-4.0949,-3.9598,0.0,0.0,0.0,0.0,0.0,0.0,0.0,0.0,0.0,0.0,0.0,0.0,0.0,0.0,0.0,0.0,0.0,0.0,0.0,0.0,0.0,0.0,0.0,0.0,0.0,0.0,0.0,0.0,0.0,0.0,0.0,0.0,0.0,0.0,0.0,0.0,0.0,0.0,-5.3754,-5.7209,0.0,0.0,0.0,0.0,-5.6359,-5.7137,-5.8186,-5.9641,-5.9742,-6.0486,-6.2042,-6.2821,-6.3226,-6.3294,-6.3294,-6.2956,-6.2279,-6.2245,-6.1907,-6.1264,-6.0452,-5.9708,-5.8964,-5.8254,-5.7137,-5.5614,-5.4059,-5.2909,-5.1928,-4.9695,-4.8849,-4.8849,-4.8849,-4.8849,-4.8849,0.0,0.0,0.0,0.0,0.0,-4.3515,-4.3515,-4.2715,-4.2041,-4.1832,-4.0295,-3.8983,-3.8274,-3.8072,-3.8028,-3.8028,-3.8683,-3.9354,-3.9856,-4.0044,-3.9734,-3.8941,-3.8189,-3.6908,-3.5069,-3.3367,-3.2867,-3.3604,-3.4084,-3.4714,-3.5465,-3.6362,-3.6985,-3.7338,-3.7181,-3.7611,-3.8437,-3.8712,-3.9557,-4.0629,-3.9356,-3.884,0.0,0.0,0.0,0.0,0.0,0.0,0.0,0.0,0.0,0.0,0.0,0.0,0.0,0.0,0.0,0.0,0.0,0.0,0.0,0.0,0.0,0.0,0.0,0.0,0.0,0.0,0.0,0.0,0.0,0.0,0.0,0.0,0.0,0.0,0.0,0.0,0.0,-5.7306,-6.0994,0.0,-5.7746,-5.8524,-5.9607,-6.0351,-6.1095,-6.2144,-6.3632,-6.37,-6.4174,-6.5189,-6.5493,-6.5425,-6.4918,-6.4444,-6.3835,-6.3125,-6.2618,-6.2009,-6.1298,-6.0994,-6.0182,-5.8998,-5.8727,-5.778,-5.6325,-5.5344,-5.4194,-5.2942,-5.1623,-5.1116,-5.1082,-5.0608,-5.0289,-5.0259,0.0,0.0,0.0,0.0,-4.3515,-4.3515,-4.3515,-4.2524,-4.181,-4.181,-3.9901,-3.833,-3.7851,-3.7467,-3.7299,-3.7514,-3.802,-3.8748,-3.9787,-3.9536,-3.9103,-3.8557,-3.7119,-3.5561,-3.3968,-3.2676,-3.2446,-3.3198,-3.342,-3.4059,-3.4994,-3.5465,-3.6089,-3.6809,-3.6402,-3.6771,-3.7731,-3.8077,-3.8885,-3.9869,-3.8857,-3.8968,-3.966,0.0,0.0,0.0,0.0,0.0,0.0,0.0,0.0,0.0,0.0,0.0,0.0,0.0,0.0,0.0,0.0,0.0,0.0,0.0,0.0,0.0,0.0,0.0,0.0,0.0,0.0,0.0,0.0,0.0,0.0,0.0,0.0,0.0,0.0,0.0,-6.1501,-5.9979,-6.3971,-6.5358,-6.1603,-6.2618,-6.3835,-6.458,-6.5121,-6.5831,-6.6779,-6.6576,-6.6542,-6.6812,-6.6812,-6.6339,-6.5324,-6.485,-6.4106,-6.3125,-6.2618,-6.2009,-6.1298,-6.1028,-6.0216,-5.8998,-5.849,-5.7361,-5.5825,-5.5087,-5.4045,-5.294,-5.2775,-5.2706,-5.2605,-5.1732,-5.1289,-5.1161,0.0,0.0,0.0,-4.3515,-4.3515,-4.3515,-4.3515,-4.2544,-4.1832,-4.181,-3.9512,-3.7879,-3.7851,-3.7093,-3.6817,-3.7413,-3.7606,-3.8247,-3.9717,-3.8531,-3.7793,-3.7767,-3.4947,-3.2979,-3.2052,-3.2169,-3.224,-3.2265,-3.2817,-3.337,-3.3966,-3.4422,-3.52,-3.6262,-3.6236,-3.7203,-3.8733,-3.7546,-3.7694,-3.8658,-3.8032,-3.9239,-4.1322,0.0,0.0,0.0,0.0,0.0,0.0,0.0,0.0,0.0,0.0,0.0,0.0,0.0,0.0,0.0,0.0,0.0,0.0,0.0,0.0,0.0,0.0,0.0,0.0,0.0,0.0,0.0,0.0,0.0,0.0,0.0,0.0,0.0,-5.6731,-6.0791,-6.3057,-6.1704,-6.6068,-6.776,-6.4106,-6.6339,-6.8335,-6.9113,-6.9147,-6.9113,-6.9147,-6.8335,-6.7557,-6.688,-6.6812,-6.6102,-6.4647,-6.458,-6.3835,-6.2415,-6.2381,-6.1975,-6.1231,-6.0419,-5.9641,-5.8863,-5.7442,-5.5789,-5.4072,-5.3309,-5.2584,-5.2029,-5.3076,-5.345,-5.3382,-5.2348,-5.1921,-5.1565,0.0,0.0,-4.3515,-4.3515,-4.3515,-4.3515,-4.3515,-4.2902,-4.2302,-4.1853,-4.0309,-3.9076,-3.8663,-3.8341,-3.8434,-3.9157,-3.8776,-3.8863,-3.9807,-3.856,-3.7422,-3.6527,-3.4517,-3.3359,-3.3225,-3.2577,-3.2616,-3.3445,-3.3194,-3.3571,-3.4474,-3.3842,-3.4125,-3.5124,-3.4717,-3.527,-3.6393,-3.61,-3.6824,-3.8201,-3.7464,-3.7585,-3.8175,0.0,0.0,0.0,0.0,0.0,0.0,0.0,0.0,0.0,0.0,0.0,0.0,0.0,0.0,0.0,0.0,0.0,0.0,0.0,0.0,0.0,0.0,0.0,0.0,0.0,0.0,0.0,0.0,0.0,0.0,0.0,-5.6596,-5.9607,-6.0013,-6.2956,-6.5561,-6.6812,-6.918,-7.0297,-6.9282,-6.9891,-7.0466,-7.0703,-6.9722,-6.9316,-6.9857,-6.8639,-6.7793,-6.759,-6.7083,-6.6339,-6.5392,-6.4343,-6.3599,-6.3193,-6.211,-6.1197,-6.0419,-5.9674,-5.8626,-5.7374,-5.6968,-5.5913,-5.4384,-5.3404,-5.3014,-5.3008,-5.2522,-5.2835,-5.345,-5.3144,-5.226,-5.0883,0.0,-4.3989,-4.3515,-4.3515,-4.3515,-4.3515,-4.3515,-4.305,-4.2577,-4.2241,-4.0976,-4.0022,-3.9657,-3.9288,-3.9271,-3.9735,-3.9124,-3.8943,-3.939,-3.8358,-3.7095,-3.5638,-3.5075,-3.4606,-3.4149,-3.356,-3.3437,-3.3897,-3.3571,-3.3872,-3.47,-3.4073,-3.4349,-3.5378,-3.4826,-3.5077,-3.5881,-3.6412,-3.7137,-3.8119,-3.8129,-3.8323,-3.8475,-3.796,-3.8535,-3.9621,-3.9912,-4.1425,-4.3237,-4.2932,0.0,0.0,0.0,0.0,0.0,0.0,0.0,0.0,0.0,0.0,0.0,0.0,0.0,0.0,0.0,0.0,0.0,0.0,0.0,0.0,0.0,0.0,0.0,0.0,-6.0114,-6.3125,-6.4377,-6.6034,-6.7827,-6.9789,-7.0804,-7.1312,-7.1312,-7.1312,-7.1176,-7.0872,-7.006,-6.9451,-6.9248,-6.8402,-6.776,-6.7455,-6.7015,-6.6305,-6.5256,-6.4377,-6.3666,-6.3024,-6.1373,-6.0169,-5.9399,-5.8163,-5.684,-5.545,-5.5118,-5.41,-5.2571,-5.1641,-5.1361,0.0,0.0,0.0,0.0,0.0,-5.1352,-4.9941,0.0,-4.4004,-4.3529,-4.3515,-4.3515,-4.3515,-4.3515,-4.3105,-4.2751,-4.2693,-4.1612,-4.0791,-4.0723,-4.0165,-3.98,-3.996,-3.9282,-3.8843,-3.8814,-3.8028,-3.6874,-3.5385,-3.6432,-3.634,-3.4918,-3.4903,-3.463,-3.4098,-3.4022,-3.4274,-3.4781,-3.4705,-3.5278,-3.6304,-3.5755,-3.5902,-3.6662,-3.7678,-3.8153,-3.8379,-3.9448,-4.0217,-4.0592,-3.9298,-3.9704,-4.0968,-4.1284,-4.217,-4.328,-4.3867,0.0,0.0,0.0,0.0,0.0,0.0,0.0,0.0,0.0,0.0,0.0,0.0,0.0,0.0,0.0,0.0,0.0,0.0,0.0,0.0,0.0,0.0,0.0,0.0,-6.3429,-6.5933,-6.8707,-6.9248,-6.9823,-7.1142,-7.1312,-7.1312,-7.1312,-7.1312,-7.1007,-7.0263,-7.0094,-6.9417,-6.7963,0.0,0.0,0.0,0.0,-6.6034,-6.4613,-6.4512,-6.3768,-6.2381,-6.0403,-5.9119,-5.8419,-5.6492,-5.4854,-5.3542,-5.2837,-5.1579,-5.0019,-4.913,-4.88,-4.9013,-5.1117,-5.242,-5.2976,-5.1132,-4.9865,-4.8815,0.0,-4.3982,-4.3802,-4.3529,-4.3515,-4.3515,-4.3515,-4.3391,-4.3196,-4.2751,-4.2446,-4.2109,-4.1633,-4.1446,-4.1595,-4.2207,-4.1138,-4.0002,-3.8841,-3.7955,-3.7402,-3.7275,-3.7987,-3.7669,-3.6151,-3.6135,-3.5843,-3.5182,-3.4776,-3.4806,-3.5332,-3.4881,-3.5031,-3.5658,-3.5533,-3.6361,-3.7815,-3.8017,-3.8649,-3.9579,-3.9826,-3.9968,-4.0023,-3.9759,-4.0727,-4.2167,-4.1734,-4.3663,-4.6389,-4.6208,-4.6602,-4.7289,-4.8267,0.0,0.0,0.0,0.0,0.0,0.0,0.0,0.0,0.0,0.0,0.0,0.0,0.0,0.0,0.0,0.0,0.0,0.0,0.0,0.0,-6.1587,-6.5019,-6.7692,-6.8944,-7.0128,-7.1007,-7.1278,-7.1312,-7.1312,-7.1312,-7.1312,-7.1007,-7.0263,-6.9654,-6.891,-6.7963,-6.7354,-6.6948,-6.6812,-6.6203,-6.5493,-6.4613,-6.4005,-6.326,-6.2381,0.0,0.0,-5.8419,-5.5933,-5.4333,-5.3492,-5.2797,-5.1973,-5.0993,-4.9415,-4.88,-4.9013,-5.1117,-5.1702,-5.1348,-5.0928,-4.9502,-4.7536,0.0,-4.3982,-4.3896,-4.3546,-4.3515,-4.3515,-4.3515,-4.3515,-4.3461,-4.3351,-4.3351,-4.3264,-4.2941,-4.2923,-4.2865,-4.2818,-4.0932,-3.9441,-3.8752,-3.819,-3.827,-3.906,-3.9744,-3.9621,-3.856,-3.8284,-3.786,-3.7237,-3.699,-3.6708,-3.6393,-3.6393,-3.6547,-3.6831,-3.6831,-3.7644,-3.905,-3.9596,-4.0204,-4.0788,-4.1365,-4.1817,-4.1979,-4.1128,-4.139,-4.2245,-4.3155,-4.4749,-4.6432,-4.6864,-4.7528,-4.8364,-4.962,-4.9091,-4.7935,0.0,0.0,0.0,0.0,0.0,0.0,0.0,0.0,0.0,0.0,0.0,0.0,0.0,0.0,-5.0862,-5.4308,0.0,-6.0821,-6.5057,-6.759,-6.9316,-7.0094,-7.0838,-7.1312,-7.1312,-7.1312,-7.1312,-7.1312,-7.1312,-7.0838,-6.9722,-6.9316,-6.8605,-6.7421,-6.7015,-6.6812,-6.6812,-6.6068,-6.5358,-6.4613,-6.3869,-6.2811,-6.148,-5.8897,-5.7343,-5.668,-5.4097,-5.2343,-5.1382,-5.101,-5.0297,-4.9295,-4.8405,-4.8335,-4.886,-4.9557,-4.9968,-5.0087,-4.9571,-4.8482,-4.7084,0.0,-4.4043,-4.3896,-4.3546,-4.3515,-4.3515,-4.3515,-4.3515,-4.3631,-4.3974,-4.3982,-4.3982,-4.3982,-4.3982,-4.3619,-4.2599,-4.0233,-3.8854,-3.8984,-3.8739,-3.923,-4.0726,-4.1641,-4.1683,-4.0809,-4.0561,-3.9979,-3.9182,-3.9182,-3.871,-3.782,-3.8256,-3.8469,-3.8469,-3.8469,-3.9139,-4.0275,-4.1211,-4.1711,-4.2029,-4.3111,-4.3997,-4.4509,-4.3386,-4.283,-4.2874,-4.4841,-4.556,-4.5768,-4.7064,-4.8067,-4.9025,-5.0366,-5.0552,-5.0179,-4.9613,-4.9221,0.0,0.0,0.0,0.0,0.0,0.0,0.0,0.0,0.0,-4.7771,-4.9369,-5.0882,-5.3259,-5.7465,-6.0332,-6.3518,-6.798,-6.9556,-7.0398,-7.1007,-7.121,-7.1312,-7.1312,-7.1312,-7.1312,-7.1312,-7.1312,-7.0703,-6.9214,-6.9113,-6.8436,-6.688,-6.6812,-6.6812,-6.6812,-6.6068,-6.5358,-6.4613,-6.3869,-6.265,-6.0953,-5.815,-5.6276,-5.5249,-5.232,-5.0451,-4.9434,-4.9239,-4.8416,-4.7309,-4.7309,-4.7764,-4.845,-4.7773,-4.7964,-4.8516,-4.7723,-4.7181,-4.6529,0.0,-4.4247,-4.3896,-4.3546,-4.3515,-4.3515,-4.3515,-4.3515,-4.3631,-4.3974,-4.3982,-4.3982,-4.3982,-4.3982,-4.3413,-4.2006,-4.0375,-3.97,-4.0416,-3.9753,-4.0157,-4.2081,-4.3617,-4.3499,-4.1513,-4.2235,-4.1721,-3.9802,-3.9802,-3.9759,-3.9628,-3.9683,-3.9711,-3.9711,-3.9711,-4.0361,-4.142,-4.1545,-4.2193,-4.318,-4.4205,-4.5063,-4.5866,-4.7069,-4.6819,-4.5819,-4.6096,-4.6198,-4.6377,-4.7744,-4.8517,-4.9344,-5.159,-5.2448,-5.2398,-5.1261,0.0,-4.8511,-4.6312,-4.5872,-4.665,-4.912,-4.9289,-5.0236,0.0,0.0,-5.3031,-5.524,-5.6091,-5.69,-5.8652,-6.1629,-6.4576,-6.6832,-6.8875,-7.0229,-7.0297,-7.0906,-7.1312,-7.1312,-7.1312,-7.1312,-7.1312,-7.1312,-7.0703,-6.9214,-6.9113,-6.8436,-6.688,-6.6812,-6.6812,-6.6812,-6.6068,-6.5358,-6.4613,-6.3869,-6.3045,-6.215,-5.8531,-5.6712,-5.6475,-5.2215,-5.0226,-5.0016,-4.8895,-4.7967,-4.7309,-4.7309,-4.7396,-4.7392,-4.6731,-4.6184,-4.5798,-4.6035,-4.567,-4.4905,0.0,0.0,-4.3896,-4.3546,-4.3515,-4.3515,-4.3515,-4.3515,-4.3693,-4.4261,-4.4346,-4.4346,-4.4346,-4.3974,-4.3169,-4.176,-4.0704,-4.0663,-4.1898,-4.131,-4.2018,-4.4518,-4.5258,-4.5389,-4.4941,-4.4887,-4.4631,-4.4222,-4.3789,-4.3196,-4.2505,-4.1989,-4.1691,-4.1691,-4.1691,-4.2361,-4.3524,-4.4052,-4.4576,-4.5079,-4.5929,-4.6645,-4.7383,-4.8041,-4.7915,-4.7316,-4.7316,-4.7068,0.0,0.0,-4.8528,-4.9511,-5.1965,-5.224,-5.16,-5.1294,-5.0777,0.0,-4.9695,-4.9221,-4.9323,0.0,-5.2164,-5.3551,-5.6055,-5.5515,-5.5113,-5.7292,-5.769,-5.8414,-6.0939,-6.3584,-6.5964,0.0,-6.972,-7.0838,-7.0838,-7.1109,-7.1007,-7.0128,-7.0398,-7.0838,-7.1278,-7.1312,-7.0703,-6.9214,-6.9113,-6.8436,-6.688,-6.6812,-6.6609,-6.617,-6.5425,-6.4715,-6.3971,-6.3226,-6.1783,-5.9718,-5.771,-5.5866,-5.4052,-5.1832,-5.0391,-4.9583,-4.8297,-4.7549,-4.7309,-4.7309,-4.7309,-4.7189,-4.6142,-4.5544,-4.5256,-4.5052,-4.4543,-4.3888,0.0,0.0,0.0,-4.3529,-4.3515,-4.3515,-4.3515,-4.3515,-4.371,-4.4332,-4.4546,-4.4612,-4.4612,-4.402,-4.3133,-4.1921,-4.1223,-4.1507,-4.3064,-4.2545,-4.359,-4.6643,-4.7035,-4.7525,-4.8211,-4.7961,-4.7963,-4.8246,-4.769,-4.688,-4.5787,-4.5117,-4.4688,-4.4511,-4.4511,-4.4956,-4.5865,-4.6498,-4.682,-4.6885,-4.7684,-4.8271,-4.8691,-4.8781,-4.8459,-4.7993,-4.7649,-4.6921,0.0,0.0,-4.7508,-4.8715,-5.0546,-5.097,-5.0822,-5.0619,-5.0304,-5.0132,-5.0893,0.0,0.0,-5.2906,-5.4662,-5.6235,-5.7121,-5.6873,-5.698,-5.8741,-5.9006,-5.9607,-6.2066,-6.4225,-6.6281,-6.8323,-6.9808,-7.0769,-7.0996,-7.0838,-7.0229,-6.891,-6.8876,-6.9248,-6.9992,-7.0466,-7.0161,-6.8876,-6.8774,-6.8098,-6.6576,-6.6508,-6.617,-6.5425,-6.4681,-6.3876,-6.3019,-6.2119,-6.0349,-5.7813,-5.6579,-5.4854,-5.2618,-5.1296,-4.9972,-4.8686,-4.7728,-4.7309,-4.7309,-4.7309,-4.7189,-4.692,-4.5753,-4.5185,-4.4945,-4.4287,-4.3708,-4.329,0.0,0.0,0.0,0.0,-4.3515,-4.3515,-4.3515,-4.3515,-4.3631,-4.3952,-4.4346,-4.4612,-4.4612,-4.4219,-4.3636,-4.2734,-4.191,-4.2118,-4.368,-4.3165,-4.4423,-4.8084,-4.9187,-4.9961,-5.0563,-5.1468,-5.1468,-5.0597,-5.0563,-5.0152,-4.9354,-4.932,-4.8933,-4.8226,-4.8226,-4.8263,-4.8263,-4.8299,-4.8336,-4.8409,-4.9368,-4.9714,-4.9784,-4.9953,-4.9128,-4.7735,-4.6433,0.0,-4.3886,-4.3849,-4.5041,-4.6585,-4.6586,-4.8727,0.0,-4.9461,-4.8037,-4.7092,-4.7845,0.0,-5.1109,-5.4853,-5.633,-5.7656,-6.0635,-6.0232,-5.9487,-6.044,-6.0742,-6.0884,-6.1112,-6.2823,-6.4861,-6.6914,-6.8405,-6.9495,-7.0164,-6.962,-6.8876,-6.803,-6.6677,-6.6136,0.0,-6.8301,-6.8808,-6.7996,-6.7929,-6.7286,-6.5797,-6.573,-6.5392,-6.4647,-6.3937,-6.2978,-6.1801,-6.0382,-5.9039,-5.778,-5.5265,-5.4027,-5.383,-5.0789,-4.8626,-4.7369,-4.7309,-4.7309,-4.7309,-4.7309,-4.692,-4.6249,-4.5574,-4.4915,-4.4257,-4.3559,-4.3319,-4.329,0.0,0.0,0.0,0.0,0.0,-4.3515,-4.3515,-4.3515,-4.3631,-4.3974,-4.4117,0.0,0.0,0.0,0.0,0.0,-4.2659,-4.2926,-4.4445,-4.4932,-4.6204,-4.8467,-5.0425,-5.178,-5.2472,-5.286,-5.3134,-5.3299,-5.2809,-5.2421,-5.2131,-5.152,-5.1117,-5.0869,-5.0869,-5.0869,-5.09,-5.1531,-5.1477,-5.1076,-5.1395,-5.121,-5.0624,-4.9736,-4.8443,-4.69,0.0,0.0,-4.3525,-4.3529,-4.4297,-4.5328,-4.5801,-4.6346,-4.6718,-4.621,-4.6786,-4.7942,-4.9734,-5.1321,-5.3265,-5.6586,-5.8719,-6.025,-6.1224,-6.1208,-6.1098,-6.1273,-6.0234,-5.9251,-5.9041,-6.092,-6.296,-6.435,-6.6791,-6.8931,-7.0062,-6.9992,-6.8808,-6.6034,-6.6136,0.0,0.0,0.0,0.0,-6.7184,-6.7624,-6.7252,-6.5764,-6.4924,-6.3938,-6.2698,-6.1643,-6.0457,-5.9166,-5.8637,-5.7332,-5.5265,-5.2702,-5.1486,-5.1425,-4.9509,-4.8386,-4.7938,-4.7489,-4.7309,-4.7309,-4.7309,-4.692,-4.6219,-4.5574,-4.4885,-4.4227,-4.3529,-4.329,-4.329,0.0,0.0,0.0,0.0,0.0,0.0,0.0,0.0,0.0,0.0,0.0,0.0,0.0,0.0,0.0,0.0,0.0,-4.352,-4.4769,-4.548,-4.6819,-4.8944,-5.0258,-5.1579,-5.2877,-5.2676,-5.3035,-5.4112,-5.3634,-5.3688,-5.4277,-5.367,-5.324,-5.2956,-5.2956,-5.2781,-5.2564,-5.287,-5.2725,-5.2241,-5.166,-5.0963,-5.0086,-4.8609,-4.6987,0.0,0.0,-4.2607,-4.2219,-4.2219,-4.2726,-4.347,-4.3944,-4.4316,-4.4716,-4.5224,-4.6786,-4.892,-5.1812,-5.3672,-5.5625,-5.9008,-6.0726,-6.1742,-6.2152,-6.1807,-6.121,-6.0828,-5.9296,-5.7948,-5.7746,-5.8499,-5.9837,-6.1833,-6.3896,-6.5989,-6.8253,-6.8132,-6.7117,-6.5222,-6.5121,-6.4478,0.0,0.0,0.0,-6.5967,-6.644,-6.6203,-6.4986,-6.3781,-6.2583,-6.1353,-5.9899,-5.8518,-5.7146,-5.6683,-5.5189,-5.2626,-5.0969,-4.9956,-4.9523,-4.8656,-4.8147,-4.7908,-4.7489,-4.7309,-4.7279,-4.704,-4.6561,-4.5903,-4.5214,-4.4556,-4.3858,-4.3439,-4.329,-4.329,0.0,0.0,0.0,0.0,0.0,0.0,0.0,0.0,0.0,0.0,0.0,0.0,0.0,0.0,0.0,0.0,0.0,0.0,-4.4599,-4.4844,-4.6291,-4.9297,-4.8877,-4.9597,-5.183,-5.1206,-5.161,-5.3136,-5.3172,-5.3989,-5.5629,-5.5593,-5.5143,-5.439,-5.439,-5.3937,-5.3104,-5.2369,-5.1997,-5.1829,-5.0294,-4.9209,-4.8363,-4.6857,0.0,0.0,0.0,0.0,-4.018,-4.018,-4.0671,-4.1295,-4.1276,-4.282,-4.497,-4.6422,-4.7973,-5.0063,-5.3845,-5.6007,-5.8088,-6.1916,-6.2281,-6.2047,-6.3389,-6.1975,-6.0146,-5.9411,-5.8034,-5.6964,-5.6973,-5.5667,-5.5775,-5.9436,-6.0126,-6.1451,-6.522,-6.464,-6.4275,0.0,0.0,0.0,0.0,0.0,0.0,-6.4444,0.0,-6.4241,-6.3565,-6.2299,-6.1268,-6.0534,-5.8636,-5.7055,-5.586,-5.4512,-5.2595,-5.0196,-5.0136,-4.9494,-4.8297,-4.8237,-4.7908,-4.7309,-4.7309,-4.7279,-4.7219,-4.6591,-4.5903,-4.5185,-4.4556,-4.3858,-4.329,-4.329,-4.329,-4.329,0.0,0.0,0.0,0.0,0.0,0.0,0.0,0.0,0.0,0.0,0.0,0.0,0.0,0.0,0.0,0.0,0.0,0.0,-4.3791,-4.4986,-4.5992,-4.6801,-4.839,-4.9561,-5.0198,-5.1189,-5.2013,-5.2678,-5.2658,-5.3366,-5.4634,-5.4038,-5.3495,-5.2999,-5.2999,-5.2422,-5.1413,-5.1231,-5.0796,-5.0152,0.0,-4.8342,-4.7632,0.0,0.0,0.0,0.0,0.0,0.0,0.0,0.0,0.0,0.0,-4.4003,-4.6116,-4.7041,-4.969,-5.3098,-5.6417,-5.8397,-6.0214,-6.3059,-6.3595,-6.3221,-6.2306,-6.169,-6.0689,-5.866,-5.6633,-5.4616,-5.2602,-5.3365,0.0,-5.6328,-6.0259,0.0,-6.6407,-6.7309,0.0,-6.5831,0.0,-6.441,-6.3328,-6.3226,0.0,0.0,-6.3802,-6.37,-6.3531,-6.1468,-6.0012,-5.929,-5.6575,-5.4739,-5.3917,-5.2104,-5.0863,-5.0196,-4.9254,-4.8596,-4.8267,-4.7788,-4.7459,-4.7309,-4.7309,-4.704,-4.6561,-4.6339,-4.5633,-4.4556,-4.4377,-4.3858,-4.329,-4.329,-4.329,-4.329,0.0,0.0,0.0,0.0,0.0,0.0,0.0,0.0,0.0,0.0,0.0,0.0,0.0,0.0,0.0,0.0,0.0,0.0,0.0,-4.4342,-4.5002,-4.5369,-4.6324,-4.7058,-4.7425,-4.7976,-4.8772,-4.9832,-4.9797,-5.0804,-5.2661,-5.2193,-5.1811,-5.1452,-5.1452,-5.0806,-4.9701,-4.9334,0.0,0.0,0.0,0.0,0.0,0.0,0.0,0.0,0.0,0.0,0.0,0.0,0.0,-4.3815,-4.3986,-4.5783,-4.8063,-4.9478,0.0,-5.5145,-5.825,-6.0219,-6.1732,-6.3139,-6.3529,-6.2923,-6.0576,-5.979,-5.869,-5.5621,-5.3957,-5.2539,-5.0671,-5.1652,-5.311,0.0,0.0,0.0,-6.5284,-6.6487,-6.7015,0.0,-6.6068,0.0,-6.4106,-6.4005,-6.3869,0.0,-6.3193,-6.3024,-6.3024,-6.075,-5.9196,-5.8812,-5.5494,-5.3294,-5.2336,-5.0883,-5.0046,-4.9793,-4.8775,-4.8147,-4.7848,-4.7489,-4.7309,-4.7309,0.0,-4.692,-4.6249,-4.5992,-4.5244,-4.4287,-4.3988,-4.3618,-4.329,-4.329,-4.329,-4.326,0.0,0.0,0.0,0.0,0.0,0.0,0.0,0.0,0.0,0.0,-4.3588,0.0,0.0,0.0,0.0,0.0,0.0,0.0,0.0,0.0,0.0,-4.4525,-4.3864,-4.3828,-4.4525,-4.3975,-4.4492,-4.6238,-4.6323,-4.7663,-5.0176,-5.0145,-4.9943,0.0,0.0,0.0,0.0,0.0,0.0,0.0,0.0,0.0,0.0,0.0,0.0,0.0,0.0,0.0,0.0,0.0,-4.4753,-4.5433,-4.584,-4.7818,-5.038,-5.2515,-5.4552,-5.6809,-5.9806,-6.1695,-6.2852,-6.286,-6.282,-6.1963,-5.8745,-5.7298,-5.5525,-5.1702,0.0,-5.0543,-4.9772,-5.0192,-5.1349,-5.3547,0.0,-5.9985,-6.3584,-6.4546,-6.5628,-6.7658,-6.6677,-6.5595,-6.4952,-6.4816,-6.4444,-6.37,-6.2956,-6.2482,-6.2381,-6.002,-5.8454,-5.7947,-5.4769,-5.2456,-5.1229,-5.0435,-4.9823,-4.9299,-4.8506,-4.7848,-4.7309,-4.7309,-4.7309,-4.7309,-4.7309,-4.689,-4.6142,-4.5544,-4.4855,-4.4137,-4.3529,-4.329,-4.329,-4.329,-4.329,-4.323,0.0,0.0,0.0,0.0,0.0,0.0,0.0,0.0,0.0,0.0,-4.3901,-4.3515,0.0,0.0,0.0,0.0,0.0,0.0,0.0,0.0,0.0,0.0,-4.3588,-4.3588,-4.3718,-4.4232,-4.4841,-4.5482,-4.5767,-4.6666,-4.8134,-4.7701,-4.7313,0.0,0.0,0.0,0.0,0.0,0.0,0.0,0.0,0.0,0.0,0.0,0.0,0.0,0.0,0.0,0.0,0.0,-4.7499,-4.8175,-4.7323,-4.9303,-5.2338,-5.393,-5.6321,-5.8982,-6.1497,-6.2887,-6.3637,-6.368,-6.3248,-6.1817,-5.8052,-5.6113,0.0,0.0,-4.8917,-4.8195,-4.7302,-4.8493,-5.0725,-5.3922,-5.7216,-6.0826,-6.5,-6.6086,-6.6812,0.0,-6.7151,-6.6576,-6.644,-6.5865,0.0,0.0,-6.3734,-6.3057,-6.2415,-5.9615,-5.6528,-5.3459,-5.2695,-5.2007,-5.1229,-5.0032,-4.9419,-4.9299,-4.8057,-4.7429,-4.7309,-4.7309,-4.7309,-4.7309,-4.7309,0.0,-4.5454,-4.5334,-4.4586,-4.3439,-4.3349,-4.329,-4.329,-4.329,-4.329,-4.329,0.0,0.0,0.0,0.0,0.0,0.0,0.0,-4.4121,-4.4415,-4.5223,-4.5369,-4.5039,-4.4232,-4.3754,-4.3515,0.0,0.0,0.0,0.0,0.0,0.0,0.0,0.0,0.0,0.0,-4.3864,-4.4251,-4.4609,0.0,-4.5353,-4.6282,-4.6066,-4.578,-4.5418,-4.5256,-4.4636,-4.3726,-4.3563,0.0,-4.3588,-4.4378,-4.4691,0.0,0.0,0.0,0.0,0.0,0.0,0.0,0.0,-4.7933,-4.9452,-4.9868,-5.1787,-5.4215,-5.6116,-5.8057,-6.0024,-6.1941,-6.3093,-6.3653,-6.3298,-6.2673,-6.0909,-5.6347,0.0,0.0,0.0,-4.7022,-4.7072,-4.6246,-4.776,0.0,-5.2053,-5.532,-5.894,-6.3133,-6.4513,0.0,-6.7151,-6.6677,-6.6068,0.0,-6.5324,-6.4816,-6.4106,-6.37,-6.3193,-6.2415,-5.9484,-5.6064,-5.2342,-5.2187,-5.1887,-5.1229,-4.9912,-4.9299,-4.9299,-4.7938,-4.7309,-4.7309,-4.7309,-4.7309,-4.7309,-4.7309,-4.6531,-4.5334,-4.5693,-4.4825,-4.3319,-4.3678,-4.3589,-4.329,-4.329,-4.329,-4.329,0.0,0.0,0.0,0.0,0.0,0.0,0.0,-4.4691,-4.5112,-4.625,-4.6819,-4.6636,-4.5351,-4.4488,-4.3882,0.0,0.0,0.0,0.0,0.0,0.0,0.0,0.0,0.0,0.0,0.0,0.0,-4.4156,-4.4197,0.0,0.0,0.0,0.0,0.0,-4.4637,-4.4242,-4.3614,-4.3512,-4.3625,0.0,0.0,-4.5058,0.0,0.0,0.0,0.0,0.0,0.0,0.0,0.0,-4.7827,-4.9558,-5.1553,-5.3329,-5.5046,-5.7166,-5.8775,-6.0148,-6.1535,-6.2771,-6.3482,-6.2584,-6.1801,-5.9932,-5.4857,-5.2785,0.0,0.0,-4.5529,-4.621,-4.5771,-4.7124,-4.8841,0.0,-5.317,-5.6508,-6.0937,-6.2393,-6.3869,0.0,-6.5831,0.0,-6.4647,-6.4613,0.0,-6.3565,-6.3226,-6.2487,-6.1281,-5.8773,-5.5687,-5.2102,-5.2007,-5.1738,-5.1229,-4.9912,-4.9299,-4.9299,-4.7938,-4.7309,-4.7309,-4.7309,-4.7309,-4.7309,-4.7309,-4.6621,-4.5544,-4.5933,-4.5095,-4.3529,-4.3958,-4.3738,-4.329,-4.329,-4.329,-4.329,0.0,0.0,0.0,0.0,0.0,0.0,0.0,-4.4691,-4.5516,-4.7792,-4.7516,-4.7039,-4.6892,-4.6177,-4.5076,0.0,0.0,0.0,0.0,0.0,0.0,0.0,0.0,0.0,0.0,0.0,0.0,-4.4651,-4.4946,0.0,0.0,0.0,0.0,0.0,0.0,-4.4346,-4.3943,-4.3647,0.0,0.0,0.0,0.0,0.0,0.0,0.0,0.0,0.0,0.0,0.0,0.0,0.0,-4.8271,-5.0527,-5.2068,-5.3428,-5.498,0.0,0.0,-6.008,-6.1987,-6.3379,-6.1947,-6.1016,-5.9221,-5.475,0.0,0.0,-4.5391,-4.4716,-4.4987,-4.5602,-4.5872,-4.7365,-5.1459,0.0,-5.4667,-6.0502,-6.1424,-6.2313,-6.4546,0.0,0.0,-6.4613,-6.4613,-6.4309,-6.3565,-6.2279,-6.0278,-5.7484,-5.6434,-5.4449,-5.1366,-5.1319,-5.1289,-5.1229,-4.9912,-4.9299,-4.9299,-4.7938,-4.7309,-4.7309,-4.7309,-4.7309,-4.7309,-4.7309,-4.689,0.0,-4.5633,-4.4915,-4.4167,-4.3589,-4.3349,-4.329,-4.329,-4.329,-4.329,0.0,0.0,0.0,0.0,0.0,0.0,-4.4599,-4.4691,-4.559,-4.7976,-4.8489,-4.86,-4.86,-4.7865,-4.6324,-4.3735,0.0,0.0,0.0,0.0,0.0,0.0,0.0,0.0,0.0,0.0,-4.4966,-4.5406,-4.5547,0.0,0.0,0.0,0.0,0.0,0.0,-4.4734,-4.3677,0.0,0.0,0.0,0.0,0.0,0.0,0.0,0.0,0.0,0.0,0.0,0.0,0.0,0.0,0.0,-4.7672,-4.8785,0.0,0.0,-5.5835,-5.7374,-5.8998,-6.0449,-6.141,-6.0874,-5.9446,-5.7274,-5.3781,0.0,-4.8537,-4.5273,-4.4615,-4.4716,-4.4959,-4.5026,-4.5906,-4.8545,0.0,0.0,-5.5886,-5.6596,-5.7915,-6.1467,-6.1907,0.0,0.0,0.0,-6.2956,-6.2245,-6.0583,-5.8584,-5.6263,-5.5847,-5.4292,-5.1276,-5.0794,-5.0584,-5.0584,-4.9314,-4.8686,-4.87,-4.7758,-4.7309,-4.7309,-4.7309,-4.7309,-4.7309,-4.7309,-4.692,0.0,-4.6022,-4.5274,-4.4287,-4.4018,-4.3648,-4.329,-4.329,-4.329,-4.329,0.0,0.0,0.0,0.0,0.0,-4.3754,-4.4599,-4.4892,-4.5847,-4.8012,-4.882,-4.9407,-4.9904,-4.8746,-4.7131,-4.5112,-4.4048,0.0,0.0,0.0,0.0,0.0,0.0,0.0,0.0,0.0,-4.5423,-4.599,-4.6176,-4.6152,0.0,0.0,-4.6083,-4.4743,0.0,0.0,0.0,0.0,0.0,0.0,0.0,0.0,0.0,0.0,0.0,0.0,0.0,0.0,0.0,0.0,0.0,0.0,0.0,0.0,0.0,0.0,-5.4262,-5.5784,-5.7543,-5.9066,-6.0001,-5.9702,-5.7865,-5.5407,0.0,0.0,-4.7603,-4.5122,-4.4615,-4.4615,-4.4615,-4.4615,-4.5089,0.0,0.0,-4.8545,-5.2604,-5.3348,-5.4837,0.0,0.0,-5.9471,0.0,-6.2009,-6.1959,-6.0869,-5.9358,-5.7551,-5.5334,-5.4792,-5.344,-5.0976,-5.0435,-5.0106,-4.9942,-4.8835,-4.8297,-4.8267,-4.7608,-4.7309,-4.7309,-4.7309,-4.7309,-4.7309,-4.7309,-4.692,0.0,-4.6112,-4.5334,-4.4287,-4.4067,-4.3708,-4.329,-4.329,-4.329,-4.329,0.0,0.0,0.0,0.0,0.0,0.0,-4.4599,-4.5369,-4.6471,-4.8086,-4.8306,-4.8967,-5.0618,-4.858,-4.7406,-4.8196,-4.5333,0.0,0.0,0.0,0.0,0.0,0.0,0.0,0.0,0.0,-4.6173,-4.6173,-4.6791,-4.7278,-4.7636,-4.678,-4.6408,-4.6334,0.0,0.0,0.0,0.0,0.0,0.0,0.0,0.0,0.0,0.0,0.0,0.0,0.0,0.0,0.0,0.0,0.0,0.0,0.0,-4.5096,-4.5359,0.0,-5.2266,-5.4769,-5.5547,-5.7881,-5.9763,-5.8356,-5.624,-5.3987,0.0,0.0,-4.6297,-4.4884,-4.4615,-4.4615,-4.4615,-4.4615,-4.5089,-4.6549,-4.7428,0.0,-5.1994,-5.3044,0.0,0.0,0.0,-5.663,-5.8829,-6.1061,-6.1648,-5.9762,-5.8921,0.0,-5.4193,-5.2709,-5.1414,-5.0242,-5.0196,-4.9912,-4.9329,-4.8626,-4.8297,-4.8267,-4.7608,-4.7309,-4.7309,-4.7309,-4.7309,-4.7309,-4.7309,-4.692,0.0,-4.5574,-4.4915,-4.4257,-4.3559,-4.329,-4.329,-4.329,-4.329,-4.329,0.0,0.0,0.0,0.0,0.0,0.0,0.0,-4.4085,-4.4819,-4.6434,-4.6654,-4.7278,-4.893,-4.7883,-4.7186,-4.7443,-4.6067,0.0,0.0,0.0,0.0,0.0,0.0,0.0,0.0,0.0,-4.6288,-4.7854,-4.8025,-4.8433,-4.9011,-4.8967,-4.819,-4.6872,-4.6904,-4.6396,0.0,0.0,0.0,0.0,0.0,0.0,0.0,0.0,0.0,0.0,0.0,0.0,0.0,0.0,0.0,0.0,0.0,0.0,0.0,-4.6583,-4.8849,-5.0947,-5.1657,-5.3281,-5.4533,-5.3578,-5.2041,-5.0438,-4.9274,0.0,-4.5744,-4.4806,-4.4615,-4.4615,-4.4615,-4.4615,-4.5089,-4.6549,-4.6989,0.0,0.0,0.0,0.0,-5.4702,-5.7171,-5.8998,0.0,0.0,-6.0063,-5.8236,-5.7134,-5.541,-5.2722,-5.1406,-5.0547,-5.0196,-4.9374,-4.8805,-4.8596,-4.7938,-4.7608,-4.7608,-4.7399,-4.7309,-4.7309,-4.7309,-4.7309,-4.7279,-4.683,-4.677,-4.686,-4.5274,-4.4766,-4.4885,-4.3738,-4.329,-4.329,-4.329,-4.329,-4.329,0.0,0.0,0.0,0.0,0.0,0.0,0.0,-4.3754,-4.4305,-4.5333,-4.5443,-4.6287,-4.8563,-4.7498,-4.7259,-4.882,-4.7645,0.0,0.0,0.0,0.0,0.0,0.0,0.0,-4.4592,-4.5104,-4.6436,-4.8716,-4.892,-4.9552,-5.0492,-5.0711,-4.9806,-4.8049,-4.7959,-4.735,0.0,0.0,0.0,0.0,0.0,0.0,-4.7442,0.0,0.0,0.0,0.0,0.0,0.0,0.0,0.0,0.0,0.0,0.0,0.0,0.0,-4.6447,-4.8037,-4.9323,-5.0777,-5.1725,-5.098,-4.9695,-4.8409,0.0,0.0,-4.5128,-4.4716,-4.4615,-4.4615,-4.4615,-4.4615,-4.4987,-4.6177,-4.6616,-4.7327,0.0,0.0,0.0,-5.3957,0.0,0.0,0.0,-5.8969,-5.8555,-5.6298,-5.5219,-5.3683,-5.1356,-5.014,-4.9494,-4.9494,-4.8716,-4.8177,-4.7908,-4.7519,-4.7309,-4.7309,-4.7309,-4.7309,-4.7309,-4.7309,-4.716,-4.692,-4.6459,-4.6262,0.0,-4.4825,-4.4407,-4.4466,-4.3618,-4.329,-4.329,-4.329,-4.329,-4.329,0.0,0.0,0.0,0.0,0.0,0.0,0.0,-4.4121,-4.4635,-4.4635,-4.4635,-4.5773,-4.8839,-4.7205,-4.7425,-5.1206,0.0,0.0,0.0,0.0,0.0,0.0,0.0,0.0,-4.4069,-4.5018,-4.6602,-4.8834,-4.9541,-5.0635,-5.2009,-5.2087,-5.1226,-4.9647,-4.8783,-4.792,0.0,0.0,0.0,0.0,-4.8267,-4.7858,0.0,0.0,0.0,0.0,0.0,0.0,0.0,0.0,0.0,0.0,0.0,0.0,0.0,0.0,0.0,0.0,0.0,-4.9661,-5.0574,-4.9796,-4.8545,-4.7361,-4.6684,0.0,0.0,-4.4581,-4.4547,-4.4547,-4.4682,-4.4649,-4.4886,-4.5635,-4.6346,-4.7293,0.0,-5.0338,0.0,0.0,-5.5615,0.0,-5.5226,-5.7034,-5.7033,-5.4037,-5.325,-5.2024,-5.0168,-4.8955,-4.8267,-4.8207,-4.8207,-4.7908,-4.7309,-4.7309,-4.7309,-4.7309,-4.7309,-4.7309,-4.7309,-4.7309,-4.695,0.0,-4.6262,-4.5502,-4.4377,-4.4287,-4.3858,-4.3349,-4.3319,-4.329,-4.329,-4.329,-4.329,-4.329,0.0,0.0,0.0,0.0,0.0,0.0,0.0,0.0,0.0,0.0,-4.3791,-4.4085,-4.4873,-4.5516,-4.6287,0.0,0.0,0.0,0.0,0.0,0.0,0.0,0.0,0.0,-4.4892,-4.5423,-4.6419,-4.8041,-4.9928,-5.1286,-5.2091,-5.2645,-5.205,-5.0472,-4.9664,-4.882,0.0,0.0,0.0,0.0,-4.7797,-4.7198,0.0,0.0,0.0,0.0,-4.507,-4.4841,0.0,0.0,0.0,0.0,0.0,0.0,0.0,0.0,-4.3781,-4.4051,-4.4559,0.0,-4.594,-4.5196,-4.4282,-4.3707,0.0,-4.3504,0.0,0.0,0.0,0.0,0.0,-4.4959,-4.5021,-4.6312,-4.6684,-4.7124,-4.8037,0.0,0.0,-5.5784,-5.6968,-5.6939,-5.5292,-5.5683,-5.502,-5.2592,-5.1778,-5.0611,-4.8865,-4.8446,-4.8057,-4.7549,-4.7549,-4.7459,-4.7309,-4.7309,-4.7309,-4.7309,-4.7309,-4.7309,-4.7309,-4.7309,-4.695,-4.6249,-4.5753,-4.5364,-4.4975,-4.3947,-4.3738,-4.3977,-4.3499,-4.329,-4.329,-4.329,-4.329,-4.329,0.0,0.0,0.0,0.0,0.0,0.0,0.0,0.0,0.0,0.0,0.0,-4.4048,-4.4048,-4.548,0.0,0.0,0.0,0.0,0.0,0.0,0.0,0.0,0.0,-4.4751,-4.5198,-4.5539,-4.6578,-4.8348,-4.994,-5.1367,-5.2678,-5.3076,-5.2382,-5.0765,-4.9554,-4.8746,-4.8306,-4.8306,-4.8306,-4.8267,-4.7919,0.0,0.0,0.0,0.0,0.0,-4.4137,-4.3822,0.0,-4.3944,-4.4045,-4.3978,0.0,0.0,0.0,0.0,-4.2895,-4.2895,-4.2895,-4.347,-4.3944,-4.3538,-4.3098,-4.2929,-4.3308,0.0,0.0,0.0,0.0,0.0,0.0,-4.4891,-4.5365,-4.6177,-4.6853,0.0,0.0,0.0,-5.4194,-5.6089,-5.6664,-5.6255,0.0,-5.4163,-5.3093,-5.0866,-5.0092,-4.927,-4.8341,-4.7997,-4.7668,-4.7309,-4.7309,-4.7309,-4.7309,-4.7309,-4.7309,-4.7309,-4.7309,-4.7309,-4.7309,-4.7309,-4.677,-4.5843,-4.5454,-4.4945,-4.4347,-4.3589,-4.3499,-4.3838,-4.3439,-4.329,-4.329,-4.329,-4.329,-4.329,0.0,0.0,0.0,0.0,0.0,0.0,0.0,0.0,0.0,0.0,0.0,0.0,0.0,0.0,0.0,0.0,0.0,0.0,0.0,0.0,0.0,0.0,-4.5954,-4.5304,-4.5552,-4.5642,-4.6755,-4.8834,-4.9819,-5.1262,-5.3146,-5.3496,-5.269,-5.0912,-4.9517,-4.8746,-4.8526,-4.8636,-4.86,-4.8489,-4.8489,0.0,0.0,0.0,0.0,0.0,0.0,0.0,0.0,-4.3031,-4.3308,-4.3341,-4.3139,0.0,0.0,0.0,0.0,0.0,-4.2252,-4.2828,-4.3341,-4.3105,-4.3037,-4.3037,-4.3037,0.0,0.0,0.0,0.0,0.0,0.0,-4.4823,0.0,0.0,0.0,0.0,-5.1386,-5.2841,-5.416,-5.5547,-5.5818,0.0,-5.3423,-5.2709,-5.1464,-4.9329,-4.8506,-4.8147,-4.8147,-4.7608,-4.7309,-4.7309,-4.7309,-4.7249,-4.716,-4.716,-4.7219,-4.7309,-4.71,-4.707,-4.716,-4.704,-4.6322,-4.5155,0.0,0.0,-4.329,-4.329,-4.329,-4.329,-4.329,-4.329,-4.329,-4.329,-4.323,-4.314,0.0,0.0,0.0,0.0,0.0,0.0,0.0,0.0,0.0,0.0,0.0,0.0,0.0,0.0,0.0,0.0,0.0,0.0,0.0,0.0,0.0,-4.8159,-4.6262,-4.5835,-4.7179,-4.6227,-4.6472,-4.8048,-5.0119,-5.1549,-5.25,-5.4424,-5.4047,-5.1793,-5.1536,-5.0655,-4.9463,-5.0141,-5.0031,-4.939,-4.939,0.0,0.0,0.0,0.0,0.0,0.0,0.0,0.0,-4.2422,-4.2895,-4.3172,-4.1948,0.0,0.0,0.0,0.0,0.0,-4.2117,-4.2828,-4.3105,-4.1847,-4.1542,-4.1542,-4.1542,0.0,0.0,0.0,0.0,0.0,0.0,-4.5534,-4.6109,0.0,0.0,-5.0067,0.0,0.0,-5.4735,-5.5615,0.0,-5.5332,-5.2066,-5.1684,-5.0772,-4.8593,-4.7818,-4.7459,-4.7459,-4.7369,-4.7309,-4.7309,-4.7309,-4.704,-4.6429,-4.6429,-4.6741,-4.7309,-4.6142,-4.5903,-4.6399,-4.5873,-4.5185,-4.4466,0.0,-4.3977,-4.329,-4.329,-4.329,-4.329,-4.329,-4.329,-4.329,-4.329,-4.3,-4.247,0.0,0.0,0.0,0.0,0.0,0.0,0.0,0.0,0.0,0.0,0.0,0.0,0.0,0.0,0.0,0.0,0.0,0.0,0.0,0.0,-4.9831,-5.0288,-4.8259,-4.7274,-4.7568,-4.712,-4.7631,-4.9086,-5.054,-5.1804,-5.2914,-5.3463,-5.308,-5.1977,-5.1536,-5.0692,-4.9647,-5.0472,-5.0325,-4.961,0.0,0.0,0.0,0.0,0.0,0.0,0.0,0.0,0.0,0.0,-4.1948,-4.2117,-4.1407,0.0,0.0,0.0,0.0,0.0,-4.1027,-4.1644,-4.2049,-4.1373,-4.2117,-4.2794,-4.1982,-4.1508,0.0,0.0,0.0,0.0,0.0,0.0,-4.75,-4.9359,0.0,-5.0159,-5.2436,-5.3112,-5.3449,0.0,0.0,-5.3198,-5.0816,-5.0268,-4.9429,-4.7859,-4.7489,-4.7309,-4.7309,-4.7309,-4.713,-4.68,-4.713,-4.698,-4.6279,-4.5963,-4.5933,-4.6202,-4.5574,-4.5454,-4.5753,-4.5454,-4.4945,-4.4317,0.0,-4.3917,-4.329,-4.329,-4.329,-4.329,-4.329,-4.329,-4.326,-4.294,-4.2611,-4.2291,0.0,0.0,0.0,0.0,0.0,0.0,0.0,0.0,0.0,0.0,0.0,0.0,0.0,0.0,0.0,0.0,0.0,0.0,0.0,0.0,-5.0161,-5.1353,-4.9754,-4.8749,-4.8664,-4.8186,-4.8815,-5.0608,-5.1183,-5.2313,-5.3917,-5.3219,-5.2684,-5.2242,-5.1841,-5.1096,-5.0198,-5.1022,-5.0912,-5.0161,0.0,0.0,0.0,0.0,0.0,0.0,0.0,0.0,0.0,0.0,0.0,0.0,0.0,0.0,0.0,-4.0316,-4.0113,-4.0146,-4.0316,-4.0899,-4.1407,-4.1238,-4.2489,-4.3572,-4.276,-4.2422,-4.2388,0.0,0.0,0.0,0.0,-4.6473,0.0,-5.0287,-5.0054,-4.9969,-5.1092,-5.1763,-5.2019,-5.1831,-5.1823,-5.1242,-4.977,-4.912,-4.8377,-4.7396,-4.7309,-4.7309,-4.7309,-4.716,-4.683,-4.6352,-4.6651,-4.6531,-4.5831,-4.5334,-4.5214,-4.5544,-4.5065,-4.4915,-4.5065,-4.4915,-4.4556,-4.4077,-4.4077,-4.3768,-4.329,-4.329,-4.329,-4.329,-4.329,-4.32,-4.303,-4.241,-4.2171,-4.2081,0.0,0.0,0.0,0.0,0.0,0.0,0.0,0.0,0.0,0.0,0.0,0.0,0.0,0.0,0.0,0.0,0.0,0.0,0.0,0.0,-4.9647,-4.9757,-4.9157,-4.9776,-5.1812,-4.928,-4.9289,-5.2131,-5.2198,-5.3336,-5.5542,-5.5445,-5.4603,-5.3135,-5.3843,-5.3261,-5.1867,-5.2711,-5.2564,-5.1756,-5.1022,0.0,0.0,0.0,0.0,0.0,0.0,0.0,0.0,0.0,0.0,0.0,0.0,0.0,-4.1068,-4.0316,-4.0113,-4.0248,-4.0933,-4.1644,-4.2049,-4.1373,-4.1339,-4.1779,-4.3003,-4.2794,-4.2692,-4.4141,0.0,0.0,0.0,-4.666,-4.7803,-4.866,-4.9105,-4.9839,-5.1276,0.0,-5.1566,-5.1552,-5.1552,-5.0826,-4.9056,-4.88,-4.8377,-4.7396,-4.7309,-4.7309,-4.7309,-4.6741,-4.6339,-4.6279,-4.5753,-4.5125,-4.4466,-4.4407,-4.5005,-4.619,-4.4336,-4.3768,-4.4377,-4.3708,-4.3409,-4.3349,-4.3349,-4.3349,-4.329,-4.329,-4.329,-4.329,-4.329,-4.297,-4.2381,-4.1722,-4.1444,-4.1392,0.0,0.0,0.0,0.0,0.0,0.0,0.0,0.0,0.0,0.0,0.0,0.0,0.0,0.0,0.0,0.0,0.0,0.0,0.0,-4.9114,-5.0051,-5.1042,-5.0067,-5.0105,-5.1484,-5.0518,-5.1217,-5.3721,-5.4194,-5.4598,-5.4988,-5.4022,-5.3006,-5.1922,-5.2653,-5.235,-5.1391,-5.2673,-5.2454,-5.1242,-5.0912,-4.9994,0.0,0.0,0.0,0.0,0.0,0.0,0.0,0.0,-4.0734,-4.0485,-4.018,-4.0282,-4.0485,-4.018,-3.974,-3.9408,-3.9674,-3.9616,-3.9547,-3.971,-3.9416,-3.9863,-4.2745,-4.3572,-4.4175,-4.5635,-4.6177,0.0,0.0,0.0,-4.774,-4.9048,-4.8775,-4.8961,-5.0575,-5.082,-5.0547,-4.9913,-4.9833,-4.9324,-4.7976,-4.7892,-4.7722,-4.7352,-4.7309,-4.713,-4.6711,-4.6471,-4.5891,-4.5053,-4.5214,-4.4975,-4.4317,-4.4317,-4.4556,-4.5065,-4.3858,-4.3409,-4.3648,-4.3409,-4.329,-4.329,-4.329,-4.329,-4.329,-4.329,-4.309,-4.2701,-4.2282,-4.1953,-4.1722,-4.1025,-4.0756,-4.0726,0.0,0.0,0.0,0.0,0.0,0.0,0.0,0.0,0.0,0.0,0.0,0.0,0.0,0.0,0.0,0.0,0.0,0.0,-4.7865,-4.871,-4.9664,-5.0765,-5.0194,-5.0236,-5.1025,-5.1381,-5.2291,-5.3856,-5.4871,-5.4975,-5.423,-5.2896,-5.2027,-5.1473,-5.1683,-5.1622,-5.1359,-5.2154,-5.1849,-5.0811,-5.0558,-4.9738,0.0,0.0,0.0,0.0,0.0,0.0,0.0,0.0,-4.0803,-4.0319,-4.0129,-3.9927,-3.9714,-3.9714,-3.9183,-3.8553,-3.8553,-3.8161,-3.7918,-3.8427,-3.8334,-3.9037,-4.2589,-4.3838,-4.4904,-4.7331,-4.7248,-4.6965,-4.7673,0.0,0.0,0.0,-4.7784,-4.7824,-4.9233,-4.9447,-4.9166,-4.8418,-4.8335,-4.8072,-4.7396,-4.713,-4.707,-4.7279,-4.692,-4.6561,-4.6279,-4.5891,-4.5274,-4.4347,-4.4556,-4.4466,-4.4018,-4.3977,-4.3977,-4.3988,-4.3499,-4.329,-4.329,-4.329,-4.329,-4.329,-4.312,-4.303,-4.3,-4.2791,-4.2462,-4.2051,-4.1602,-4.1265,-4.1025,-4.0576,-4.0397,-4.0427,0.0,0.0,0.0,0.0,0.0,0.0,0.0,0.0,-5.0802,-5.0802,-5.0802,0.0,0.0,0.0,0.0,0.0,0.0,0.0,-4.7039,-4.781,-4.8269,-4.8306,-4.9183,-5.0068,-5.0937,-5.1749,-5.2183,-5.2334,-5.3822,-5.4194,-5.345,-5.2654,-5.229,-5.225,-5.1446,-5.1484,-5.2121,-5.1263,-5.0862,-5.0787,-4.9955,-4.9591,-4.9297,0.0,0.0,0.0,0.0,0.0,0.0,0.0,-4.1385,-4.0803,-4.0279,-3.9558,-3.8908,-3.8908,-3.8386,-3.7793,-3.7793,-3.7793,-3.7793,-3.7793,-3.8307,-3.9601,-4.2676,-4.338,-4.4646,-4.9133,-4.8222,-4.6814,-4.7441,-4.5454,0.0,-4.5395,-4.597,-4.6488,-4.7189,-4.7309,-4.7309,-4.7309,-4.7279,-4.7279,-4.7309,-4.6711,-4.6591,-4.7249,-4.6052,-4.5603,-4.6262,-4.5035,-4.4317,-4.4317,-4.3648,-4.329,-4.329,-4.329,-4.329,-4.329,-4.329,-4.329,-4.329,-4.329,-4.329,-4.326,-4.2641,-4.241,-4.2351,-4.1692,-4.1422,-4.1422,-4.1354,-4.0965,-4.0397,-4.0397,-4.0397,-4.0487,0.0,0.0,0.0,0.0,0.0,0.0,0.0,0.0,-5.0802,-5.0802,-5.0802,0.0,0.0,0.0,0.0,0.0,0.0,0.0,-4.625,-4.6471,-4.6874,-4.7443,-4.7819,-4.7917,-4.7769,-4.8694,-5.0728,-5.3923,-5.3856,-5.3179,-5.1894,-5.1643,-5.0955,-5.0029,-5.0801,-5.0718,-4.9901,-5.0156,-4.9637,-4.8675,-4.8836,-4.8566,-4.7881,0.0,0.0,0.0,0.0,0.0,0.0,0.0,0.0,0.0,-4.0279,-3.9927,-3.9636,-3.9069,-3.8386,-3.7706,-3.7114,-3.66,-3.6286,-3.6744,0.0,0.0,0.0,-4.2813,0.0,0.0,-4.7439,-4.7012,-4.6016,-4.5088,0.0,-4.4847,-4.5283,-4.5663,-4.5873,-4.6322,-4.6621,-4.6621,-4.6172,-4.6082,-4.6561,-4.5992,-4.5693,-4.5873,-4.5514,-4.5185,-4.4915,-4.4526,-4.4067,-4.3589,-4.3379,-4.329,-4.329,-4.329,-4.329,-4.329,-4.329,-4.329,-4.329,-4.329,-4.329,-4.326,-4.2641,-4.241,-4.2321,-4.1145,-4.0696,-4.0636,-4.0187,-3.9888,-3.9768,-4.0217,-4.0098,-3.9798,0.0,0.0,0.0,0.0,0.0,0.0,0.0,0.0,-5.1169,-5.0839,-5.0802,-5.0875,0.0,0.0,0.0,0.0,0.0,0.0,0.0,-4.559,-4.592,-4.7039,-4.7498,-4.7875,-4.8229,-4.8598,-4.9965,-5.2367,-5.2232,-5.1657,-5.0777,-5.0777,-5.0304,-4.9489,-5.0666,-5.036,-4.8976,-4.9385,-4.8626,-4.7287,-4.7593,-4.7383,-4.6813,0.0,0.0,0.0,0.0,0.0,0.0,0.0,0.0,0.0,-4.0601,-4.007,-3.9532,-3.9043,-3.7935,-3.6886,-3.666,-3.5856,-3.531,-3.6267,-3.7135,-3.8581,-4.1507,0.0,0.0,0.0,-4.6666,-4.6282,-4.5552,-4.4545,0.0,-4.4403,-4.471,-4.5005,-4.5244,-4.5663,-4.5903,-4.5903,-4.5544,-4.5454,-4.5873,-4.5304,-4.5005,-4.5274,-4.4825,-4.4466,-4.4317,-4.4077,-4.3708,-4.329,-4.329,-4.329,-4.329,-4.329,-4.329,-4.329,-4.306,-4.294,-4.294,-4.294,-4.294,-4.288,-4.1983,-4.1482,-4.1145,-4.0337,-4.0008,-3.9978,-3.9589,-3.9373,-3.9433,-3.9858,-3.9768,-3.9529,0.0,0.0,-4.77,-4.9317,0.0,0.0,0.0,0.0,-5.172,-5.0912,-5.0802,-5.0508,0.0,0.0,0.0,0.0,0.0,0.0,0.0,0.0,-4.5535,-4.7149,-4.7953,-4.9162,-5.0857,-5.0179,-4.9492,-4.8917,-4.9627,-4.9965,-4.9898,-5.0033,-5.0067,-5.0033,-5.0777,-5.0202,-4.8677,-4.8506,-4.7575,-4.6203,-4.6228,-4.6112,-4.5845,-4.5189,0.0,0.0,0.0,0.0,0.0,0.0,0.0,0.0,-4.1093,-4.0034,-3.9069,-3.8935,-3.7423,-3.5915,-3.6445,-3.5674,-3.5013,-3.6237,-3.7584,0.0,-4.1976,-4.4746,-4.6793,-4.6929,0.0,-4.4949,-4.5494,-4.386,-4.28,-4.3958,-4.4227,-4.4496,-4.5035,-4.5155,-4.5214,-4.5214,-4.5155,-4.5125,-4.5185,-4.4616,-4.4466,-4.5065,-4.4018,-4.3559,-4.4197,-4.3618,-4.329,-4.329,-4.323,-4.32,-4.32,-4.314,-4.311,-4.311,-4.2551,-4.2321,-4.2321,-4.2321,-4.2291,-4.2141,-4.0905,-4.0038,-3.9373,-3.9373,-3.9373,-3.9373,-3.9373,-3.9373,-3.9403,-3.9499,-3.9433,-3.9529,0.0,0.0,-4.8379,-4.9427,0.0,0.0,0.0,0.0,0.0,-5.0912,0.0,0.0,0.0,0.0,0.0,0.0,0.0,0.0,0.0,0.0,-4.6361,-4.7957,-4.8446,-4.9161,-5.0114,-4.842,-4.7733,-4.8142,-4.8883,-4.8951,-4.8409,-4.956,-4.9796,-4.9255,-4.9999,-4.8883,-4.638,-4.5739,-4.4633,-4.3318,-4.4394,-4.4488,-4.3956,-4.4205,-4.419,0.0,0.0,0.0,0.0,0.0,0.0,0.0,-4.1228,-4.0698,-4.0266,-3.9196,-3.8144,-3.7221,-3.6721,-3.6313,0.0,-3.7015,-3.8601,-4.0291,-4.1407,-4.2182,-4.3013,-4.4246,-4.4252,-4.3852,-4.3243,-4.2745,-4.25,-4.277,-4.3658,-4.4197,-4.3768,-4.4197,-4.4526,-4.4526,-4.4077,-4.3958,-4.4466,-4.3888,-4.3559,-4.3708,-4.3439,-4.3349,-4.3499,-4.3379,-4.329,-4.329,-4.2851,-4.262,-4.262,-4.2073,-4.1803,-4.1803,-4.1692,-4.1632,-4.1632,-4.1632,-4.1362,-4.0816,-4.0516,-4.0038,-3.9373,-3.9373,-3.9373,-3.9373,-3.9373,-3.9373,-3.9433,-4.0008,-3.9858,-3.9529,0.0,0.0,0.0,0.0,0.0,0.0,0.0,0.0,0.0,0.0,0.0,0.0,0.0,0.0,0.0,0.0,-4.8416,0.0,0.0,0.0,-4.6801,-4.882,-4.9564,-4.9918,-4.9953,-4.8214,-4.7192,-4.6853,-4.7225,-4.7597,-4.7906,-4.8714,-4.8849,-4.8511,-4.9255,-4.7936,-4.5128,-4.4784,-4.3735,-4.2373,-4.3082,-4.3131,-4.277,-4.3045,-4.3019,-4.2839,-4.2425,0.0,0.0,0.0,0.0,0.0,0.0,0.0,-4.0745,-4.0068,-3.8937,-3.7801,-3.7286,0.0,0.0,-3.7567,0.0,-4.0576,-4.1235,-4.1422,-4.1625,-4.2416,-4.2626,-4.2514,-4.2008,-4.1931,-4.1931,-4.1931,-4.277,-4.315,-4.2491,-4.324,-4.3718,-4.3419,-4.3359,-4.3439,-4.3768,-4.3499,-4.329,-4.329,-4.329,-4.329,-4.329,-4.329,-4.329,-4.329,-4.2701,-4.241,-4.241,-4.1752,-4.1422,-4.1422,-4.1055,-4.0756,-4.0457,-4.0756,-4.0546,-3.9918,-3.9918,-3.9738,-3.9373,-3.9373,-3.9373,-3.9373,-3.9373,-3.9373,-3.9469,-3.9798,-3.9709,-3.9433,0.0,0.0,0.0,0.0,0.0,0.0,0.0,0.0,0.0,0.0,0.0,0.0,0.0,0.0,-4.917,0.0,0.0,0.0,0.0,0.0,0.0,-4.95,-5.0412,-5.0505,-4.9827,-4.839,-4.7039,-4.5703,-4.5424,-4.6039,-4.7487,-4.7744,-4.7906,-4.7906,-4.8409,-4.7056,-4.4378,-4.4141,-4.3227,-4.1914,-4.2049,-4.198,-4.1767,-4.1905,-4.1824,-4.1625,-4.1625,-4.2021,-4.2557,-4.2557,0.0,0.0,0.0,0.0,-4.0897,-4.078,-3.9512,-3.8103,-3.8032,0.0,-3.6322,-3.797,-3.923,0.0,-4.0876,-4.1025,-4.1025,-4.1025,-4.1145,-4.1205,-4.1205,-4.1205,-4.1205,-4.1205,-4.1811,-4.2051,-4.1482,-4.2312,-4.2851,-4.244,-4.2851,-4.317,-4.329,-4.329,-4.329,-4.329,-4.329,-4.323,-4.314,-4.311,-4.308,-4.2961,-4.2372,-4.2051,-4.2051,-4.1422,-4.1025,-4.1025,-4.0487,-3.9948,-3.9403,-3.9978,-3.9918,-3.9373,-3.9373,-3.9373,-3.9373,-3.9373,-3.9373,-3.9373,-3.9373,-3.9373,-3.9373,-3.9373,-3.9373,-3.9373,0.0,0.0,0.0,0.0,0.0,0.0,0.0,0.0,0.0,0.0,-5.0821,-5.0802,0.0,0.0,0.0,-4.7443,-4.6691,-4.6471,-4.7076,0.0,0.0,-4.9574,-4.9771,-4.9591,-4.8951,-4.7526,-4.6419,-4.5703,-4.4293,-4.4365,-4.5787,-4.7231,-4.7906,-4.7872,-4.7327,-4.5771,-4.3504,-4.2219,-4.117,-4.0451,-4.1102,-4.0951,-4.0442,-4.1061,-4.119,-4.1001,-4.1001,-4.1407,-4.1916,-4.1916,-4.1916,0.0,0.0,0.0,-4.0803,-4.0343,-3.951,-3.8782,-3.8739,0.0,-3.7493,0.0,-3.8512,-3.8841,0.0,0.0,-3.9679,0.0,-4.0127,-4.0516,-4.0516,-4.0516,-4.0516,-4.0516,-4.1085,-4.1512,-4.1384,-4.1534,-4.1833,-4.2351,-4.247,-4.2731,-4.323,-4.329,-4.329,-4.329,-4.329,-4.309,-4.256,-4.253,-4.2261,-4.1654,-4.0995,-4.0666,-4.0666,-4.0008,-3.9679,-3.9679,-3.9589,-3.9499,-3.9373,-3.9499,-3.9463,-3.9373,-3.9373,-3.9373,-3.9373,-3.9373,-3.9373,-3.9373,-3.9373,-3.9373,-3.9373,-3.9373,-3.9373,-3.9373,0.0,0.0,0.0,0.0,0.0,0.0,0.0,0.0,0.0,0.0,0.0,-5.009,0.0,0.0,0.0,-4.7345,-4.6851,-4.6709,-4.7076,-4.8673,-4.961,-4.961,-4.9655,-4.9003,-4.7547,-4.6514,-4.5257,-4.3775,-4.3507,-4.3843,-4.4808,-4.5941,-4.6726,-4.7093,-4.5927,-4.4662,-4.3274,-4.1847,-4.0764,-4.0146,-4.0451,-4.0383,-4.0146,-4.0485,-4.0526,-4.0466,-4.0466,-4.0803,-4.1273,-4.1273,-4.1495,-4.1768,-4.1473,0.0,0.0,0.0,-4.0086,-3.9447,-3.9016,-3.827,-3.7743,0.0,-3.8439,-3.8571,-3.926,0.0,-3.896,-3.9313,-3.9349,-3.929,-3.929,-3.929,-3.929,-3.929,-3.9828,-4.0277,-4.0277,-4.0905,-4.1354,-4.1265,-4.1961,-4.25,-4.2761,-4.312,-4.314,-4.2821,-4.2791,-4.2491,-4.1871,-4.1841,-4.1722,-4.1384,-4.0756,-4.0397,-4.0397,-3.9738,-3.9373,-3.9373,-3.9373,-3.9373,-3.9373,-3.9373,-3.9373,-3.9373,-3.9373,-3.9373,-3.9373,-3.9373,-3.9373,-3.9373,-3.9373,-3.9373,-3.9373,-3.9373,-3.9373,-3.9373,0.0,0.0,0.0,0.0,0.0,0.0,0.0,0.0,0.0,0.0,0.0,0.0,0.0,0.0,0.0,0.0,-4.6372,-4.6321,-4.6489,-4.7865,-4.8766,-4.8967,-4.8982,-4.8155,-4.6235,-4.5709,-4.4406,-4.2286,-4.284,-4.3523,-4.4317,-4.4849,-4.57,-4.6716,-4.5039,-4.4075,-4.3606,-4.1914,-4.1001,-4.062,-4.0248,-4.0113,-4.0113,-4.0113,-4.0113,-4.0113,-4.0113,-4.0343,-4.0685,-4.0685,-4.099,-4.1375,-4.1375,-4.1059,0.0,0.0,0.0,0.0,0.0,0.0,-3.8025,-3.8528,-3.856,-3.8616,0.0,0.0,-3.8811,0.0,-3.8871,-3.8332,-3.8182,-3.8272,-3.8332,-3.8153,-3.8721,-3.917,-3.917,-4.0157,-4.0756,-4.0427,-4.1265,-4.1961,-4.2141,-4.2551,-4.2641,-4.2201,-4.2141,-4.1871,-4.1175,-4.1145,-4.1055,-4.0876,-4.0397,-4.0157,-4.0157,-3.9679,-3.9373,-3.9373,-3.9373,-3.9373,-3.9373,-3.9373,-3.9373,-3.9373,-3.9373,-3.9373,-3.9373,-3.9373,-3.9373,-3.9373,-3.9373,-3.9373,-3.9373,-3.9373,-3.932,-3.917,0.0,0.0,0.0,0.0,0.0,0.0,0.0,0.0,0.0,0.0,0.0,0.0,-4.881,-4.7439,-4.5976,-4.4404,-4.4083,-4.4208,-4.4783,-4.5626,-4.6434,-4.7186,-4.7241,0.0,-4.5384,-4.5338,-4.4314,-4.2286,-4.2275,-4.296,-4.4317,-4.4204,-4.537,-4.7441,-4.5269,-4.4374,-4.4412,-4.2151,-4.1576,-4.2049,-4.0654,-4.0113,-4.0113,-4.0113,-4.0113,-4.0113,-4.0113,-4.0138,-4.0129,-4.0129,-4.0154,-4.0179,-4.0179,-4.0154,-4.0129,0.0,0.0,0.0,0.0,-3.8887,0.0,-3.8809,-3.8686,0.0,0.0,0.0,-3.9379,-3.9373,-3.8871,-3.8212,-3.7584,-3.7973,-3.8182,-3.7554,-3.8003,-3.8452,-3.8452,-3.908,-3.9738,-4.0337,-4.0457,-4.0756,-4.1422,-4.1474,-4.1474,-4.1482,-4.1482,-4.1145,-4.0487,-4.0457,-4.0157,-3.9493,-3.9463,-3.9433,-3.9433,-3.9439,-3.9373,-3.9373,-3.9373,-3.9373,-3.9373,-3.9373,-3.9373,-3.9373,-3.9373,-3.9373,-3.9373,-3.9373,-3.9373,-3.9373,-3.9373,-3.9373,-3.9373,-3.9373,-3.902,-3.8542,0.0,0.0,0.0,0.0,0.0,0.0,0.0,0.0,0.0,0.0,0.0,0.0,0.0,-4.706,-4.6634,-4.5142,-4.5281,-4.5142,-4.4375,-4.5445,-4.6226,-4.6557,-4.6924,-4.6537,-4.5313,-4.4852,-4.3593,-4.1576,-4.158,-4.1743,-4.2154,-4.3027,-4.3905,-4.471,-4.4907,-4.487,-4.4479,-4.2658,-4.1508,-4.0857,-4.0316,-4.0113,-4.0113,-4.0113,-4.0113,-4.0113,-4.0113,-4.0113,-4.0113,-4.0113,-4.0113,-4.0113,-4.0113,-4.0113,-4.0113,-4.0113,-4.0113,0.0,0.0,0.0,0.0,-3.9891,-3.9415,-3.8903,-3.9566,-3.9722,-3.9553,-3.8987,-3.8736,-3.8235,-3.706,-3.7015,-3.7075,-3.6866,-3.7015,-3.7464,-3.8272,-3.8601,-3.902,-3.9679,-4.0157,-4.0487,-4.0726,-4.1145,-4.1205,-4.0786,-4.0756,-4.0457,-3.9798,-3.9768,-3.9679,-3.9403,-3.9373,-3.9373,-3.9373,-3.9373,-3.92,-3.8751,-3.92,-3.92,-3.8781,-3.92,-3.9373,-3.9373,-3.9373,-3.9373,-3.9373,-3.9373,-3.9373,-3.9373,-3.9373,-3.914,-3.8751,-3.8751,-3.8332,-3.7793,0.0,0.0,0.0,-4.8917,0.0,-4.6786,-4.6786,-4.594,-4.55,-4.6007,0.0,0.0,0.0,0.0,-4.6516,-4.5217,-4.5246,-4.4953,-4.4115,-4.4942,-4.5695,-4.6251,-4.6613,-4.6318,-4.5313,-4.4569,-4.3208,-4.1204,-4.1204,-4.1251,-4.1404,-4.2626,-4.3352,-4.3617,-4.4411,-4.4675,-4.4513,-4.2929,-4.1711,-4.079,-4.0316,-4.0113,-4.0146,-4.0383,-4.0316,-4.0146,-4.0383,-4.0316,-4.0113,-4.0113,-4.0113,-4.0113,-4.0113,-4.0113,-4.0113,-4.0113,-4.0113,0.0,-4.0528,0.0,0.0,0.0,0.0,-3.9363,-4.0043,0.0,-3.9718,-3.9093,-3.8873,-3.8434,-3.7459,-3.686,-3.6446,-3.6214,-3.6327,-3.6866,-3.7913,-3.7931,-3.8246,-3.9247,-3.9476,-3.9669,-4.0031,-4.0457,-4.0546,-4.0098,-4.0068,0.0,-3.9403,-3.9373,-3.9373,-3.9373,-3.92,-3.908,-3.908,-3.8841,-3.8631,-3.8392,-3.8631,-3.8751,-3.8751,-3.896,-3.92,-3.9373,-3.9373,-3.9373,-3.9373,-3.9373,-3.929,-3.908,-3.908,-3.8781,-3.8362,-3.8153,-3.7793,-3.7404,-4.9944,-4.9398,-4.8984,-4.9018,-4.7767,-4.6786,-4.6786,-4.5596,-4.5156,-4.6583,0.0,0.0,0.0,0.0,0.0,-4.4414,-4.3696,-4.3482,-4.3908,-4.4011,-4.4623,-4.6053,-4.6152,-4.5918,-4.5303,-4.4604,-4.3267,-4.1238,-4.1204,-4.1542,-4.2252,-4.2997,-4.3741,-4.4479,-4.3707,-4.3809,-4.4412,-4.2895,-4.2252,-4.2117,-4.0688,-4.0113,-4.0214,-4.0899,-4.073,-4.018,-4.0899,-4.0696,-4.0113,-4.0113,-4.0113,-4.0113,-4.0113,-4.0113,-4.0113,-4.0113,0.0,0.0,0.0,0.0,0.0,0.0,0.0,0.0,-4.0795,0.0,-3.9839,-3.9777,-3.9265,-3.8816,-3.8786,-3.7616,-3.6384,-3.5683,-3.6061,-3.6686,-3.7315,-3.7038,-3.7426,-3.9139,-3.8435,-3.8219,-3.9265,-3.9373,-3.9373,-3.9373,-3.9373,-3.9373,-3.9373,-3.9373,-3.9373,-3.9373,-3.8751,-3.8392,-3.8392,-3.7734,-3.7734,-3.8362,-3.7704,-3.8093,-3.9379,-3.8691,-3.8751,-3.9379,-3.9379,-3.9379,-3.9379,-3.9373,-3.902,-3.8392,-3.8392,-3.8362,-3.8272,-3.7614,-3.7375,-3.7345,-4.867,-4.8327,-4.8376,-4.8917,-4.7767,-4.6786,-4.6786,-4.6007,-4.5534,0.0,0.0,0.0,-4.5974,-4.5838,-4.5591,-4.5348,-4.5137,-4.4367,-4.2843,-4.3687,-4.4195,-4.4109,-4.5422,-4.5949,-4.5451,-4.5164,-4.4012,-4.1982,-4.1474,-4.1035,-4.0722,-4.1474,-4.1948,-4.2151,-4.2455,-4.2422,-4.2117,-4.1677,-4.1508,-4.1407,-4.0485,-4.0417,-4.0865,-4.0553,-4.0282,-4.0146,-4.035,-4.0282,-4.0113,-4.0113,-4.0113,-4.0113,-4.0113,-4.0113,-4.0113,-4.0113,-4.0113,0.0,-4.0577,0.0,0.0,0.0,0.0,0.0,-4.0285,-4.0595,-4.0497,-3.9383,-3.9458,-3.9414,-3.8293,-3.7746,-3.7413,-3.7205,-3.638,-3.6148,-3.7255,-3.6687,-3.6678,-3.8103,-3.7994,-3.7919,-3.8219,-3.8943,-3.9373,0.0,-3.9373,-3.9373,-3.9373,-3.9373,-3.9373,-3.9373,-3.8751,-3.8392,-3.8392,-3.7734,-3.7494,-3.7674,-3.7494,-3.7853,-3.8661,-3.7973,-3.8033,-3.8691,-3.8691,-3.8691,-3.8721,-3.92,-3.902,-3.8392,-3.8392,-3.7823,-3.6985,-3.6806,-3.6447,-3.6028,-4.885,-4.8553,-4.8511,-4.8917,-4.8274,-4.7597,-4.7327,-4.665,-4.6278,0.0,0.0,0.0,-4.6143,-4.6447,-4.638,-4.5771,-4.5703,-4.4857,-4.2895,-4.3481,-4.3881,-4.3752,-4.4824,-4.5482,-4.5494,-4.5096,-4.4069,-4.2286,-4.1576,-4.0832,-4.0113,-4.0527,-4.073,-4.0764,-4.1196,-4.1136,-4.073,-4.073,-4.073,-4.073,-4.0595,-4.0832,-4.1238,-4.1407,-4.1271,-4.106,-4.1373,-4.1271,-4.0993,-4.0663,-4.035,-4.0113,-4.0113,-4.0113,-4.0113,-4.0113,0.0,0.0,0.0,0.0,0.0,-4.0866,0.0,0.0,-4.0493,-4.0629,-4.0492,0.0,-3.9787,-3.9821,-3.8925,-3.8502,-3.8371,-3.8724,-3.7705,-3.7059,-3.7436,-3.658,-3.628,-3.7258,-3.7225,-3.7291,-3.7767,-3.8397,-3.8907,-3.9373,-3.9373,-3.9373,-3.9373,-3.9737,-3.9773,-3.9409,-3.8836,-3.8357,-3.7973,-3.7345,-3.7165,-3.7404,-3.7135,-3.7494,-3.8362,-3.7434,-3.7375,-3.7973,-3.7973,-3.7973,-3.8003,-3.8422,-3.8332,-3.7943,-3.7704,-3.7135,-3.6447,-3.6178,-3.5998,-3.5878,0.0,-4.9231,-4.8951,-4.9086,-4.9052,-4.8815,-4.824,-4.7462,-4.7225,0.0,-4.7022,-4.6447,-4.709,-4.7631,-4.7331,-4.594,-4.5771,-4.5026,-4.3375,-4.3341,-4.3598,-4.4007,-4.4246,-4.4628,-4.5148,-4.4766,-4.3735,-4.2185,-4.161,-4.0899,-4.0113,-4.0113,-4.0113,-4.0113,-4.0113,-4.0113,-4.0113,-4.0113,-4.0113,-4.018,-4.0899,-4.1271,-4.1474,-4.2665,-4.276,-4.2252,-4.2828,-4.2625,-4.1948,-4.1305,-4.0629,-4.0113,-4.0113,-4.0113,-4.0113,-4.0113,-4.0113,0.0,0.0,0.0,0.0,-4.0899,-4.0561,0.0,-4.0933,-4.0561,-4.0138,-4.0179,-4.0129,-4.0138,-4.0179,-3.9551,-3.9274,-3.9963,-3.9512,-3.8788,-3.806,-3.6914,-3.6368,-3.6974,-3.6654,-3.676,-3.7701,-3.7919,-3.8397,-3.9337,-3.9373,-3.9445,-3.9553,-4.0274,-4.0343,-3.9589,-3.9082,-3.8407,-3.7524,-3.6896,-3.6866,-3.7404,-3.6776,-3.7105,-3.8242,-3.6956,-3.6716,-3.7315,-3.7315,-3.7315,-3.7315,-3.7315,-3.7315,-3.7255,-3.6716,-3.6447,-3.6297,-3.5729,-3.5878,-3.6297,-4.7505,-4.7789,-4.8511,-4.9661,-4.939,-4.9154,-4.9593,-4.8545,-4.8173,-4.9492,-4.9424,-4.9289,-4.9424,-4.8511,-4.7564,-4.665,-4.6041,-4.479,-4.2658,-4.3064,-4.2915,-4.1886,-4.3476,-4.3915,-4.2966,-4.4475,-4.3984,-4.1407,-4.188,-4.1407,-4.0113,-4.0113,-4.0113,-4.0113,-4.0113,-4.0113,-4.0113,-4.0113,-4.0113,-4.018,-4.0899,-4.1542,-4.2049,-4.1745,-4.1542,-4.1373,-4.0899,-4.0654,-4.0519,-4.0383,-4.0214,-4.0113,-4.0113,-4.0113,0.0,-4.0113,0.0,0.0,0.0,0.0,0.0,-4.0282,-4.0214,0.0,-4.0282,-4.0214,-4.0229,0.0,-4.0417,-4.0229,-4.0638,-4.026,-3.991,-4.0078,-3.9966,-3.9997,-4.0289,-3.88,-3.7901,-3.8555,-3.797,-3.7548,-3.7805,-3.8583,-3.9192,-3.9373,-3.9373,-3.9702,-4.0413,-4.0588,-4.0622,-4.0451,-3.9849,-3.9082,-3.8182,-3.7554,-3.7285,-3.7404,-3.6776,-3.6866,-3.7554,-3.6297,-3.6058,-3.6656,-3.6656,-3.6656,-3.6656,-3.6656,-3.6656,-3.6656,-3.6537,-3.6178,-3.5669,-3.5549,-3.5579,-3.5669,-4.7346,-4.7899,-4.8578,-4.8951,-4.9627,-5.0101,-5.0101,-4.9382,-4.9221,-5.0477,-5.0642,-5.0313,-4.9457,-4.8805,-4.8003,0.0,0.0,0.0,0.0,-4.2997,-4.2733,-4.1271,-4.2586,-4.3192,-4.2861,-4.389,-4.3576,-4.1745,-4.2117,-4.135,-3.9506,-3.9506,-3.9289,-3.8941,-3.8941,-3.9156,-3.948,-3.9102,-3.9601,-4.0663,-4.1068,-4.1644,-4.2226,-4.1473,-4.1654,-4.2165,-4.107,-4.0647,-4.0629,-4.0629,-4.0629,0.0,-4.0214,-4.035,-4.0561,0.0,-4.0113,-4.0113,0.0,0.0,0.0,-4.0113,-4.0113,0.0,0.0,-4.0113,-4.0254,-4.078,-4.0456,-4.0377,-4.1196,0.0,-4.0738,-4.1393,-4.1488,-4.1631,-4.2061,-4.0635,-3.918,-3.8227,-3.8322,-3.8018,-3.695,-3.7907,-3.8833,-3.9337,-3.9373,-3.9773,-4.0656,-4.1098,-4.1131,-4.0724,-4.0473,-3.9734,-3.8427,-3.8063,-3.7734,-3.7404,-3.7105,-3.6956,-3.6926,-3.5938,-3.5699,-3.5998,-3.5998,-3.5998,-3.5998,-3.5998,-3.5998,-3.5998,-3.5998,-3.5789,-3.5519,-3.5519,-3.5519,-3.5519,-4.7382,-4.7904,-4.8274,-4.7939,-4.9461,-5.0642,-5.0168,-4.9925,-4.9991,-5.0656,-5.0691,-5.0026,-4.8324,-4.8198,-4.784,0.0,0.0,0.0,0.0,-4.3098,-4.2591,-4.1271,-4.1914,-4.2455,-4.276,-4.3064,-4.276,-4.188,-4.2016,-4.0996,-3.8908,-3.8908,-3.8497,-3.7793,-3.7793,-3.8133,-3.8635,-3.8048,-3.8856,-4.0574,-4.0682,-4.1292,-4.2011,-4.1432,-4.1838,-4.2616,-4.1405,-4.099,-4.1001,-4.117,-4.1204,-4.1136,-4.0688,-4.0832,0.0,0.0,0.0,0.0,0.0,0.0,0.0,0.0,0.0,-4.0282,0.0,0.0,0.0,0.0,0.0,0.0,0.0,0.0,0.0,0.0,0.0,0.0,0.0,-4.1983,0.0,-3.8348,-3.8774,-3.8532,-3.6781,-3.7288,-3.815,-3.9128,-3.923,-3.9728,-4.0894,-4.1593,-4.1756,-4.1198,-4.1183,-4.0446,-3.8887,-3.8557,-3.8132,-3.7643,-3.7492,-3.7201,-3.673,-3.6023,-3.5686,-3.5686,-3.5554,-3.5519,-3.5519,-3.5519,-3.5579,-3.5669,-3.5549,-3.5519,-3.5519,-3.5519,-3.5519,-3.5519,-4.5948,-4.5998,-4.6481,-4.7669,-4.8646,-4.9458,-4.9999,-5.0071,-4.9785,-4.9094,-4.8833,-4.8171,-4.6708,-4.5973,-4.5927,-4.658,0.0,0.0,-4.5172,-4.3504,-4.2049,-4.1238,-4.1914,-4.1737,-4.0519,-4.1745,-4.1711,-4.035,-4.1001,-4.0467,0.0,0.0,0.0,-3.7793,-3.7793,-3.7851,-3.7937,-3.7851,-3.794,-3.8241,-3.8856,-3.9971,-4.1319,-4.1234,-4.0899,-4.0442,-4.0277,-4.0206,-4.0316,0.0,-4.1204,-4.1305,0.0,-4.1644,-4.1305,-4.188,0.0,0.0,0.0,0.0,0.0,0.0,-4.1068,-4.0899,0.0,0.0,-4.0254,-4.078,0.0,0.0,0.0,0.0,0.0,0.0,0.0,0.0,-4.2213,-4.2167,-4.2011,-4.1678,-4.0474,-3.9597,-3.9283,-3.8167,-3.7714,-3.8452,-3.8512,-3.9493,-4.1724,-4.1949,-4.2332,-4.2986,-4.2267,-4.1433,-4.043,-3.9052,-3.8413,-3.8448,-3.7864,-3.7592,-3.7628,-3.6845,-3.6477,-3.6446,-3.5782,-3.5519,-3.5519,-3.5519,-3.5848,-3.6327,-3.5729,-3.5519,-3.5519,-3.5519,-3.5519,-3.5519,-4.506,-4.5737,-4.6413,-4.6583,-4.7597,-4.8612,-4.9357,-5.0056,-4.9737,-4.7572,-4.7902,-4.8036,-4.7208,-4.6226,-4.583,-4.6275,-4.4431,-4.3296,-4.3475,-4.3102,-4.2332,-4.1139,-4.1843,-4.2016,-4.1399,-4.1542,-4.1339,-4.073,-4.1035,-4.04,0.0,0.0,0.0,-3.7084,-3.6662,-3.6723,-3.7086,-3.7033,-3.781,-3.9008,-3.884,-3.9155,0.0,-3.927,-3.8697,-3.8174,-3.9094,-3.9394,-3.9513,0.0,-4.1136,0.0,0.0,0.0,0.0,-4.1813,0.0,0.0,0.0,0.0,0.0,0.0,0.0,0.0,-4.0282,0.0,-4.0254,0.0,0.0,0.0,0.0,0.0,0.0,0.0,-4.2221,0.0,0.0,0.0,-4.2157,0.0,0.0,0.0,-3.9177,-3.8133,-3.7613,-3.7798,-3.8182,-3.9283,-4.131,-4.1789,-4.2395,-4.3259,-4.2458,-4.182,-4.1462,-3.9905,-3.9192,-3.9345,-3.8651,-3.8138,-3.7764,-3.6964,-3.66,-3.6538,-3.5814,-3.5519,-3.5519,-3.5519,-3.5669,-3.5878,-3.5609,-3.5729,-3.6028,-3.5639,-3.5519,-3.5519,-4.4615,-4.5461,-4.5949,-4.5177,-4.6089,-4.7169,-4.7855,-4.8327,-4.7956,-4.6133,-4.6354,-4.6629,-4.6524,-4.577,-4.5541,-4.628,-4.463,-4.3434,-4.3098,-4.2974,-4.2332,-4.1062,-4.1822,-4.2099,-4.1711,-4.1373,-4.1102,-4.0899,-4.0899,-4.012,0.0,0.0,0.0,0.0,-3.6079,-3.6237,-3.6565,-3.6893,-3.7783,-3.8937,-3.8518,-3.8227,-3.8044,-3.7528,-3.7002,-3.6783,-3.8133,-3.8608,-3.8723,-3.9495,-4.0481,0.0,-4.0855,-4.1485,-4.2373,0.0,0.0,0.0,-4.2537,0.0,0.0,0.0,0.0,0.0,0.0,0.0,0.0,0.0,0.0,0.0,0.0,0.0,0.0,0.0,0.0,-4.2262,0.0,0.0,0.0,0.0,0.0,0.0,0.0,-3.815,-3.7622,-3.7449,-3.8077,-3.9182,-4.0894,-4.1661,-4.252,-4.3621,-4.28,-4.2363,-4.2363,-4.0766,-4.0071,-4.0202,-3.9495,-3.8901,-3.8418,-3.7616,-3.7144,-3.6873,-3.6133,-3.5716,-3.5519,-3.5699,-3.5878,-3.6028,-3.6028,-3.6327,-3.6656,-3.5818,-3.5519,-3.5519,-4.4615,-4.4649,-4.4394,-4.3535,-4.4009,-4.4716,-4.523,-4.4015,-4.3495,-4.4682,-4.3518,-4.2818,-4.3399,-4.3399,-4.4325,0.0,0.0,-4.355,-4.5914,0.0,-4.1656,-4.1033,-4.1774,-4.1582,-4.0189,-4.0832,-4.0832,-4.0146,-4.0146,-3.9348,0.0,0.0,0.0,0.0,-3.6806,-3.7015,-3.6603,-3.7828,-3.7648,-3.6667,-3.7233,-3.7079,-3.655,0.0,-3.6631,-3.6691,-3.7528,0.0,0.0,-3.8707,-3.8993,0.0,0.0,0.0,0.0,0.0,0.0,0.0,0.0,0.0,0.0,-4.2625,0.0,0.0,0.0,0.0,-4.0967,0.0,0.0,0.0,0.0,0.0,0.0,0.0,0.0,0.0,0.0,0.0,0.0,0.0,0.0,0.0,0.0,-3.8547,-3.7759,-3.7591,-3.8208,-3.931,-4.0926,-4.1661,-4.28,-4.4497,-4.371,-4.3229,-4.3229,-4.1716,-4.0974,-4.0968,-4.0329,-4.0047,-3.9978,-3.9209,-3.8442,-3.7735,-3.6904,-3.6165,-3.5549,-3.6178,-3.6806,-3.7345,-3.7345,-3.7375,-3.7225,-3.5968,-3.5519,-3.5519,-4.3739,-4.329,-4.2953,-4.3229,-4.3027,-4.2976,-4.3462,-4.3884,-4.437,-4.501,-4.468,-4.4736,-4.5843,-4.5963,-4.6089,0.0,0.0,-4.4313,-4.4282,-4.3516,0.0,-4.1492,-4.2841,-4.295,-4.1516,-4.1775,-4.1576,-4.0832,-4.035,-3.9766,-3.9153,0.0,0.0,0.0,0.0,-3.6447,-3.5908,-3.7195,0.0,0.0,0.0,-3.6926,-3.7019,0.0,-3.5878,-3.5975,-3.6753,-3.6994,0.0,-3.7902,-3.8491,-3.9028,-3.975,-4.0273,-4.0761,-4.1539,-4.19,-4.2257,0.0,0.0,-4.3623,-4.313,0.0,0.0,0.0,0.0,0.0,0.0,0.0,0.0,0.0,0.0,0.0,0.0,0.0,0.0,0.0,0.0,0.0,0.0,0.0,0.0,0.0,0.0,0.0,-3.7821,-3.7873,-3.8842,-4.1037,-4.1266,-4.2341,-4.4525,-4.3739,-4.3562,-4.415,-4.2594,-4.2071,-4.2551,-4.1399,-4.0826,-4.0772,-3.9495,-3.8772,-3.853,-3.824,-3.7653,-3.6932,-3.7638,-3.7494,-3.6806,-3.6806,-3.6806,-3.6746,-3.6297,-3.6148,-3.6207,-4.2958,-4.2141,-4.1691,-4.23,-4.1848,-4.1607,-4.2144,-4.3387,-4.453,-4.5207,-4.5304,-4.5813,-4.716,0.0,-4.689,0.0,-4.6052,-4.5095,-4.3738,-4.3615,0.0,-4.1701,-4.2771,-4.2875,0.0,0.0,0.0,0.0,-4.0329,-3.9893,-3.9483,-3.8022,0.0,0.0,0.0,-3.6447,-3.5938,-3.7225,-3.7375,0.0,0.0,-3.6596,0.0,0.0,-3.5789,-3.6184,0.0,-3.6228,-3.6321,-3.7063,-3.7653,-3.8153,-3.8904,-3.9566,-4.0193,-4.0737,-4.1215,-4.1692,-4.2291,-4.2851,0.0,-4.3041,-4.284,0.0,-4.1745,0.0,-4.1779,0.0,0.0,0.0,0.0,0.0,0.0,0.0,0.0,0.0,0.0,-4.2322,0.0,0.0,0.0,0.0,0.0,0.0,-3.9577,-3.8278,-3.8074,-3.8802,0.0,-4.0911,-4.1959,-4.4059,-4.3919,-4.4035,-4.4615,-4.3595,-4.3165,-4.3375,-4.2185,-4.1441,-4.1144,-3.9893,-3.9183,-3.8914,-3.8902,-3.8285,-3.7312,-3.8273,-3.7818,-3.6567,-3.7255,-3.7225,-3.6776,-3.6567,-3.6626,-3.6896,-4.2238,-4.1262,-4.0684,-4.0715,-4.0563,-4.0636,-4.1294,-4.2491,-4.3768,-4.5065,-4.5334,-4.5873,-4.716,-4.677,-4.6651,-4.7249,-4.6741,-4.5771,-4.4496,-4.3768,0.0,0.0,-4.1763,-4.1551,-4.0965,0.0,0.0,0.0,0.0,0.0,-3.885,0.0,0.0,0.0,-3.7135,0.0,-3.6507,-3.7793,-3.7943,-3.7255,-3.6686,-3.6118,-3.5579,-3.5519,-3.6297,-3.7255,-3.5968,-3.5519,-3.5609,-3.6237,-3.6447,-3.6854,-3.8936,-3.9028,-3.8711,-4.0353,-4.0759,-4.0671,-4.0833,-4.2066,-4.3065,-4.2404,-4.2846,0.0,0.0,0.0,-4.3172,0.0,0.0,0.0,0.0,0.0,0.0,0.0,0.0,0.0,0.0,0.0,0.0,0.0,0.0,0.0,0.0,-4.0476,-3.9833,-3.9016,-3.8861,-3.9131,0.0,0.0,-4.1743,-4.3254,-4.415,-4.4615,-4.4615,-4.4615,-4.4215,-4.3443,-4.2726,-4.1982,-4.1271,-4.0493,-3.9755,-3.9028,-3.9028,-3.8137,-3.6785,-3.8118,-3.7816,-3.6716,-3.8601,-3.8542,-3.7375,-3.6806,-3.6956,-3.7554,-4.1221,-4.0743,-4.0613,-4.1126,-4.0791,-4.0636,-4.1294,-4.2491,-4.3589,-4.4466,-4.5873,-4.692,-4.7279,-4.7578,-4.7668,-4.7339,-4.716,0.0,0.0,0.0,0.0,-4.2922,-4.3107,-4.2731,-4.1512,-4.2486,-4.2587,-4.1664,0.0,0.0,-3.9551,0.0,0.0,0.0,0.0,-3.6806,-3.5848,-3.7135,-3.7015,-3.5968,-3.5818,-3.6237,-3.6806,0.0,-3.6297,-3.7255,-3.5968,-3.5519,-3.5519,-3.5699,-3.6088,-3.6693,-3.7677,-3.8181,-3.8587,-3.949,-3.9763,-3.9889,-4.0575,-4.1531,-4.2424,-4.2909,-4.3213,-4.3341,0.0,0.0,0.0,0.0,0.0,0.0,0.0,0.0,0.0,0.0,0.0,0.0,0.0,0.0,0.0,-4.2827,0.0,-4.1746,-4.156,-4.1164,-4.0585,-3.9858,-3.9214,-3.9479,-4.0788,0.0,0.0,-4.3306,-4.4165,-4.4615,-4.4615,-4.4615,-4.4513,-4.4282,-4.3504,-4.3003,-4.2767,-4.1508,-4.0796,-4.0606,-4.0606,-3.9704,-3.8296,-3.9183,-3.8616,-3.7225,-3.7734,-3.8003,-3.8123,-3.7973,-3.8003,-3.8242,-4.0725,-4.0704,-4.1025,-4.1722,-4.1743,-4.1893,-4.2551,-4.3299,-4.4067,-4.5065,-4.6172,0.0,-4.686,-4.7459,-4.7698,-4.7339,-4.7309,0.0,-4.6339,0.0,0.0,-4.3768,-4.3099,-4.2395,-4.167,-4.1689,0.0,-4.1149,0.0,-3.9138,-3.9282,0.0,0.0,0.0,0.0,-3.6596,-3.5998,-3.6985,-3.6985,-3.6327,-3.6028,-3.6178,0.0,-3.5789,-3.5938,-3.6477,-3.5759,-3.5519,-3.5549,-3.5848,-3.6357,-3.6985,-3.7644,-3.8302,-3.8901,-3.932,-3.9373,-3.9517,-3.999,-4.0758,-4.1626,-4.252,-4.3053,-4.3456,-4.3827,-4.391,-4.3809,0.0,-4.3369,-4.3139,0.0,0.0,0.0,0.0,0.0,0.0,0.0,0.0,0.0,0.0,-4.218,-4.181,-4.181,-4.1123,-4.0553,-4.0146,-3.9342,-3.94,0.0,0.0,0.0,-4.2835,-4.3979,-4.4615,-4.4615,-4.4615,-4.4615,-4.4615,-4.3775,-4.3375,-4.3341,-4.2219,-4.1677,-4.1677,-4.1677,-4.0602,-3.8942,-3.9903,-3.8996,-3.7075,-3.7614,-3.8242,-3.8841,-3.8841,-3.8841,-3.8901,-4.0701,-4.1055,-4.1722,-4.2291,-4.303,-4.3768,-4.4466,-4.4646,-4.5125,-4.6249,0.0,-4.6591,-4.6591,-4.701,-4.7309,-4.7309,-4.7309,-4.707,-4.6459,-4.5723,-4.5035,-4.4466,-4.2551,-4.1549,-4.1581,-4.0402,-3.9874,0.0,-3.8435,-3.8026,-3.8548,0.0,0.0,0.0,0.0,0.0,0.0,-3.7075,-3.7225,-3.7105,-3.6567,-3.6028,-3.5519,-3.5519,-3.5519,-3.5519,-3.5519,-3.5519,-3.5579,-3.6178,-3.6776,-3.7404,-3.8063,-3.8721,-3.932,-3.9343,-3.9373,-3.9373,-3.9373,-4.006,-4.0894,-4.1626,-4.2489,-4.335,-4.4241,-4.4344,-4.4333,-4.4418,-4.3809,-4.3234,0.0,0.0,0.0,0.0,0.0,0.0,0.0,0.0,0.0,0.0,0.0,0.0,-4.181,-4.0767,-4.0113,-4.0113,-3.9447,0.0,0.0,0.0,0.0,-4.2183,-4.3642,-4.4513,-4.4615,0.0,-4.4547,-4.4418,-4.3741,-4.3375,-4.3375,-4.2523,-4.2185,-4.2286,-4.2083,-4.0884,-3.9149,-4.019,-3.9154,-3.7037,-3.8241,-3.9154,-3.9737,-3.9595,-3.9589,-3.9553,-4.1242,-4.1782,-4.2261,0.0,-4.3808,-4.5185,-4.5873,-4.6441,-4.686,-4.71,-4.7608,-4.7938,-4.7938,-4.7549,-4.7309,-4.7309,-4.7309,0.0,0.0,0.0,0.0,-4.5125,-4.3279,-4.2008,-4.1468,-4.083,-4.051,-4.052,-3.8617,-3.8058,-3.8645,0.0,0.0,0.0,0.0,0.0,-3.6507,-3.6596,0.0,-3.5818,-3.5729,-3.5609,-3.5519,-3.5519,-3.5519,-3.5519,-3.5519,-3.5519,-3.5519,-3.5639,-3.6118,-3.6746,-3.7375,-3.8033,-3.8691,-3.926,-3.9373,-3.9373,-3.9373,-4.006,-4.0758,-4.0894,-4.156,-4.2458,-4.332,-4.3069,-4.2812,-4.3468,-4.2997,-4.232,-4.1711,0.0,0.0,0.0,0.0,0.0,0.0,0.0,0.0,0.0,0.0,-4.181,-4.181,-4.0767,-4.0113,-4.0113,0.0,0.0,0.0,0.0,0.0,0.0,-4.3152,0.0,0.0,0.0,-4.4248,-4.3606,-4.3443,-4.3375,-4.3341,-4.2016,-4.1711,-4.2219,-4.1027,-4.0254,-3.9832,-3.9371,-3.9157,-3.9221,-3.9992,-4.0803,-4.1461,-4.0724,-4.0451,-4.0378,-4.1931,0.0,0.0,0.0,0.0,0.0,0.0,-4.7399,-4.7578,-4.689,-4.677,-4.6741,-4.6741,-4.707,-4.7309,-4.7309,-4.7309,-4.7309,-4.7309,-4.6052,-4.5304,-4.5304,-4.3459,-4.2081,-4.1384,-4.051,-4.0025,-4.0025,-3.8385,-3.7715,-3.8019,0.0,0.0,0.0,0.0,-3.6866,0.0,0.0,0.0,-3.6447,-3.5759,-3.5519,-3.5519,-3.5519,-3.5519,-3.5519,-3.5519,-3.5519,-3.5519,-3.5519,-3.5938,-3.6596,-3.7225,-3.7853,-3.8512,-3.92,-3.9373,-3.9373,-3.9373,-3.9702,-4.0074,-4.0155,-4.0497,-4.0927,-4.1484,-4.1309,-4.1288,-4.2071,-4.2005,-4.1619,-4.1261,-4.0595,0.0,0.0,0.0,0.0,0.0,0.0,-4.1429,0.0,0.0,0.0,0.0,0.0,0.0,0.0,0.0,0.0,0.0,0.0,0.0,0.0,0.0,0.0,0.0,0.0,0.0,-4.3375,-4.3375,-4.32,-4.2828,-4.2489,-4.2557,-4.2861,-4.2584,-4.1976,-4.1177,-4.0296,-4.0292,-4.0922,-4.1237,-4.1626,-4.1949,-4.1528,-4.1064,-4.0588,-4.262,-4.271,0.0,0.0,-4.5095,-4.6022,-4.695,-4.7788,-4.7967,-4.707,-4.6232,-4.5783,-4.5903,-4.6741,-4.7309,-4.7309,-4.7309,-4.7309,-4.7309,-4.6052,-4.5304,-4.5304,-4.3539,-4.2291,-4.1632,-4.0307,-3.9559,-3.9373,-3.8063,-3.7345,-3.7195,0.0,0.0,0.0,0.0,0.0,0.0,0.0,-3.6686,-3.6926,-3.5908,-3.5519,-3.5519,-3.5669,-3.5639,-3.5549,-3.5818,-3.5818,-3.5729,-3.5878,-3.6058,-3.6417,-3.7165,-3.7674,-3.8153,-3.896,-3.92,-3.923,-3.9343,-3.9373,-3.9469,-3.9596,-3.9647,-3.9727,-4.0071,-3.994,-3.9961,-4.0972,-4.1054,-4.1,-4.1167,-4.073,0.0,0.0,0.0,0.0,0.0,0.0,0.0,0.0,0.0,0.0,-4.092,0.0,0.0,0.0,0.0,0.0,-4.0113,0.0,0.0,0.0,0.0,-4.3639,-4.4615,0.0,-4.4181,-4.3375,-4.324,-4.2963,-4.2523,-4.2828,-4.3105,-4.3409,-4.3876,-4.3384,-4.2232,-4.1705,-4.1785,-4.23,-4.23,-4.2395,-4.2552,-4.2363,-4.182,-4.1129,0.0,0.0,0.0,0.0,0.0,-4.695,-4.6501,-4.7489,-4.8446,-4.897,-4.7908,-4.7339,-4.7938,-4.7578,-4.7309,-4.7309,-4.7309,-4.7309,-4.7309,-4.6052,-4.5304,-4.5304,-4.3988,-4.294,-4.2321,-4.0965,-4.0008,0.0,-3.8063,-3.7135,0.0,0.0,0.0,0.0,0.0,0.0,0.0,-3.6297,-3.6178,-3.5669,-3.5549,-3.5519,-3.5579,-3.6178,-3.6028,-3.5669,-3.6806,-3.6866,-3.6477,-3.7045,-3.6507,-3.5818,-3.7015,-3.7075,-3.6896,-3.8123,-3.8482,-3.8631,-3.926,-3.9373,-3.9409,-3.9427,-3.9427,-3.9617,-4.0436,-3.9643,-3.9157,-4.0707,-4.0588,-4.0408,-4.1076,-4.1136,-4.1102,0.0,0.0,0.0,0.0,0.0,-4.092,-4.092,0.0,0.0,0.0,-4.0417,0.0,0.0,-4.0113,0.0,0.0,0.0,0.0,-4.2252,0.0,-4.3098,-4.4581,-4.4615,-4.4181,-4.3375,-4.2726,-4.2726,-4.324,-4.1982,-4.2151,-4.3375,-4.276,-4.2417,-4.2235,-4.2837,-4.3103,-4.3169,-4.3169,-4.3651,-4.427,-4.3472,-4.3139,-4.2956,0.0,0.0,0.0,0.0,0.0,0.0,0.0,-4.7369,-4.7788,-4.8057,-4.7638,-4.7399,-4.7668,-4.7459,-4.7309,-4.7309,-4.7309,-4.7309,-4.7309,-4.6052,-4.5304,-4.5304,-4.4047,-4.303,-4.241,-4.1482,-4.0666,0.0,0.0,0.0,0.0,0.0,0.0,0.0,0.0,-3.6537,-3.6656,-3.6926,-3.6896,-3.6656,-3.6656,-3.6656,-3.6626,-3.6537,-3.6327,-3.6118,-3.6237,-3.6357,-3.6537,-3.6776,-3.6776,-3.6746,-3.7255,-3.7494,-3.7734,-3.8242,-3.8691,-3.908,-3.9349,-3.9373,-3.932,-3.8901,-3.8811,-3.8797,-3.8728,-3.8007,-3.7766,-3.9351,-3.9522,-3.9468,-3.9768,-4.0227,-4.0394,-3.9901,0.0,0.0,0.0,0.0,0.0,-4.0417,0.0,-4.0417,0.0,0.0,0.0,0.0,0.0,0.0,0.0,0.0,0.0,-4.2252,0.0,-4.3031,-4.4581,-4.4615,-4.3944,-4.2726,-4.2422,-4.2219,-4.2057,-4.1914,-4.2692,-4.4079,-4.3836,-4.367,-4.3657,-4.3958,-4.4064,-4.4064,-4.4064,-4.4298,-4.4559,-4.4212,-4.3739,-4.3229,-4.3777,0.0,-4.2906,0.0,-4.4307,-4.4705,-4.6957,-4.7309,-4.7309,-4.7309,-4.7309,-4.7309,-4.7309,-4.7309,-4.7309,-4.7309,-4.7309,-4.7219,-4.704,-4.5933,-4.5214,-4.5005,-4.3888,0.0,-4.2641,-4.1803,-4.1055,-4.0397,-3.9738,0.0,0.0,0.0,0.0,0.0,-3.6656,-3.6836,-3.7404,-3.7225,-3.7255,-3.7404,-3.7225,-3.7255,-3.7375,-3.7135,-3.6926,-3.6746,-3.6686,-3.6836,-3.7075,-3.7285,-3.7644,-3.7943,-3.7524,-3.7734,-3.8153,-3.8332,-3.8751,-3.917,-3.9379,-3.9373,-3.932,-3.8811,-3.8691,-3.8571,-3.8123,-3.7345,-3.7155,-3.855,-3.9202,-3.9539,-3.9567,-4.0188,-4.0451,-3.9693,0.0,0.0,0.0,-4.0392,0.0,0.0,-4.0113,-4.0113,-4.0113,-4.0113,0.0,0.0,0.0,0.0,0.0,0.0,0.0,0.0,0.0,0.0,-4.4581,-4.4615,-4.4073,-4.2963,-4.2726,-4.2455,-4.2219,-4.2726,-4.3565,-4.4615,-4.4615,-4.4615,-4.4615,-4.4615,-4.4615,-4.4615,-4.4615,-4.4615,-4.4615,-4.4615,-4.4212,-4.368,-4.4135,-4.3375,-4.3083,-4.5046,-4.5389,-4.5795,-4.7106,-4.7309,-4.7309,-4.7309,-4.7309,-4.7309,-4.7309,-4.7309,-4.7309,-4.7309,-4.7309,-4.704,-4.6381,-4.5693,-4.5005,0.0,0.0,-4.329,-4.329,-4.2043,-4.1055,-4.0397,0.0,0.0,-3.7404,0.0,-3.7165,-3.8302,-3.7045,-3.6836,-3.7375,-3.6746,-3.6836,-3.7345,-3.6746,-3.6866,-3.7494,-3.8123,-3.7973,-3.7584,-3.8901,-3.8931,-3.8482,-3.914,-3.9379,-3.9134,-3.7823,-3.7404,-3.7554,-3.8212,-3.8392,-3.8542,-3.923,-3.9373,-3.9373,-3.9373,-3.9373,-3.9373,-3.9409,-3.8362,-3.767,-3.8674,-4.0011,-4.1025,-4.1172,-4.1737,-4.1939,-4.1271,0.0,0.0,0.0,-4.1204,0.0,-4.018,-4.0113,-4.0113,-4.0113,-4.0113,0.0,0.0,0.0,0.0,0.0,0.0,0.0,-4.2252,-4.2286,0.0,-4.4581,-4.4615,-4.4581,-4.4581,-4.3775,-4.3809,-4.4581,-4.4581,-4.4581,-4.4615,-4.4615,-4.4615,-4.4615,-4.4615,-4.4615,-4.4615,-4.4615,-4.4615,-4.4615,-4.4615,-4.4615,-4.4587,-4.3945,-4.416,-4.4401,-4.4135,-4.484,-4.5824,-4.7106,-4.7309,-4.7309,-4.7309,-4.655,-4.6003,-4.6003,-4.677,-4.7309,0.0,-4.7309,-4.7219,0.0,-4.5933,-4.5185,-4.4975,-4.3178,-4.2152,-4.2152,-4.0858,-4.0061,-3.9858,0.0,0.0,0.0,-3.7883,-3.8003,-3.8362,-3.7973,-3.8153,-3.8781,-3.8571,-3.8601,-3.8751,-3.8571,-3.8601,-3.8751,-3.8482,-3.8272,-3.8093,-3.8063,-3.8182,-3.8362,-3.8123,-3.8626,-3.926,-3.8362,-3.8392,-3.8721,-3.8452,-3.8721,-3.914,-3.9313,-3.9373,-3.9373,-3.9373,-3.9373,-3.9373,-3.9373,-3.96,-3.9723,-3.9618,-4.0398,-4.0972,-4.0413,-4.0906,-4.095,-3.9659,-4.1208,0.0,-4.053,0.0,-4.0933,-4.018,-4.0113,-4.0113,-4.0113,-4.0113,0.0,0.0,0.0,0.0,0.0,0.0,0.0,0.0,-4.2794,0.0,-4.4581,-4.4615,-4.4316,-4.3775,-4.3511,-4.3511,-4.3809,-4.4378,-4.4615,-4.4615,-4.4615,-4.4615,-4.4615,-4.4615,-4.4615,-4.4615,-4.4615,-4.4615,-4.4615,-4.4615,-4.4615,-4.4615,-4.4319,-4.4442,-4.4581,-4.4256,-4.4886,-4.5824,-4.7106,-4.7309,-4.7309,-4.7309,-4.6594,-4.5913,-4.5434,-4.6121,0.0,-4.6594,-4.678,-4.6705,-4.624,-4.4971,-4.4234,-4.4192,-4.2092,-4.1169,-4.1587,-4.013,0.0,-3.9045,-3.8897,-3.8809,-3.8781,-3.8512,-3.8512,-3.8751,-3.8512,-3.8781,-3.9373,-3.914,-3.917,-3.9409,-3.914,-3.92,-3.9343,-3.8931,-3.8781,-3.8721,-3.8302,-3.8422,-3.8721,-3.8302,-3.8721,-3.9349,-3.8901,-3.908,-3.9313,-3.8901,-3.908,-3.9373,-3.9373,-3.9373,-3.9373,-3.9373,-3.9373,-3.9313,-3.908,-3.9958,-4.064,-3.9945,-4.0725,-4.1279,-4.044,-4.114,-4.1336,-3.9755,-4.1508,-4.2456,-4.0593,0.0,-4.1238,0.0,0.0,0.0,0.0,-4.035,-4.0417,0.0,0.0,0.0,0.0,0.0,0.0,-4.2286,-4.3031,0.0,-4.4615,-4.4615,-4.4378,-4.3842,-4.3842,-4.3842,-4.3876,-4.435,-4.475,-4.4993,-4.4716,-4.4784,-4.4993,-4.4716,-4.4615,-4.4615,-4.4615,-4.4615,-4.4615,-4.4615,-4.4615,-4.4615,-4.5158,-4.4489,-4.4116,-4.5207,-4.5434,-4.5913,-4.7106,-4.7309,-4.7309,-4.7309,-4.7149,-4.6594,-4.5389,-4.5178,-4.5104,-4.5115,0.0,0.0,-4.4511,-4.3344,-4.258,-4.2295,-4.0783,-4.0361,-4.1337,-3.9633,-3.8558,-3.8145,-3.7916,-3.836,-3.9373,-3.8751,-3.8811,-3.9343,-3.8751,-3.8811,-3.9379,-3.8721,-3.8841,-3.9379,-3.8721,-3.8841,-3.9373,-3.9373,-3.9373,-3.9373,-3.9373,-3.9373,-3.9373,-3.9373,-3.9373,-3.9373,-3.9373,-3.9373,-3.9373,-3.9373,-3.9373,-3.9373,-3.9373,-3.9373,-3.9373,-3.9373,-3.9373,-3.926,-3.8601,-3.9608,-4.0504,-3.9918,-4.0987,-4.1885,-4.1212,-4.2315,-4.2788,-4.1211,-4.2914,-4.3608,-4.1251,-4.1671,-4.1677,0.0,0.0,0.0,-4.018,-4.0798,-4.0933,0.0,0.0,0.0,0.0,0.0,-4.1677,-4.2354,-4.3098,-4.3842,-4.4615,-4.4615,-4.4615,-4.4615,-4.4615,-4.4615,-4.4615,-4.4615,-4.4993,-4.5669,-4.4919,-4.5026,-4.5635,-4.4919,-4.4615,-4.4615,-4.4615,-4.4615,-4.4615,-4.4615,-4.4615,-4.4615,0.0,0.0,-4.6211,-4.5553,-4.6211,-4.6975,-4.7266,-4.7309,-4.7309,-4.7309,-4.5598,-4.4256,-4.3975,-4.2712,-4.2058,-4.2469,-4.3924,-4.4777,-4.4556,-4.4141,-4.3073,-4.1227,-4.0392,-3.9579,-3.8934,-3.8016,-3.7873,-3.8535,-3.8064,-3.836,-3.9373,-3.926,-3.926,-3.9373,-3.926,-3.926,-3.9373,-3.926,-3.926,-3.9373,-3.923,-3.926,-3.9373,-3.9373,-3.9373,-3.9373,-3.9373,-3.9373,-3.9373,-3.9373,-3.9373,-3.9373,-3.9373,-3.9373,-3.9373,-3.9373,-3.9373,-3.9373,-3.9373,-3.9373,-3.9373,-3.9373,-3.9373,-3.9379,-3.92,-3.9973,-4.0628,-4.0507,-4.1821,-4.2737,-4.1917,-4.261,-4.2737,-4.1075,-4.1907,-4.2137,-4.0333,-4.0878,-4.1102,0.0,-4.0595,-4.0933,-4.0933,-4.1102,-4.1373,0.0,0.0,0.0,0.0,-4.2591,-4.2936,-4.3132,-4.391,-4.4412,-4.4615,-4.4615,-4.4615,-4.4615,-4.4615,-4.4615,-4.4615,-4.4615,-4.4993,-4.5669,-4.4919,-4.5026,-4.5635,-4.4919,-4.4615,-4.4615,-4.4615,-4.4615,-4.4615,-4.4615,-4.4615,-4.4615,-4.627,-4.6814,-4.7062,-4.6388,-4.6844,-4.7309,-4.7309,-4.7309,-4.7309,-4.7309,-4.5383,-4.3788,-4.3183,-4.1456,-4.0504,-4.0821,-4.2003,-4.3008,-4.3574,-4.2276,-4.1252,-4.0786,-3.9168,-3.827,-3.8107,-3.7254,-3.7034,-3.7606,-3.7038,-3.7147,-3.7927,-3.7927,-3.8219,-3.8657,-3.8657,-3.8943,-3.9373,-3.9373,-3.9373,-3.9373,-3.9373,-3.9373,-3.9373,-3.9373,-3.9373,-3.9469,-3.9768,-3.9858,-3.9858,-3.9858,-3.9858,-3.9858,-3.9858,-3.9679,-3.9433,-3.9768,-3.9649,-3.9373,-3.9373,-3.9373,-3.9373,-3.9373,-3.9373,-3.9373,-3.9373,-3.9773,-4.013,-4.013,-4.1196,-4.2174,-4.2462,-4.3226,-4.3377,-4.211,-4.2657,-4.2497,-4.018,-4.0624,-4.1068,-4.0629,-4.0967,-4.1339,-4.1677,-4.2016,-4.2252,-4.2286,-4.2591,0.0,-4.2794,-4.3538,-4.3775,-4.3409,-4.4519,-4.5094,-4.5094,-4.5094,-4.5094,-4.5094,-4.4784,-4.4784,-4.5094,-4.5094,-4.5703,-4.665,-4.5568,-4.55,-4.6109,-4.5055,-4.4615,-4.4615,-4.4615,-4.4615,-4.4615,-4.4615,-4.4615,-4.4615,-4.7189,-4.7309,-4.7309,-4.7309,-4.7309,-4.7309,-4.7309,-4.7309,-4.7309,-4.7309,-4.5698,-4.4081,-4.2824,-4.0938,-3.9791,-3.987,-4.0049,-4.065,-4.1937,-3.987,-3.906,-4.0023,-3.7892,-3.701,-3.7861,-3.6718,-3.6182,-3.6305,-3.569,-3.5665,-3.6212,-3.6212,-3.676,-3.7805,-3.7805,-3.8397,-3.9373,-3.9373,-3.9373,-3.9373,-3.9373,-3.9373,-3.9373,-3.9373,-3.9433,-3.9649,-4.0217,-4.0457,-4.0546,-4.0546,-4.0546,-4.0546,-4.0546,-4.0098,-3.9679,-4.0247,-4.0008,-3.9559,-3.9439,-3.9463,-3.9559,-3.9559,-3.9649,-3.9709,-3.9709,-3.9649,-3.9589,-3.9679,-4.0217,-4.118,-4.2739,-4.3685,-4.4017,-4.3338,-4.3814,-4.3255,-4.0451,0.0,-4.1068,-4.1204,-4.1305,-4.1644,-4.2388,-4.3132,-4.3335,-4.2692,-4.387,-4.435,-4.3781,-4.4384,-4.4485,-4.3916,-4.5094,-4.5771,-4.5872,-4.5872,-4.5872,-4.5872,-4.5229,-4.5263,-4.5872,-4.5872,-4.6616,-4.7804,-4.6481,-4.621,-4.6684,-4.5331,-4.4716,-4.4615,-4.4615,-4.4615,-4.4615,-4.4615,-4.4615,-4.4615,-4.7189,-4.7309,-4.7309,-4.7309,-4.7309,-4.7309,-4.7309,-4.7309,-4.7309,-4.7309,-4.5654,-4.3991,-4.2824,-4.0541,-3.9275,-3.9775,-3.8105,-3.7816,-3.9515,-4.0519,-3.9842,-3.7185,-3.7546,-3.7448,-3.6662,-3.5546,-3.5392,-3.6305,-3.531,-3.5304,-3.6212,-3.6212,-3.676,-3.7805,-3.7805,-3.8397,-3.9373,-3.9373,-3.9373,-3.9373,-3.9373,-3.9373,-3.9373,-3.9373,-3.9768,-4.0277,-4.0367,-4.0756,-4.1235,-4.1235,-4.1235,-4.1235,-4.1235,-4.0786,-4.0277,-4.0367,-4.0337,-4.0127,-3.9559,-3.9828,-4.0247,-4.0247,-4.0666,-4.1085,-4.1085,-4.0636,-4.0397,-4.0965,-4.0858,-4.1096,-4.2505,-4.3137,-4.3375,-4.3106,-4.2808,-4.2219,-4.0979,0.0,-4.0493,-4.1136,-4.1745,-4.2422,-4.3139,-4.3944,-4.4378,-4.4242,-4.4479,-4.4823,-4.5331,-4.5466,-4.5771,-4.6244,-4.5906,-4.6007,-4.6616,-4.6616,-4.6616,-4.6616,-4.6515,-4.6515,-4.6616,-4.6616,-4.709,-4.7838,-4.6989,-4.6684,-4.6718,-4.5872,-4.5162,-4.4615,-4.4615,-4.4615,-4.4615,-4.4615,-4.4615,-4.4615,-4.6172,-4.6232,-4.6232,-4.6232,-4.6232,-4.6352,-4.6711,-4.6471,-4.6352,-4.6741,-4.4254,-4.2523,-4.2656,-4.0124,-3.8838,-3.9771,-3.8879,-3.8647,-3.9473,-3.9051,-3.8379,-3.7381,-3.7243,-3.679,-3.5931,-3.5382,-3.5077,-3.5018,-3.4504,-3.4519,-3.4958,-3.4958,-3.5515,-3.6576,-3.7174,-3.7825,-3.8583,-3.9156,-3.9619,-3.9918,-3.9559,-3.9619,-3.9948,-3.9948,-4.0127,-4.0487,-4.1205,-4.1692,-4.1961,-4.1961,-4.1961,-4.1961,-4.1961,-4.1482,-4.0995,-4.1354,-4.0965,-4.0397,-4.0457,-4.0696,-4.0935,-4.0935,-4.1145,-4.1422,-4.1422,-4.1145,-4.1025,-4.1324,-4.1217,-4.154,-4.2999,-4.3441,-4.3543,-4.3547,-4.2744,0.0,0.0,-4.0707,-4.0675,-4.2199,-4.3064,-4.3809,-4.4587,-4.5331,-4.5771,-4.5771,-4.5771,-4.5906,-4.6278,-4.6278,-4.6616,-4.7361,-4.7056,-4.7259,-4.797,-4.7597,-4.7394,-4.7394,-4.6989,-4.6989,-4.7394,-4.7394,-4.78,-4.8477,-4.7733,-4.7158,-4.6752,-4.6413,-4.5602,-4.4649,-4.5026,-4.4925,-4.4615,-4.4615,-4.4615,-4.4615,-4.5274,-4.5304,-4.5304,-4.5304,-4.5304,-4.5484,-4.5992,-4.5633,-4.5484,-4.6022,-4.3473,-4.1866,-4.2537,-4.0392,-3.9288,-4.0189,-4.0059,-4.0015,-4.0275,-3.8088,-3.7196,-3.8062,-3.701,-3.6157,-3.5708,-3.5433,-3.4881,-3.4098,-3.3972,-3.3897,-3.3897,-3.4022,-3.4663,-3.5732,-3.6547,-3.7257,-3.79,-3.8986,-3.9721,-4.0173,-3.9957,-4.0187,-4.0636,-4.0636,-4.0726,-4.0995,-4.2021,-4.25,-4.262,-4.262,-4.262,-4.262,-4.262,-4.2171,-4.1752,-4.2261,-4.1692,-4.0935,-4.1294,-4.1542,-4.1662,-4.1662,-4.1713,-4.1833,-4.1833,-4.1713,-4.1654,-4.1803,-4.1594,-4.1859,-4.3407,-4.358,-4.3639,-4.3899,0.0,0.0,0.0,-4.1251,-4.1161,-4.3422,-4.4215,-4.4886,-4.5635,-4.6515,-4.6989,-4.6819,-4.6955,-4.7056,-4.7056,-4.7056,-4.7394,-4.8108,-4.8173,-4.8443,-4.8984,-4.8443,-4.8173,-4.8142,-4.7564,-4.7597,-4.8173,-4.8173,-4.8477,-4.8984,-4.8409,-4.7631,-4.6819,-4.6989,-4.6177,-4.4891,-4.5466,-4.5365,-4.4852,-4.4682,-4.4615,-4.4615,-4.5185,-4.5304,-4.5304,-4.5304,-4.5304,-4.5304,-4.5364,-4.5334,-4.5304,-4.5364,-4.4613,-4.3685,-4.2707,-4.1835,-4.1378,-4.1462,-4.049,-4.0361,-4.142,-3.9288,-3.8017,-3.8107,-3.701,-3.638,-3.6355,-3.5303,-3.4705,-3.463,-3.4148,-3.3897,-3.3897,-3.4424,-3.5207,-3.6226,-3.6313,-3.693,-3.7965,-3.9105,-3.96,-3.9776,-4.0825,-4.1265,-4.1362,-4.1362,-4.1722,-4.2261,-4.2351,-4.2761,-4.323,-4.323,-4.323,-4.323,-4.323,-4.2821,-4.2351,-4.2381,-4.2321,-4.2141,-4.1572,-4.1871,-4.2321,-4.2321,-4.2731,-4.314,-4.314,-4.2731,-4.25,-4.3021,-4.2222,-4.1811,-4.3109,-4.303,-4.2978,-4.3603,0.0,0.0,-4.3897,-4.2279,-4.1834,-4.4232,-4.4581,-4.4886,-4.5635,-4.6989,-4.7564,-4.6853,-4.7428,-4.7804,-4.7804,-4.7804,-4.8173,-4.8917,-4.8917,-4.8951,-4.9018,-4.8951,-4.8917,-4.8917,-4.8849,-4.8883,-4.8917,-4.8917,-4.8951,-4.9018,-4.8951,-4.8105,-4.6853,-4.7564,-4.6955,-4.5635,-4.5703,-4.5669,-4.5534,-4.4852,-4.4615,-4.4615,-4.3977,-4.4077,-4.4077,-4.4077,-4.4077,-4.4227,-4.4616,-4.4347,-4.4227,-4.4646,-4.3478,-4.2737,-4.3012,-4.2175,-4.1906,-4.2589,-4.1587,-4.142,-4.2589,-3.9814,-3.7769,-3.7057,-3.6615,-3.6207,-3.5855,-3.5408,-3.5031,-3.468,-3.45,-3.4575,-3.4881,-3.5082,-3.5385,-3.5814,-3.6504,-3.684,-3.6967,-3.8104,-3.8781,-3.9255,-3.9978,-4.0529,-4.0958,-4.1722,-4.2171,-4.244,-4.2821,-4.312,-4.329,-4.329,-4.329,-4.329,-4.329,-4.311,-4.297,-4.297,-4.297,-4.291,-4.2671,-4.2761,-4.297,-4.297,-4.315,-4.329,-4.329,-4.315,-4.303,-4.323,-4.2901,-4.2761,-4.32,-4.3184,-4.3182,-4.3425,0.0,-4.2169,-4.3737,-4.3007,-4.2996,-4.4846,-4.6018,-4.6752,-4.7056,-4.8003,-4.8477,-4.8173,-4.8409,-4.8578,-4.8578,-4.8578,-4.8714,-4.8984,-4.9018,-4.9018,-4.9018,-4.9018,-4.9018,-4.9018,-4.9018,-4.9018,-4.9018,-4.9018,-4.9018,-4.9018,-4.9018,-4.8409,-4.7564,-4.8274,-4.7733,-4.6413,-4.6887,-4.6515,-4.5669,-4.5399,-4.4993,-4.4615,-4.329,-4.329,-4.329,-4.329,-4.329,-4.3439,-4.3928,-4.3589,-4.3469,-4.3958,-4.2895,-4.2426,-4.321,-4.2589,-4.2467,-4.325,-4.2589,-4.2467,-4.325,-4.0376,-3.7997,-3.6452,-3.6405,-3.6182,-3.5805,-3.5583,-3.5307,-3.4931,-3.4931,-3.5132,-3.5508,-3.5683,-3.5805,-3.5805,-3.6539,-3.667,-3.6371,-3.7531,-3.8222,-3.8722,-3.9782,-4.051,-4.1035,-4.2219,-4.2671,-4.2731,-4.314,-4.329,-4.329,-4.329,-4.329,-4.329,-4.329,-4.329,-4.329,-4.329,-4.329,-4.329,-4.329,-4.3439,-4.3559,-4.3349,-4.3439,-4.3589,-4.3589,-4.3768,-4.3958,-4.3958,-4.3738,-4.3589,-4.3589,-4.3439,-4.329,-4.329,-4.2402,-4.2274,-4.3821,-4.3671,-4.3977,-4.5567,-4.7013,-4.7906,-4.7906,-4.8578,-4.9018,-4.9018,-4.9018,-4.9018,-4.9018,-4.9018,-4.9018,-4.9018,-4.9018,-4.9018,-4.9018,-4.9018,-4.9018,-4.9018,-4.9018,-4.9018,-4.9018,-4.9018,-4.9018,-4.9018,-4.9018,-4.8578,-4.7939,-4.8714,-4.8274,-4.7158,-4.7462,-4.709,-4.6346,-4.5872,-4.5365,-4.4925,-4.329,-4.329,-4.329,-4.329,-4.329,-4.329,-4.329,-4.329,-4.329,-4.329,-4.329,-4.329,-4.329,-4.329,-4.329,-4.329,-4.329,-4.329,-4.329,-4.1155,-3.8827,-3.6499,-3.6405,-3.6405,-3.6405,-3.583,-3.5508,-3.5508,-3.5508,-3.5508,-3.5508,-3.6107,-3.6405,-3.6405,-3.6405,-3.6405,-3.6452,-3.7632,-3.8107,-3.8289,-4.0632,-4.1587,-4.1711,-4.286,-4.329,-4.329,-4.329,-4.329,-4.329,-4.329,-4.329,-4.329,-4.329,-4.329,-4.329,-4.329,-4.329,-4.329,-4.329,-4.3798,-4.4167,-4.3469,-4.3798,-4.4317,-4.4317,-4.4825,-4.5274,-4.5304,-4.4766,-4.4317,-4.4317,-4.3738,-4.329,-4.329,-4.2791,-4.2968,-4.4569,-4.4394,-4.4684,-4.629,-4.7316,-4.7906,-4.7906,-4.8578,-4.9018,-4.9018,-4.9018,-4.9018,-4.9018,-4.9018,-4.9018,-4.9018,-4.9018,-4.9018,-4.9018,-4.9018,-4.9018,-4.9018,-4.9018,-4.9018,-4.9018,-4.9018,-4.9018,-4.9018,-4.9018,-4.8578,-4.7973,-4.8714,-4.8578,-4.7838,-4.709,-4.7259,-4.7703,-4.6278,-4.5703,-4.5703,-4.329,-4.329,-4.329,-4.329,-4.329,-4.329,-4.329,-4.329,-4.329,-4.329,-4.329,-4.329,-4.329,-4.329,-4.329,-4.329,-4.329,-4.2941,-4.2152,-4.0703,-3.9183,-3.7678,-3.6849,-3.6405,-3.6405,-3.6207,-3.6107,-3.6107,-3.6107,-3.6107,-3.6132,-3.6329,-3.6405,-3.6405,-3.6405,-3.6405,-3.6405,-3.6756,-3.6896,-3.701,-3.8559,-3.964,-4.0532,-4.167,-4.2589,-4.329,-4.329,-4.329,-4.329,-4.329,-4.329,-4.329,-4.329,-4.3618,-4.3888,-4.3439,-4.3618,-4.4018,-4.4018,-4.4496,-4.4855,-4.4197,-4.4167,-4.4436,-4.4885,-4.4796,-4.4736,-4.5185,-4.5125,-4.4855,-4.4407,-4.4526,-4.4407,-4.3439,-4.3539,-4.3748,-4.3754,-4.4216,-4.4768,-4.5246,-4.6743,-4.7699,-4.7699,-4.8474,-4.9018,-4.9018,-4.9018,-4.9018,-4.9018,-4.9018,-4.9018,-4.9018,-4.9018,-4.9018,-4.9018,-4.9018,-4.9255,-4.9763,-4.9255,-4.9255,-4.9729,-4.9255,-4.9018,-4.9018,-4.9018,-4.8883,-4.8714,-4.8917,-4.8883,-4.8646,-4.8443,-4.8173,-4.7838,-4.7398,-4.6616,-4.5703,-4.329,-4.329,-4.329,-4.329,-4.329,-4.329,-4.329,-4.329,-4.329,-4.329,-4.329,-4.329,-4.329,-4.329,-4.329,-4.329,-4.329,-4.3021,-4.2316,-4.1211,-4.012,-3.9109,-3.761,-3.662,-3.6405,-3.6157,-3.6132,-3.6405,-3.6405,-3.6405,-3.6405,-3.6405,-3.6405,-3.6405,-3.6405,-3.6405,-3.6405,-3.6405,-3.6405,-3.6499,-3.7632,-3.8827,-4.0015,-4.1169,-4.2316,-4.329,-4.329,-4.329,-4.329,-4.329,-4.3469,-4.3678,-4.3678,-4.4167,-4.4526,-4.3559,-4.3768,-4.4317,-4.4317,-4.4796,-4.5274,-4.5155,-4.5095,-4.5214,-4.5603,-4.5603,-4.5603,-4.6022,-4.5873,-4.5574,-4.5185,-4.5214,-4.5035,-4.4227,-4.4436,-4.4556,-4.4167,-4.4922,-4.5701,-4.6153,-4.7276,-4.8167,-4.8528,-4.9108,-4.956,-4.9864,-4.9593,-4.9424,-4.9424,-4.9154,-4.9018,-4.9018,-4.9018,-4.9018,-4.9018,-4.9018,-4.9221,-4.9661,-4.9221,-4.9221,-4.9627,-4.9187,-4.9018,-4.9018,-4.9018,-4.9018,-4.9018,-4.9018,-4.9018,-4.8984,-4.868,-4.8477,-4.8308,-4.8007,-4.7158,-4.6143,-4.329,-4.329,-4.329,-4.329,-4.329,-4.329,-4.329,-4.329,-4.329,-4.329,-4.329,-4.329,-4.329,-4.329,-4.329,-4.329,-4.329,-4.329,-4.329,-4.2234,-4.1299,-4.0625,-3.8562,-3.7187,-3.6633,-3.5898,-3.578,-3.6329,-3.638,-3.6405,-3.6405,-3.6405,-3.6405,-3.6405,-3.6405,-3.6405,-3.6405,-3.6405,-3.6405,-3.6499,-3.7632,-3.8827,-4.0015,-4.1169,-4.2316,-4.329,-4.329,-4.329,-4.329,-4.3349,-4.3828,-4.4407,-4.4407,-4.4855,-4.5155,-4.3828,-4.3947,-4.4496,-4.4496,-4.4975,-4.5633,-4.6262,-4.6369,-4.6369,-4.6369,-4.683,-4.7249,-4.7309,-4.683,-4.6339,-4.6279,-4.5873,-4.5424,-4.5304,-4.5334,-4.5364,-4.5304,-4.6031,-4.692,-4.7913,-4.832,-4.8927,-4.9848,-5.0073,-5.0473,-5.1151,-5.0574,-5.0202,-5.0202,-4.9492,-4.9086,-4.9086,-4.9086,-4.9086,-4.9018,-4.912,-4.9154,-4.9086,-4.9052,-4.9052,-4.9086,-4.9052,-4.9018,-4.9018,-4.9018,-4.9018,-4.9018,-4.9018,-4.9018,-4.8951,-4.8244,-4.8409,-4.8917,-4.8142,-4.7428,-4.6786,-4.329,-4.329,-4.329,-4.329,-4.329,-4.329,-4.329,-4.329,-4.329,-4.329,-4.329,-4.329,-4.329,-4.329,-4.329,-4.329,-4.329,-4.329,-4.329,-4.2234,-4.1299,-4.0625,-3.9326,-3.8558,-3.8363,-3.649,-3.5558,-3.5683,-3.6157,-3.6405,-3.6405,-3.6405,-3.6405,-3.6405,-3.6405,-3.6405,-3.6405,-3.6405,-3.6405,-3.6499,-3.7632,-3.8827,-4.0015,-4.1169,-4.2316,-4.329,-4.329,-4.329,-4.3379,-4.3928,-4.4526,-4.5095,-4.5095,-4.5544,-4.5933,-4.5125,-4.5364,-4.5903,-4.5903,-4.6381,-4.689,-4.707,-4.71,-4.71,-4.71,-4.68,-4.6681,-4.7189,-4.7189,-4.692,-4.6369,-4.6621,-4.6531,-4.5454,-4.5753,-4.5903,-4.5364,-4.5481,-4.5697,-4.5941,-4.7372,-4.8461,-4.8677,-5.0059,-5.1048,-5.1217,-5.1082,-5.098,-5.098,-5.027,-4.9864,-4.9864,-4.9864,-4.9593,-4.9018,-5.0168,-5.0439,-4.983,-4.9289,-4.9289,-4.983,-4.9255,-4.9018,-4.9018,-4.9018,-4.9018,-4.9018,-4.9018,-4.9018,-4.8984,-4.8815,-4.8849,-4.8917,-4.8142,-4.7428,-4.6616,-4.329,-4.329,-4.329,-4.329,-4.329,-4.329,-4.329,-4.306,-4.297,-4.326,-4.306,-4.3,-4.326,-4.329,-4.329,-4.329,-4.329,-4.329,-4.329,-4.2739,-4.2133,-4.1488,-4.0106,-3.9363,-3.9322,-3.7596,-3.6731,-3.6759,-3.6535,-3.6405,-3.6405,-3.6405,-3.6405,-3.6405,-3.6405,-3.6405,-3.6405,-3.6405,-3.6405,-3.6524,-3.7964,-3.9276,-4.0503,-4.201,-4.3077,-4.3768,-4.3768,-4.3768,-4.3898,-4.4556,-4.5214,-4.5783,-4.5783,-4.6262,-4.6591,-4.5574,-4.5783,-4.6279,-4.6279,-4.6561,-4.692,-4.7219,-4.7309,-4.7309,-4.7309,-4.704,-4.689,-4.7249,-4.7309,-4.7189,-4.686,-4.707,-4.707,-4.6381,-4.6561,-4.6651,-4.6292,-4.6262,-4.6443,-4.6924,-4.8035,-4.9167,-5.0101,-5.1129,-5.1894,-5.2266,-5.1961,-5.1725,-5.1725,-5.1048,-5.0608,-5.0608,-5.0608,-5.0439,-5.0067,-5.0811,-5.0845,-5.0101,-4.9695,-4.9526,-4.956,-4.9187,-4.9018,-4.9018,-4.9018,-4.9018,-4.9018,-4.9018,-4.9018,-4.9018,-4.9018,-4.9018,-4.8917,-4.8142,-4.7225,-4.6109,-4.326,-4.329,-4.329,-4.329,-4.329,-4.326,-4.314,-4.2701,-4.256,-4.2901,-4.2611,-4.262,-4.312,-4.323,-4.329,-4.329,-4.329,-4.329,-4.329,-4.329,-4.303,-4.244,-4.1087,-4.0361,-4.0245,-3.9178,-3.851,-3.8264,-3.7191,-3.6662,-3.6662,-3.6499,-3.6405,-3.6405,-3.6405,-3.6405,-3.6405,-3.6405,-3.6405,-3.655,-3.835,-3.9642,-4.069,-4.2779,-4.3799,-4.415,-4.4385,-4.4496,-4.4586,-4.5244,-4.5843,-4.6309,-4.6399,-4.686,-4.707,-4.5963,-4.6052,-4.6459,-4.6459,-4.6459,-4.6621,-4.716,-4.7309,-4.7309,-4.7309,-4.7309,-4.7309,-4.7309,-4.7309,-4.7309,-4.7309,-4.7309,-4.7309,-4.7309,-4.7309,-4.7309,-4.7309,-4.7309,-4.7624,-4.8429,-4.8954,-4.995,-5.1796,-5.2135,-5.2505,-5.3179,-5.2775,-5.2503,-5.2503,-5.1792,-5.1386,-5.1386,-5.1386,-5.1352,-5.1185,-5.1352,-5.0947,-5.0101,-5.0101,-4.9695,-4.9018,-4.9018,-4.9018,-4.9018,-4.9018,-4.9018,-4.9018,-4.9018,-4.9018,-4.9018,-4.9018,-4.9018,-4.8917,-4.8037,-4.6786,-4.5432,-4.32,-4.329,-4.329,-4.329,-4.329,-4.315,-4.262,-4.244,-4.2231,-4.1713,-4.2111,-4.244,-4.253,-4.3,-4.329,-4.329,-4.329,-4.329,-4.329,-4.329,-4.303,-4.244,-4.2673,-4.2594,-4.2067,-4.1436,-4.0378,-3.887,-3.8202,-3.7861,-3.7861,-3.6849,-3.6405,-3.6405,-3.6405,-3.6405,-3.6405,-3.6405,-3.6405,-3.655,-3.8257,-3.9025,-3.9467,-4.2326,-4.3474,-4.3675,-4.4751,-4.5155,-4.5274,-4.5963,-4.6262,-4.6369,-4.698,-4.7249,-4.7279,-4.71,-4.71,-4.716,-4.716,-4.716,-4.7189,-4.7279,-4.7309,-4.7309,-4.7309,-4.7309,-4.7309,-4.7309,-4.7309,-4.7309,-4.7309,-4.7309,-4.7309,-4.7309,-4.7309,-4.7309,-4.7309,-4.7309,-4.7352,-4.7495,-4.8326,-4.9339,-5.0542,-5.143,-5.2002,-5.2101,-5.2873,-5.3348,-5.3348,-5.257,-5.2164,-5.2164,-5.2164,-5.186,-5.1217,-5.1826,-5.1454,-5.0101,-5.0101,-4.9695,-4.9018,-4.9018,-4.9018,-4.9018,-4.9018,-4.9018,-4.9018,-4.9018,-4.9018,-4.9018,-4.9018,-4.9018,-4.8849,-4.7462,-4.6007,-4.475,-4.2731,-4.309,-4.329,-4.329,-4.329,-4.312,-4.25,-4.2081,-4.1752,-4.1452,-4.1324,-4.1452,-4.1811,-4.2402,-4.294,-4.326,-4.329,-4.329,-4.329,-4.329,-4.317,-4.291,-4.2821,-4.2821,-4.291,-4.2357,-4.1847,-4.1389,-3.9196,-3.7769,-3.715,-3.6615,-3.6405,-3.643,-3.6732,-3.6883,-3.6883,-3.7161,-3.7287,-3.7457,-3.9268,-3.9955,-4.0198,-4.2546,-4.3669,-4.4065,-4.4976,-4.5544,-4.5903,-4.619,-4.6561,-4.692,-4.7219,-4.7309,-4.7309,-4.7309,-4.7309,-4.7309,-4.7309,-4.7309,-4.7309,-4.7309,-4.7309,-4.7309,-4.7309,-4.7309,-4.7309,-4.7309,-4.7309,-4.7309,-4.7309,-4.7309,-4.7309,-4.7309,-4.7309,-4.7309,-4.7309,-4.7309,-4.7495,-4.8072,-4.8512,-4.9215,-5.0281,-5.0817,-5.1043,-5.1043,-5.1484,-5.2026,-5.2592,-5.2259,-5.2334,-5.2943,-5.2976,-5.2807,-5.2503,-5.2807,-5.2198,-5.071,-5.071,-5.0101,-4.9018,-4.9018,-4.9018,-4.9018,-4.9018,-4.9018,-4.9018,-4.9018,-4.9018,-4.9018,-4.9018,-4.8511,-4.7733,-4.7496,-4.6481,-4.5196]},{"header":{"parameterUnit":"m.s-1","parameterCategory":1,"la1":30.6,"la2":28.766,"lo1":-90.7593,"lo2":-88.6598,"dy":0.0162,"dx":0.0183,"nx":116,"ny":114,"refTime":"2024-04-06T00:00:00:Z","depth":0,"parameterNumber":3,"parameterNumberName":"V-component_of_WINDS"},"data":[0.0,0.0,0.0,0.0,0.0,0.0,0.0,0.0,0.0,0.0,0.0,0.0,0.0,0.0,0.0,0.0,0.0,0.0,0.0,0.0,0.0,0.0,0.0,0.0,0.0,0.0,0.0,0.0,0.0,0.0,0.0,0.0,0.0,0.0,0.0,0.0,0.0,0.0,0.0,0.0,0.0,0.0,0.0,0.0,0.0,0.0,0.0,0.0,0.0,0.0,0.0,0.0,0.0,0.0,0.0,0.0,0.0,0.0,0.0,0.0,0.0,0.0,0.0,0.0,0.0,0.0,0.0,0.0,0.0,0.0,0.0,0.0,0.0,0.0,0.0,0.0,0.0,0.0,0.0,0.0,0.0,0.0,0.0,0.0,0.0,0.0,0.0,0.0,0.0,0.0,0.0,0.0,0.0,0.0,0.0,0.0,0.0,0.0,0.0,0.0,0.0,0.0,0.0,0.0,0.0,0.0,0.0,0.0,0.0,0.0,0.0,0.0,0.0,0.0,0.0,0.0,0.0,0.0,0.0,0.0,0.0,0.0,0.0,0.0,0.0,0.0,0.0,0.0,0.0,0.0,0.0,0.0,0.0,0.0,0.0,0.0,0.0,0.0,0.0,0.0,0.0,0.0,0.0,0.0,0.0,0.0,0.0,0.0,0.0,0.0,0.0,0.0,0.0,0.0,0.0,0.0,0.0,0.0,0.0,0.0,0.0,0.0,0.0,0.0,0.0,0.0,0.0,0.0,0.0,0.0,0.0,0.0,0.0,0.0,0.0,0.0,0.0,0.0,0.0,0.0,0.0,0.0,0.0,0.0,0.0,0.0,0.0,0.0,0.0,0.0,0.0,0.0,0.0,0.0,0.0,0.0,0.0,0.0,0.0,0.0,0.0,0.0,0.0,0.0,0.0,0.0,0.0,0.0,0.0,0.0,0.0,0.0,0.0,0.0,0.0,0.0,0.0,0.0,0.0,0.0,0.0,0.0,0.0,0.0,0.0,0.0,0.0,0.0,0.0,0.0,0.0,0.0,0.0,0.0,0.0,0.0,0.0,0.0,0.0,0.0,0.0,0.0,0.0,0.0,0.0,0.0,0.0,0.0,0.0,0.0,0.0,0.0,0.0,0.0,0.0,0.0,0.0,0.0,0.0,0.0,0.0,0.0,0.0,0.0,0.0,0.0,0.0,0.0,0.0,0.0,0.0,0.0,0.0,0.0,0.0,0.0,0.0,0.0,0.0,0.0,0.0,0.0,0.0,0.0,0.0,0.0,0.0,0.0,0.0,0.0,0.0,0.0,0.0,0.0,0.0,0.0,0.0,0.0,0.0,0.0,0.0,0.0,0.0,0.0,0.0,0.0,0.0,0.0,0.0,0.0,0.0,0.0,0.0,0.0,0.0,0.0,0.0,0.0,0.0,0.0,0.0,0.0,0.0,0.0,0.0,0.0,0.0,0.0,0.0,0.0,0.0,0.0,0.0,0.0,0.0,0.0,0.0,0.0,0.0,0.0,0.0,0.0,0.0,0.0,0.0,0.0,0.0,0.0,0.0,0.0,0.0,0.0,0.0,0.0,0.0,0.0,0.0,0.0,0.0,0.0,0.0,0.0,0.0,0.0,0.0,0.0,0.0,0.0,0.0,0.0,0.0,0.0,0.0,0.0,0.0,0.0,0.0,0.0,0.0,0.0,0.0,0.0,0.0,0.0,0.0,0.0,0.0,0.0,0.0,0.0,0.0,0.0,0.0,0.0,0.0,0.0,0.0,0.0,0.0,0.0,0.0,0.0,0.0,0.0,0.0,0.0,0.0,0.0,0.0,0.0,0.0,0.0,0.0,0.0,0.0,0.0,0.0,0.0,0.0,0.0,0.0,0.0,0.0,0.0,0.0,0.0,0.0,0.0,0.0,0.0,0.0,0.0,0.0,0.0,0.0,0.0,0.0,0.0,0.0,0.0,0.0,0.0,0.0,0.0,0.0,0.0,0.0,0.0,0.0,0.0,0.0,0.0,0.0,0.0,0.0,0.0,0.0,0.0,0.0,0.0,0.0,0.0,0.0,0.0,0.0,0.0,0.0,0.0,0.0,0.0,0.0,0.0,0.0,0.0,0.0,0.0,0.0,0.0,0.0,0.0,0.0,0.0,0.0,0.0,0.0,0.0,0.0,0.0,0.0,0.0,0.0,0.0,0.0,0.0,0.0,0.0,0.0,0.0,0.0,0.0,0.0,0.0,0.0,0.0,0.0,0.0,0.0,0.0,0.0,0.0,0.0,0.0,0.0,0.0,0.0,0.0,0.0,0.0,0.0,0.0,0.0,0.0,0.0,0.0,0.0,0.0,0.0,0.0,0.0,0.0,0.0,0.0,0.0,0.0,0.0,0.0,0.0,0.0,0.0,0.0,0.0,0.0,0.0,0.0,0.0,0.0,0.0,0.0,0.0,0.0,0.0,0.0,0.0,0.0,0.0,0.0,0.0,0.0,0.0,0.0,0.0,0.0,0.0,0.0,0.0,0.0,0.0,0.0,0.0,0.0,0.0,0.0,0.0,0.0,0.0,0.0,0.0,0.0,0.0,0.0,0.0,0.0,0.0,0.0,0.0,0.0,0.0,0.0,0.0,0.0,0.0,0.0,0.0,0.0,0.0,0.0,0.0,0.0,0.0,0.0,0.0,0.0,0.0,0.0,0.0,0.0,0.0,0.0,0.0,0.0,0.0,0.0,0.0,0.0,0.0,0.0,0.0,0.0,0.0,0.0,0.0,0.0,0.0,0.0,0.0,0.0,0.0,0.0,0.0,0.0,0.0,0.0,0.0,0.0,0.0,0.0,0.0,0.0,0.0,0.0,0.0,0.0,0.0,0.0,0.0,0.0,0.0,0.0,0.0,0.0,0.0,0.0,0.0,0.0,0.0,0.0,0.0,0.0,0.0,0.0,0.0,0.0,0.0,0.0,0.0,0.0,0.0,0.0,0.0,0.0,0.0,0.0,0.0,0.0,0.0,0.0,0.0,0.0,0.0,0.0,0.0,0.0,0.0,0.0,0.0,0.0,0.0,0.0,0.0,0.0,0.0,0.0,0.0,0.0,0.0,0.0,0.0,0.0,0.0,0.0,0.0,0.0,0.0,0.0,0.0,0.0,0.0,0.0,0.0,0.0,0.0,0.0,0.0,0.0,0.0,0.0,0.0,0.0,0.0,0.0,0.0,0.0,0.0,0.0,0.0,0.0,0.0,0.0,0.0,0.0,0.0,0.0,0.0,0.0,0.0,0.0,0.0,0.0,0.0,0.0,0.0,0.0,0.0,0.0,0.0,0.0,0.0,0.0,0.0,0.0,0.0,0.0,0.0,0.0,0.0,0.0,0.0,0.0,0.0,0.0,0.0,0.0,0.0,0.0,0.0,0.0,0.0,0.0,0.0,0.0,0.0,0.0,0.0,0.0,0.0,0.0,0.0,0.0,0.0,0.0,0.0,0.0,0.0,0.0,0.0,0.0,0.0,0.0,0.0,0.0,0.0,0.0,0.0,0.0,0.0,0.0,0.0,0.0,0.0,0.0,0.0,0.0,0.0,0.0,0.0,0.0,0.0,0.0,0.0,0.0,0.0,0.0,0.0,0.0,0.0,0.0,0.0,0.0,0.0,0.0,0.0,0.0,0.0,0.0,0.0,0.0,0.0,0.0,0.0,0.0,0.0,0.0,0.0,0.0,0.0,0.0,0.0,0.0,0.0,0.0,0.0,0.0,0.0,0.0,0.0,0.0,0.0,0.0,0.0,0.0,0.0,0.0,0.0,0.0,0.0,0.0,0.0,0.0,0.0,0.0,0.0,0.0,0.0,0.0,0.0,0.0,0.0,0.0,0.0,0.0,0.0,0.0,0.0,0.0,0.0,0.0,0.0,0.0,0.0,0.0,0.0,0.0,0.0,0.0,0.0,0.0,0.0,0.0,0.0,0.0,0.0,0.0,0.0,0.0,0.0,0.0,0.0,0.0,0.0,0.0,0.0,0.0,0.0,0.0,0.0,0.0,0.0,0.0,0.0,0.0,0.0,0.0,0.0,0.0,0.0,0.0,0.0,0.0,0.0,0.0,0.0,0.0,0.0,0.0,0.0,0.0,0.0,0.0,0.0,0.0,0.0,0.0,0.0,0.0,0.0,0.0,0.0,0.0,0.0,0.0,0.0,0.0,0.0,0.0,0.0,0.0,0.0,0.0,0.0,0.0,0.0,0.0,0.0,0.0,0.0,0.0,0.0,0.0,0.0,0.0,0.0,0.0,0.0,0.0,0.0,0.0,0.0,0.0,0.0,0.0,0.0,0.0,0.0,0.0,0.0,0.0,0.0,0.0,0.0,0.0,0.0,0.0,0.0,0.0,0.0,0.0,0.0,0.0,0.0,0.0,0.0,0.0,0.0,0.0,0.0,0.0,0.0,0.0,0.0,0.0,0.0,0.0,0.0,0.0,0.0,0.0,0.0,0.0,0.0,0.0,0.0,0.0,0.0,0.0,0.0,0.0,0.0,0.0,0.0,0.0,0.0,0.0,0.0,0.0,0.0,0.0,0.0,0.0,0.0,0.0,0.0,0.0,0.0,0.0,0.0,0.0,0.0,0.0,0.0,0.0,0.0,0.0,0.0,0.0,0.0,0.0,0.0,0.0,0.0,0.0,0.0,0.0,0.0,0.0,0.0,0.0,0.0,0.0,0.0,0.0,0.0,0.0,0.0,0.0,0.0,0.0,0.0,0.0,0.0,0.0,0.0,0.0,0.0,0.0,0.0,0.0,0.0,0.0,0.0,0.0,0.0,0.0,0.0,0.0,0.0,0.0,0.0,0.0,0.0,0.0,0.0,0.0,0.0,0.0,0.0,0.0,0.0,0.0,0.0,0.0,0.0,0.0,0.0,0.0,0.0,0.0,0.0,0.0,0.0,0.0,0.0,0.0,0.0,0.0,0.0,0.0,0.0,0.0,0.0,0.0,0.0,0.0,0.0,0.0,0.0,0.0,0.0,0.0,0.0,0.0,0.0,0.0,0.0,0.0,0.0,0.0,0.0,0.0,0.0,0.0,0.0,0.0,0.0,0.0,0.0,0.0,0.0,0.0,0.0,0.0,0.0,0.0,0.0,0.0,0.0,0.0,0.0,0.0,0.0,0.0,0.0,0.0,0.0,0.0,0.0,0.0,0.0,0.0,0.0,0.0,0.0,0.0,0.0,0.0,0.0,0.0,0.0,0.0,0.0,0.0,0.0,0.0,0.0,0.0,0.0,0.0,0.0,0.0,0.0,0.0,0.0,0.0,0.0,0.0,0.0,0.0,0.0,0.0,0.0,0.0,0.0,0.0,0.0,0.0,0.0,0.0,0.0,0.0,0.0,0.0,0.0,0.0,0.0,0.0,0.0,0.0,0.0,0.0,0.0,0.0,0.0,0.0,0.0,0.0,0.0,0.0,0.0,0.0,0.0,0.0,0.0,0.0,0.0,0.0,0.0,0.0,0.0,0.0,0.0,0.0,0.0,0.0,0.0,0.0,0.0,0.0,0.0,0.0,0.0,0.0,0.0,0.0,0.0,0.0,0.0,0.0,0.0,0.0,0.0,0.0,0.0,0.0,0.0,0.0,0.0,0.0,0.0,0.0,0.0,0.0,0.0,0.0,0.0,0.0,0.0,0.0,0.0,0.0,0.0,0.0,0.0,0.0,0.0,0.0,0.0,0.0,0.0,0.0,0.0,0.0,0.0,0.0,0.0,0.0,0.0,0.0,0.0,0.0,0.0,0.0,0.0,0.0,0.0,0.0,0.0,0.0,0.0,0.0,0.0,0.0,0.0,0.0,0.0,0.0,0.0,0.0,0.0,0.0,0.0,0.0,0.0,0.0,0.0,0.0,0.0,0.0,0.0,0.0,0.0,0.0,0.0,0.0,0.0,0.0,0.0,0.0,0.0,0.0,0.0,0.0,0.0,0.0,0.0,0.0,0.0,0.0,0.0,0.0,0.0,0.0,0.0,0.0,0.0,0.0,0.0,0.0,0.0,0.0,0.0,0.0,0.0,0.0,0.0,0.0,0.0,0.0,0.0,0.0,0.0,0.0,0.0,0.0,0.0,0.0,0.0,0.0,0.0,0.0,0.0,0.0,2.3426,0.0,0.0,0.0,0.0,0.0,0.0,0.0,0.0,0.0,0.0,0.0,0.0,0.0,0.0,0.0,0.0,0.0,0.0,0.0,0.0,0.0,0.0,0.0,0.0,1.7576,1.7576,1.7576,1.703,1.6936,1.7529,0.0,0.0,0.0,0.0,0.0,2.3887,2.393,2.4467,2.563,2.563,2.6012,2.6735,2.4618,2.3212,2.2279,0.0,0.0,0.0,0.0,0.0,0.0,0.0,0.0,0.0,0.0,0.0,0.0,0.0,0.0,0.0,0.0,0.0,0.0,0.0,0.0,0.0,0.0,0.0,0.0,0.0,0.0,0.0,0.0,0.0,0.0,0.0,0.0,0.0,0.0,0.0,0.0,0.0,0.0,0.0,0.0,0.0,0.0,0.0,0.0,0.0,0.0,0.0,0.0,0.0,0.0,0.0,0.0,0.0,0.0,0.0,0.0,0.0,0.0,0.0,0.0,0.0,0.0,0.0,0.0,0.0,0.0,0.0,0.0,0.0,0.0,0.0,2.4814,0.0,0.0,0.0,0.0,0.0,0.0,0.0,0.0,0.0,0.0,0.0,0.0,0.0,0.0,0.0,0.0,0.0,0.0,0.0,0.0,0.0,1.8133,1.936,1.9497,1.9497,1.9497,1.8596,1.8457,1.9451,1.878,0.0,0.0,0.0,2.2829,2.4745,2.4999,2.5672,2.6771,2.7067,2.7401,2.7706,2.7353,2.654,2.5245,2.2684,0.0,0.0,0.0,0.0,0.0,0.0,0.0,0.0,0.0,0.0,0.0,0.0,0.0,0.0,0.0,0.0,0.0,0.0,0.0,0.0,0.0,0.0,0.0,0.0,0.0,0.0,0.0,0.0,0.0,0.0,0.0,0.0,0.0,0.0,0.0,0.0,0.0,0.0,0.0,0.0,0.0,0.0,0.0,0.0,0.0,0.0,0.0,0.0,0.0,0.0,0.0,0.0,0.0,0.0,0.0,0.0,0.0,0.0,0.0,0.0,0.0,0.0,0.0,2.9355,2.959,3.0098,2.9394,2.9219,2.9453,2.875,2.8437,2.8281,2.6719,0.0,0.0,0.0,0.0,0.0,0.0,0.0,0.0,0.0,0.0,0.0,0.0,0.0,0.0,0.0,0.0,0.0,0.0,0.0,1.8133,1.936,1.9497,1.9497,1.9497,1.936,1.9314,1.9497,2.0342,2.0989,2.1302,2.3264,2.4489,2.4787,2.5755,2.6789,2.7884,2.9333,3.0069,3.0128,2.9959,2.9789,2.9401,2.4801,2.3166,2.3648,0.0,0.0,0.0,0.0,0.0,0.0,0.0,0.0,0.0,0.0,0.0,0.0,0.0,0.0,0.0,0.0,0.0,0.0,0.0,0.0,0.0,0.0,0.0,0.0,0.0,0.0,0.0,0.0,0.0,0.0,0.0,0.0,0.0,0.0,0.0,0.0,0.0,0.0,0.0,0.0,0.0,2.5798,2.449,0.0,0.0,0.0,0.0,0.0,0.0,0.0,0.0,0.0,0.0,0.0,0.0,0.0,3.0059,3.0449,3.1621,3.2051,3.1758,3.2812,3.2988,3.2363,3.2246,3.2031,3.1738,3.1621,0.0,2.8769,2.7812,0.0,0.0,0.0,0.0,0.0,0.0,0.0,0.0,0.0,0.0,0.0,0.0,0.0,0.0,0.0,0.0,0.0,0.0,0.0,0.0,0.0,2.2484,2.2484,2.2484,2.2073,2.1725,2.1543,2.1626,2.187,2.2271,2.3932,2.5083,2.5755,2.683,2.8387,3.0379,3.1048,3.1577,3.1953,3.1281,3.0964,3.0832,2.8068,2.6933,2.6939,2.3652,0.0,0.0,0.0,0.0,0.0,0.0,0.0,0.0,0.0,0.0,0.0,0.0,0.0,0.0,0.0,0.0,0.0,0.0,0.0,0.0,0.0,0.0,0.0,0.0,0.0,0.0,0.0,0.0,0.0,0.0,0.0,0.0,0.0,0.0,0.0,0.0,0.0,0.0,0.0,2.7528,2.7341,2.6056,2.639,2.6279,0.0,0.0,0.0,0.0,0.0,0.0,0.0,0.0,0.0,3.1348,3.1562,3.1992,3.2676,3.3223,3.3535,3.3594,3.3926,3.4141,3.4238,3.3984,3.3633,3.3305,3.3305,3.2422,3.0976,2.9394,2.8242,2.7324,0.0,0.0,0.0,0.0,2.5527,2.5625,0.0,0.0,0.0,0.0,0.0,0.0,0.0,0.0,0.0,0.0,0.0,0.0,2.4575,2.519,2.5423,2.5423,2.462,2.4023,2.3783,2.2808,2.2636,2.3474,2.4638,2.5859,2.7256,2.8752,3.0496,3.2557,3.2749,3.315,3.3578,3.2691,3.224,3.2199,3.1555,3.0735,2.9579,2.6475,2.5263,2.5204,0.0,0.0,0.0,0.0,0.0,0.0,0.0,0.0,0.0,0.0,0.0,0.0,0.0,0.0,0.0,0.0,0.0,0.0,0.0,0.0,0.0,0.0,0.0,0.0,0.0,0.0,0.0,0.0,0.0,0.0,0.0,0.0,0.0,0.0,0.0,0.0,0.0,2.9145,2.9346,2.7917,2.9216,2.9253,0.0,0.0,0.0,0.0,0.0,0.0,3.1328,3.168,3.2402,3.3574,3.373,3.4101,3.4726,3.4746,3.4844,3.5039,3.4726,3.4863,3.5371,3.4902,3.4473,3.4062,3.3945,3.3418,3.25,3.0664,2.9453,2.8652,2.7383,2.6875,2.6875,2.6875,2.6875,2.7012,0.0,0.0,0.0,0.0,0.0,0.0,0.0,0.0,0.0,0.0,0.0,2.3398,2.466,2.6212,2.7178,2.7178,2.6152,2.5502,2.5481,2.3954,2.3517,2.466,2.5797,2.7354,2.9297,3.1953,3.3376,3.3541,3.4692,3.5234,3.5289,3.4754,3.453,3.4556,3.5068,3.3672,3.0725,2.8239,2.763,2.8143,2.5592,0.0,0.0,0.0,0.0,0.0,0.0,0.0,0.0,0.0,0.0,0.0,0.0,0.0,0.0,0.0,0.0,0.0,0.0,0.0,0.0,0.0,0.0,0.0,0.0,0.0,0.0,0.0,0.0,0.0,0.0,0.0,0.0,0.0,0.0,0.0,0.0,0.0,0.0,3.0879,3.2863,0.0,0.0,0.0,0.0,3.2539,3.2988,3.3594,3.4434,3.4492,3.4922,3.582,3.6269,3.6504,3.6543,3.6543,3.6348,3.5957,3.5937,3.5742,3.5371,3.4902,3.4473,3.4043,3.3633,3.2988,3.219,3.1211,3.0547,2.998,2.8691,2.8203,2.8203,2.8203,2.8203,2.8203,0.0,0.0,0.0,0.0,0.0,1.5784,1.5784,1.7529,1.8993,1.9451,2.2221,2.4596,2.5755,2.7345,2.8332,2.8332,2.8234,2.7428,2.5697,2.4962,2.4648,2.4808,2.588,2.8002,3.1163,3.3367,3.4939,3.5801,3.6154,3.6741,3.7536,3.6282,3.5872,3.6293,3.6062,3.5614,3.4837,3.2197,3.0836,3.0202,2.7493,2.6383,0.0,0.0,0.0,0.0,0.0,0.0,0.0,0.0,0.0,0.0,0.0,0.0,0.0,0.0,0.0,0.0,0.0,0.0,0.0,0.0,0.0,0.0,0.0,0.0,0.0,0.0,0.0,0.0,0.0,0.0,0.0,0.0,0.0,0.0,0.0,0.0,0.0,3.3086,3.5215,0.0,3.334,3.3789,3.4414,3.4844,3.5273,3.5879,3.6738,3.6777,3.7051,3.7637,3.7812,3.7773,3.748,3.7207,3.6855,3.6445,3.6152,3.5801,3.5391,3.5215,3.4746,3.4062,3.3906,3.3359,3.2519,3.1953,3.1289,3.0566,2.9805,2.9512,2.9492,2.9219,2.9919,3.0799,0.0,0.0,0.0,0.0,1.5784,1.5784,1.5784,1.7886,1.9497,1.9497,2.2921,2.5672,2.6442,2.8298,2.9537,2.9706,2.9504,2.8541,2.6585,2.6045,2.5637,2.54,2.7655,3.0238,3.309,3.5118,3.6593,3.7441,3.7609,3.8243,3.9294,3.7536,3.7209,3.8034,3.7613,3.7582,3.7731,3.6371,3.463,3.2574,3.0018,2.8966,2.8683,0.0,0.0,0.0,0.0,0.0,0.0,0.0,0.0,0.0,0.0,0.0,0.0,0.0,0.0,0.0,0.0,0.0,0.0,0.0,0.0,0.0,0.0,0.0,0.0,0.0,0.0,0.0,0.0,0.0,0.0,0.0,0.0,0.0,0.0,0.0,3.5508,3.4629,3.6934,3.7734,3.5566,3.6152,3.6855,3.7285,3.7598,3.8008,3.8555,3.8437,3.8418,3.8574,3.8574,3.8301,3.7715,3.7441,3.7012,3.6445,3.6152,3.5801,3.5391,3.5234,3.4766,3.4062,3.3769,3.3536,3.3295,3.2855,3.2313,3.1574,3.0777,3.043,3.0448,3.0701,3.1584,3.2672,0.0,0.0,0.0,1.5784,1.5784,1.5784,1.5784,1.784,1.9451,1.9497,2.3507,2.64,2.6442,2.885,3.0688,3.1254,2.9779,2.8626,2.8134,2.7105,2.6524,2.6629,3.1123,3.4076,3.5056,3.7251,3.8422,3.8452,3.911,3.9768,4.039,3.8652,3.8582,3.9834,3.9805,3.9548,3.9158,4.0351,3.8863,3.5579,3.3354,3.2418,3.2067,0.0,0.0,0.0,0.0,0.0,0.0,0.0,0.0,0.0,0.0,0.0,0.0,0.0,0.0,0.0,0.0,0.0,0.0,0.0,0.0,0.0,0.0,0.0,0.0,0.0,0.0,0.0,0.0,0.0,0.0,0.0,0.0,0.0,3.2754,3.5098,3.6406,3.5625,3.8144,3.9121,3.7012,3.8301,3.9453,3.9902,3.9922,3.9902,3.9922,3.9453,3.9004,3.8613,3.8574,3.8164,3.7324,3.7285,3.6855,3.6035,3.6016,3.5781,3.5351,3.4883,3.4434,3.3984,3.3164,3.3356,3.4282,3.388,3.3419,3.2907,3.1498,3.0937,3.1054,3.2473,3.3077,3.3487,0.0,0.0,1.5784,1.5784,1.5784,1.5784,1.5784,1.7171,1.8503,1.9405,2.2114,2.4299,2.5168,2.7034,2.8375,2.8842,2.8172,2.7785,2.7938,2.7063,2.7376,2.9316,3.2117,3.4469,3.6418,3.7724,3.8871,3.9858,3.9559,4.0008,4.1085,3.9624,3.9691,4.0944,4.0469,4.0663,4.1498,4.1804,4.1168,3.9731,3.7057,3.598,3.5755,0.0,0.0,0.0,0.0,0.0,0.0,0.0,0.0,0.0,0.0,0.0,0.0,0.0,0.0,0.0,0.0,0.0,0.0,0.0,0.0,0.0,0.0,0.0,0.0,0.0,0.0,0.0,0.0,0.0,0.0,0.0,3.2676,3.4414,3.4648,3.6348,3.7851,3.8574,3.9941,4.0586,4.0,4.0351,4.0684,4.082,4.0254,4.0019,4.0332,3.9629,3.9141,3.9023,3.873,3.8301,3.7754,3.7148,3.6719,3.6484,3.5859,3.5332,3.4883,3.4453,3.3848,3.3125,3.2891,3.2607,3.2355,3.3289,3.2806,3.1536,3.2264,3.1825,3.0937,3.1383,3.1869,3.2886,0.0,1.4028,1.5784,1.5784,1.5784,1.5784,1.5784,1.6904,1.7963,1.8642,2.0766,2.2471,2.3185,2.455,2.5808,2.6802,2.6451,2.6578,2.7581,2.755,2.8593,3.1048,3.2779,3.4833,3.7267,3.785,3.8891,4.0397,4.0008,4.0367,4.1354,4.0606,4.0935,4.2162,4.1504,4.1803,4.2761,4.2258,4.1883,4.1417,3.9312,3.8574,3.8643,3.7222,3.6569,3.6147,3.4466,3.3695,3.3102,3.0623,0.0,0.0,0.0,0.0,0.0,0.0,0.0,0.0,0.0,0.0,0.0,0.0,0.0,0.0,0.0,0.0,0.0,0.0,0.0,0.0,0.0,0.0,0.0,0.0,3.4707,3.6445,3.7168,3.8125,3.916,4.0293,4.0879,4.1172,4.1172,4.1172,4.1094,4.0918,4.0449,4.0098,3.998,3.9492,3.9121,3.8945,3.8691,3.8281,3.7676,3.7168,3.6758,3.6387,3.6423,3.6153,3.569,3.5992,3.5604,3.4733,3.4526,3.4383,3.4304,3.4997,3.4644,0.0,0.0,0.0,0.0,0.0,3.2952,3.3606,0.0,1.398,1.5629,1.5784,1.5784,1.5784,1.5784,1.6763,1.7544,1.7684,1.9459,2.0784,2.0918,2.1808,2.3095,2.4728,2.4487,2.5105,2.7178,2.8462,3.0128,3.2212,3.3384,3.5246,3.794,3.8007,3.8885,4.0636,4.0546,4.0846,4.1542,4.1452,4.2043,4.317,4.2611,4.2692,4.3021,4.2029,4.1545,4.1337,4.0318,4.0217,4.0504,3.9643,3.979,4.0347,3.8836,3.7638,3.6477,3.4582,0.0,0.0,0.0,0.0,0.0,0.0,0.0,0.0,0.0,0.0,0.0,0.0,0.0,0.0,0.0,0.0,0.0,0.0,0.0,0.0,0.0,0.0,0.0,0.0,3.6621,3.8066,3.9668,3.998,4.0312,4.1074,4.1172,4.1172,4.1172,4.1172,4.0996,4.0566,4.0469,4.0078,3.9238,0.0,0.0,0.0,0.0,3.8125,3.7305,3.7246,3.6816,3.6016,3.7197,3.7482,3.7127,3.8284,3.832,3.7403,3.6911,3.7132,3.7864,3.7613,3.753,3.7186,3.4236,3.2281,3.1361,3.4004,3.4754,3.4819,0.0,1.392,1.4603,1.5629,1.5784,1.5784,1.5784,1.6008,1.6527,1.7544,1.8072,1.8748,1.9691,1.9991,2.04,2.1101,2.1644,2.3446,2.7071,2.9587,3.1873,3.4082,3.4809,3.6456,3.9194,3.9262,4.0159,4.2021,4.1444,4.1572,4.2201,4.1662,4.1841,4.259,4.244,4.2199,4.1906,4.167,4.1085,4.0189,4.0,3.9968,4.0023,3.9846,3.9588,3.915,3.841,3.8545,3.8667,3.6345,3.5517,3.4992,3.2175,0.0,0.0,0.0,0.0,0.0,0.0,0.0,0.0,0.0,0.0,0.0,0.0,0.0,0.0,0.0,0.0,0.0,0.0,0.0,0.0,3.5827,3.7539,3.9082,3.9805,4.0488,4.0996,4.1152,4.1172,4.1172,4.1172,4.1172,4.0996,4.0566,4.0215,3.9785,3.9238,3.8887,3.8652,3.8574,3.8223,3.7812,3.7305,3.6953,3.6523,3.6016,0.0,0.0,3.7127,3.7994,3.8044,3.7542,3.6969,3.6646,3.6541,3.7237,3.753,3.7186,3.4236,3.2621,3.2008,3.2601,3.2998,3.3517,0.0,1.392,1.4316,1.5581,1.5784,1.5784,1.5784,1.5784,1.5818,1.5778,1.5778,1.6015,1.6645,1.6692,1.7264,1.8785,2.1364,2.4229,2.7197,3.0174,3.2541,3.4255,3.4778,3.6147,3.8392,3.8117,3.8865,4.0637,4.0279,4.059,4.1498,4.1498,4.1674,4.1997,4.1997,4.1534,4.0703,4.0118,3.9508,3.8961,3.8405,3.8319,3.872,4.024,4.0586,4.0264,3.998,4.0204,4.0363,3.846,3.7636,3.6943,3.4422,3.2416,3.0465,0.0,0.0,0.0,0.0,0.0,0.0,0.0,0.0,0.0,0.0,0.0,0.0,0.0,0.0,3.7123,3.6631,0.0,3.8005,3.794,3.9023,4.0019,4.0469,4.0898,4.1172,4.1172,4.1172,4.1172,4.1172,4.1172,4.0898,4.0254,4.0019,3.9609,3.8926,3.8691,3.8574,3.8574,3.8144,3.7734,3.7305,3.6875,3.6906,3.7307,3.7975,3.8769,3.9596,4.0304,4.0164,3.9427,3.9141,3.8594,3.7911,3.8417,3.819,3.7323,3.5594,3.4262,3.3388,3.4149,3.3869,3.3276,0.0,1.3728,1.4316,1.5581,1.5784,1.5784,1.5784,1.5784,1.5343,1.4076,1.392,1.392,1.392,1.392,1.5019,1.7809,2.1845,2.5232,2.7615,3.0676,3.2918,3.4173,3.4479,3.5522,3.7395,3.6682,3.72,3.9097,3.9097,3.9564,4.0469,4.1024,4.1253,4.1253,4.1253,4.0618,3.9492,3.8514,3.7971,3.7678,3.6496,3.6349,3.7017,3.9323,4.0555,4.1132,4.109,4.1112,4.0939,4.0108,3.8838,3.7364,3.6009,3.4098,3.1814,2.9297,2.8418,0.0,0.0,0.0,0.0,0.0,0.0,0.0,0.0,0.0,3.3996,3.5052,3.8342,4.0959,4.0989,4.0694,4.0465,4.0444,4.0462,4.0644,4.0996,4.1113,4.1172,4.1172,4.1172,4.1172,4.1172,4.1172,4.082,3.9961,3.9902,3.9512,3.8613,3.8574,3.8574,3.8574,3.8144,3.7734,3.7305,3.6875,3.718,3.8088,3.9038,4.0234,4.1633,4.2462,4.2333,4.148,4.1225,4.0626,3.9697,3.9697,3.9025,3.7853,3.7324,3.6308,3.5168,3.6043,3.5072,3.365,0.0,1.3054,1.4316,1.5581,1.5784,1.5784,1.5784,1.5784,1.5343,1.4076,1.392,1.392,1.392,1.392,1.5373,1.8977,2.1581,2.4627,2.8497,3.1409,3.3696,3.5232,3.4772,3.554,3.7957,3.6796,3.7319,3.9802,3.9802,3.9846,3.9976,4.0031,4.0059,4.0059,4.0059,3.9404,3.8289,3.8153,3.7494,3.6474,3.5162,3.4892,3.5194,3.483,3.6579,3.922,3.9196,3.9196,3.9348,4.0151,3.9026,3.7268,3.6714,3.5128,3.2981,3.027,0.0,2.8008,2.6738,2.6484,2.6934,2.8359,2.8457,2.9004,0.0,0.0,3.7653,3.8859,4.3235,4.6489,4.4903,4.4366,4.3762,4.2679,4.1384,4.0547,4.0586,4.0937,4.1172,4.1172,4.1172,4.1172,4.1172,4.1172,4.082,3.9961,3.9902,3.9512,3.8613,3.8574,3.8574,3.8574,3.8144,3.7734,3.7305,3.6875,3.6583,3.6336,3.8466,3.9618,3.982,4.1533,4.2238,4.2062,4.1028,4.0249,3.9697,3.9697,3.9594,3.9415,3.8866,3.8241,3.7419,3.5805,3.4807,3.4457,0.0,0.0,1.4316,1.5581,1.5784,1.5784,1.5784,1.5784,1.5045,1.3006,1.2716,1.2716,1.2716,1.4076,1.5819,1.7888,2.035,2.3241,2.6564,2.9398,3.1735,3.3546,3.3337,3.3817,3.5112,3.4288,3.4557,3.589,3.5618,3.5846,3.6544,3.7312,3.7703,3.7703,3.7703,3.7068,3.5879,3.5041,3.4436,3.397,3.3677,3.3889,3.4268,3.3952,3.4733,3.6062,3.6062,3.5872,0.0,0.0,3.6403,3.5725,3.5216,3.4168,3.2636,3.029,2.9316,0.0,2.8691,2.8418,2.8476,0.0,3.0117,3.0918,3.2363,3.5794,3.904,4.049,4.487,4.8153,4.7184,4.6196,4.5124,0.0,4.21,4.0898,4.0898,4.1055,4.0996,4.0488,4.0644,4.0898,4.1152,4.1172,4.082,3.9961,3.9902,3.9512,3.8613,3.8574,3.8457,3.8203,3.7773,3.7363,3.6934,3.6504,3.7031,3.8504,3.9201,4.0403,4.204,4.2443,4.2283,4.1605,4.0526,3.9898,3.9697,3.9697,3.9697,3.9597,3.8718,3.8216,3.789,3.6727,3.599,3.5619,0.0,0.0,0.0,1.5629,1.5784,1.5784,1.5784,1.5784,1.4997,1.2764,1.2145,1.1901,1.1901,1.3932,1.5806,1.7097,1.9277,2.178,2.4551,2.7366,2.954,3.1019,3.1206,3.1456,3.1835,3.1146,3.1073,3.1782,3.149,3.1995,3.3342,3.4308,3.4992,3.5405,3.5405,3.4966,3.4093,3.309,3.2632,3.2677,3.2619,3.2867,3.3153,3.2671,3.2379,3.2372,3.3287,3.3237,0.0,0.0,3.342,3.3325,3.2904,3.2316,3.1449,2.9743,2.9043,2.8871,2.872,0.0,0.0,2.8875,3.0222,3.1574,3.1989,3.5625,3.9437,4.1418,4.5277,4.8484,4.9039,4.7959,4.6518,4.5115,4.3304,4.179,4.1093,4.0898,4.0547,3.9785,3.9766,3.998,4.041,4.0684,4.0508,3.9766,3.9707,3.9316,3.8437,3.8398,3.8203,3.7773,3.7344,3.7252,3.7399,3.6773,3.7802,4.0293,4.0079,4.1054,4.3086,4.2662,4.1932,4.0852,4.0049,3.9697,3.9697,3.9697,3.9597,3.9371,3.8391,3.7914,3.7713,3.7161,3.6757,3.6405,0.0,0.0,0.0,0.0,1.5784,1.5784,1.5784,1.5784,1.5343,1.4016,1.2716,1.1901,1.1901,1.3151,1.4972,1.7483,1.8714,2.0486,2.3103,2.6,2.7759,2.8042,2.8398,2.87,2.8826,2.751,2.751,2.8845,2.8826,2.9689,3.1291,3.1345,3.2158,3.369,3.369,3.3637,3.3637,3.3584,3.3532,3.3426,3.2136,3.1671,3.1487,2.9719,2.8579,2.8329,3.1541,0.0,3.1303,3.1422,3.074,2.9893,2.9965,2.986,0.0,2.8628,2.7734,2.6711,2.5172,0.0,2.5831,2.5724,2.7702,3.0014,3.1565,3.5126,3.9002,4.2125,4.505,4.7889,5.0714,4.9971,4.8544,4.7181,4.5276,4.3215,4.0816,4.0195,3.9766,3.9277,3.8496,3.8184,0.0,3.9434,3.9726,3.9258,3.9219,3.8848,3.7988,3.7949,3.7754,3.7324,3.6914,3.7468,3.9088,3.819,3.8616,4.0271,4.0894,4.1176,4.1305,4.1312,4.0802,3.9747,3.9697,3.9697,3.9697,3.9697,3.9371,3.8894,3.8241,3.7688,3.7136,3.6631,3.643,3.6405,0.0,0.0,0.0,0.0,0.0,1.5784,1.5784,1.5784,1.5343,1.4076,1.3488,0.0,0.0,0.0,0.0,0.0,1.7561,1.8832,2.0313,2.2463,2.3925,2.4562,2.5278,2.5887,2.6162,2.5639,2.57,2.6429,2.6186,2.6351,2.6921,2.7827,2.848,2.9,2.9,2.9,2.8945,2.8052,2.8314,2.9267,2.8783,2.9269,3.0118,2.8932,2.7969,2.7282,0.0,0.0,2.7132,2.72,2.7145,2.7102,2.7452,2.73,2.6973,2.668,2.7012,2.7193,2.6028,2.6361,2.6848,2.6537,2.7694,2.9467,3.1532,3.4366,3.7258,3.9982,4.2079,4.4044,4.644,4.6115,4.5325,4.485,4.4104,4.2864,4.0757,4.041,3.9726,3.8125,3.8184,0.0,0.0,0.0,0.0,3.8789,3.9043,3.8828,3.7969,3.901,3.9277,3.861,3.9555,4.0015,3.9908,3.9644,3.9958,4.0894,4.1547,4.1879,4.1829,4.1085,4.0601,4.0224,3.9848,3.9697,3.9697,3.9697,3.9371,3.8869,3.8241,3.7663,3.7111,3.6606,3.6405,3.6405,0.0,0.0,0.0,0.0,0.0,0.0,0.0,0.0,0.0,0.0,0.0,0.0,0.0,0.0,0.0,0.0,0.0,1.7308,1.7974,1.9716,2.0845,2.1155,2.2245,2.283,2.2786,2.2563,2.2717,2.3178,2.2905,2.3274,2.4166,2.5027,2.5751,2.6331,2.6331,2.6244,2.6065,2.5076,2.529,2.6189,2.6039,2.6459,2.7194,2.6393,2.5778,0.0,0.0,2.4167,2.4375,2.4375,2.4668,2.5098,2.5371,2.5586,2.5752,2.6044,2.7012,2.7607,2.6257,2.6468,2.683,2.5734,2.6483,2.8138,3.0734,3.2777,3.5073,3.8287,3.9433,4.0576,4.2925,4.3287,4.2977,4.21,4.2392,4.2039,3.9904,3.9336,3.875,3.7656,3.7598,3.7226,0.0,0.0,0.0,3.8086,3.8359,3.8223,3.7519,3.9085,3.9678,3.8992,4.0498,4.1261,4.1234,4.0806,4.0931,4.158,4.2016,4.2011,4.1555,4.0827,4.04,4.0199,3.9848,3.9697,3.9672,3.9471,3.9069,3.8517,3.7939,3.7387,3.6883,3.6531,3.6405,3.6405,0.0,0.0,0.0,0.0,0.0,0.0,0.0,0.0,0.0,0.0,0.0,0.0,0.0,0.0,0.0,0.0,0.0,0.0,1.6233,1.7891,1.8585,1.7943,1.9377,1.9787,1.8865,1.8637,1.8784,1.9274,1.9287,2.0455,2.2688,2.2673,2.3549,2.5146,2.5146,2.5008,2.4763,2.449,2.4454,2.4444,2.3854,2.3406,2.3003,2.235,0.0,0.0,0.0,0.0,2.314,2.314,2.354,2.4022,2.4132,2.4972,2.6094,2.6937,2.7767,2.7965,2.5755,2.5745,2.5787,2.3458,2.4142,2.6178,2.9139,3.0563,3.2487,3.6944,3.715,3.7436,4.0265,4.1663,4.1649,3.9433,4.0651,4.106,3.8513,3.7414,3.7109,0.0,0.0,0.0,0.0,0.0,0.0,3.7207,0.0,3.709,3.6699,3.8364,3.9126,3.875,3.9924,4.1358,4.296,4.1828,4.1556,4.2213,4.2162,4.153,4.0526,4.0475,4.0199,3.9697,3.9697,3.9672,3.9622,3.9094,3.8517,3.7914,3.7387,3.6883,3.6405,3.6405,3.6405,3.6405,0.0,0.0,0.0,0.0,0.0,0.0,0.0,0.0,0.0,0.0,0.0,0.0,0.0,0.0,0.0,0.0,0.0,0.0,1.5939,1.6764,1.7196,1.7034,1.8032,1.8469,1.8209,1.8568,1.8355,1.7371,1.7555,1.7404,1.703,1.6973,1.764,1.8963,1.8963,1.9405,2.0187,2.0116,2.0781,2.1807,0.0,2.184,2.2719,0.0,0.0,0.0,0.0,0.0,0.0,0.0,0.0,0.0,0.0,2.885,2.8956,2.9466,2.993,2.966,2.6985,2.6999,2.6966,2.397,2.354,2.4744,2.8313,2.9177,3.0341,3.3867,3.3693,3.3633,3.6153,3.8329,0.0,4.0831,4.2587,0.0,4.1597,4.0045,0.0,3.8008,0.0,3.7187,3.6562,3.6504,0.0,0.0,3.6836,3.6777,3.668,3.9538,4.0957,4.0559,4.2924,4.413,4.415,4.2666,4.2022,4.2213,4.1329,4.0777,4.0501,4.0099,3.9823,3.9697,3.9697,3.9471,3.9069,3.8969,3.8291,3.7387,3.7236,3.6883,3.6405,3.6405,3.6405,3.6405,0.0,0.0,0.0,0.0,0.0,0.0,0.0,0.0,0.0,0.0,0.0,0.0,0.0,0.0,0.0,0.0,0.0,0.0,0.0,1.6139,1.638,1.6513,1.686,1.7128,1.7261,1.7462,1.6972,1.5891,1.6,1.5532,1.4604,1.4536,1.5163,1.647,1.647,1.7061,1.809,1.7956,0.0,0.0,0.0,0.0,0.0,0.0,0.0,0.0,0.0,0.0,0.0,0.0,0.0,2.9973,3.123,3.1246,3.0989,3.1749,0.0,3.1041,2.9281,2.8723,2.7971,2.527,2.3831,2.3997,2.7208,2.7801,2.8388,3.115,3.1152,3.1025,3.2204,3.435,3.6587,0.0,0.0,0.0,4.1691,4.0048,3.8691,0.0,3.8144,0.0,3.7012,3.6953,3.6875,0.0,3.6484,3.6387,3.6387,3.964,4.145,4.1181,4.3748,4.4719,4.3915,4.2791,4.2087,4.1781,4.0927,4.04,4.0149,3.9848,3.9697,3.9697,0.0,3.9371,3.8894,3.8592,3.7965,3.7161,3.691,3.6681,3.6405,3.6405,3.6405,3.638,0.0,0.0,0.0,0.0,0.0,0.0,0.0,0.0,0.0,0.0,1.5811,0.0,0.0,0.0,0.0,0.0,0.0,0.0,0.0,0.0,0.0,1.6206,1.5965,1.5952,1.6206,1.6005,1.5483,1.469,1.455,1.4175,1.3621,1.3436,1.4026,0.0,0.0,0.0,0.0,0.0,0.0,0.0,0.0,0.0,0.0,0.0,0.0,0.0,0.0,0.0,0.0,0.0,3.1702,3.2632,3.3534,3.325,3.2873,3.4104,3.3512,3.2305,3.1716,3.0425,2.8809,2.6763,2.4587,2.3553,2.6232,2.649,2.6857,2.8955,0.0,2.9254,2.9026,3.0833,3.3029,3.5024,0.0,3.7939,4.0507,3.8879,3.7891,3.9062,3.8496,3.7871,3.75,3.7422,3.7207,3.6777,3.6348,3.6074,3.6016,3.9257,4.1216,4.1524,4.3468,4.4016,4.2986,4.2414,4.1806,4.1275,4.0701,4.0149,3.9697,3.9697,3.9697,3.9697,3.9697,3.9346,3.8718,3.8216,3.7638,3.7036,3.6606,3.6405,3.6405,3.6405,3.6405,3.6355,0.0,0.0,0.0,0.0,0.0,0.0,0.0,0.0,0.0,0.0,1.5979,1.5784,0.0,0.0,0.0,0.0,0.0,0.0,0.0,0.0,0.0,0.0,1.5811,1.5811,1.5912,1.6099,1.555,1.4231,1.3286,1.2232,1.1002,0.9868,1.0003,0.0,0.0,0.0,0.0,0.0,0.0,0.0,0.0,0.0,0.0,0.0,0.0,0.0,0.0,0.0,0.0,0.0,3.2265,3.4841,3.7643,3.7321,3.6055,3.6979,3.5622,3.354,3.2612,3.1098,2.9253,2.7031,2.4675,2.3498,2.5771,2.5794,0.0,0.0,2.8242,2.8318,2.9343,3.1043,3.3415,3.706,3.7691,3.8657,4.141,3.9806,3.8574,0.0,3.8769,3.8437,3.8359,3.8027,0.0,0.0,3.6797,3.6406,3.6035,3.8807,4.1353,4.329,4.3729,4.3639,4.2986,4.1982,4.1376,4.1275,4.0325,3.9798,3.9697,3.9697,3.9697,3.9697,3.9697,0.0,3.814,3.804,3.7412,3.6531,3.6455,3.6405,3.6405,3.6405,3.6405,3.6405,0.0,0.0,0.0,0.0,0.0,0.0,0.0,1.6059,1.6166,1.646,1.6513,1.6393,1.6099,1.5925,1.5784,0.0,0.0,0.0,0.0,0.0,0.0,0.0,0.0,0.0,0.0,1.5965,1.5345,1.4012,0.0,1.2152,1.0155,0.9477,0.9888,1.1114,1.1757,1.3116,1.4949,1.5534,0.0,1.5811,1.6152,1.6321,0.0,0.0,0.0,0.0,0.0,0.0,0.0,0.0,3.0831,3.3908,3.7154,3.711,3.614,3.7231,3.6014,3.4394,3.4334,3.3019,3.1046,2.868,2.6201,2.4532,2.5087,0.0,0.0,0.0,2.7148,2.7452,2.7925,2.9196,0.0,3.4945,3.5158,3.6295,4.0124,3.8859,0.0,3.8769,3.8496,3.8144,0.0,3.7715,3.7422,3.7012,3.6777,3.6484,3.6035,3.8721,4.139,4.3726,4.379,4.3539,4.2986,4.1882,4.1275,4.1275,4.0224,3.9697,3.9697,3.9697,3.9697,3.9697,3.9697,3.9044,3.804,3.8341,3.7613,3.643,3.6732,3.6656,3.6405,3.6405,3.6405,3.6405,0.0,0.0,0.0,0.0,0.0,0.0,0.0,1.6321,1.642,1.6834,1.7099,1.7032,1.6563,1.6192,1.5917,0.0,0.0,0.0,0.0,0.0,0.0,0.0,0.0,0.0,0.0,0.0,0.0,1.4401,1.4148,0.0,0.0,0.0,0.0,0.0,1.1804,1.321,1.5391,1.5676,1.5824,0.0,0.0,1.6455,0.0,0.0,0.0,0.0,0.0,0.0,0.0,0.0,2.8172,3.0967,3.3719,3.4715,3.5152,3.6331,3.5666,3.4726,3.5527,3.4527,3.2608,2.9935,2.7435,2.5363,2.4496,2.4055,0.0,0.0,2.622,2.668,2.6426,2.7207,2.8913,0.0,3.2027,3.3369,3.7893,3.7305,3.6875,0.0,3.8008,0.0,3.7324,3.7305,0.0,3.6699,3.6504,3.6533,3.673,3.8809,4.1112,4.3526,4.3639,4.3413,4.2986,4.1882,4.1275,4.1275,4.0224,3.9697,3.9697,3.9697,3.9697,3.9697,3.9697,3.912,3.8216,3.8542,3.7839,3.6606,3.6885,3.6782,3.6405,3.6405,3.6405,3.6405,0.0,0.0,0.0,0.0,0.0,0.0,0.0,1.6321,1.6567,1.7395,1.7353,1.7179,1.7125,1.6807,1.6406,0.0,0.0,0.0,0.0,0.0,0.0,0.0,0.0,0.0,0.0,0.0,0.0,1.6087,1.4875,0.0,0.0,0.0,0.0,0.0,0.0,1.2716,1.4172,1.5296,0.0,0.0,0.0,0.0,0.0,0.0,0.0,0.0,0.0,0.0,0.0,0.0,0.0,2.5869,2.7363,3.067,3.4202,3.511,0.0,0.0,3.4687,3.4007,3.2467,2.9547,2.7086,2.5138,2.4448,0.0,0.0,2.5355,2.5752,2.5908,2.6328,2.6484,2.7415,3.001,0.0,3.1642,3.5284,3.5642,3.5976,3.7266,0.0,0.0,3.7305,3.7305,3.7129,3.6699,3.5957,3.6577,3.9048,3.9059,4.029,4.3006,4.3062,4.3037,4.2986,4.1882,4.1275,4.1275,4.0224,3.9697,3.9697,3.9697,3.9697,3.9697,3.9697,3.9346,0.0,3.8291,3.7688,3.7061,3.6656,3.6455,3.6405,3.6405,3.6405,3.6405,0.0,0.0,0.0,0.0,0.0,0.0,1.6233,1.6321,1.6593,1.7462,1.7649,1.7689,1.7689,1.7422,1.686,1.5864,0.0,0.0,0.0,0.0,0.0,0.0,0.0,0.0,0.0,0.0,1.6366,1.6526,1.6017,0.0,0.0,0.0,0.0,0.0,0.0,1.3198,1.5092,0.0,0.0,0.0,0.0,0.0,0.0,0.0,0.0,0.0,0.0,0.0,0.0,0.0,0.0,0.0,2.6154,2.8237,0.0,0.0,3.2972,3.3125,3.4062,3.42,3.3516,3.1017,2.9155,2.7549,2.6158,0.0,2.4598,2.5484,2.5693,2.5752,2.5957,2.5996,2.6504,2.8027,0.0,0.0,3.2266,3.2676,3.3437,3.5488,3.5742,0.0,0.0,0.0,3.6348,3.5937,3.6222,3.7232,3.9031,3.9014,4.0174,4.293,4.2715,4.2539,4.2539,4.1379,4.0852,4.0774,4.0074,3.9697,3.9697,3.9697,3.9697,3.9697,3.9697,3.9371,0.0,3.8617,3.799,3.7161,3.6935,3.6707,3.6405,3.6405,3.6405,3.6405,0.0,0.0,0.0,0.0,0.0,1.5925,1.6233,1.6339,1.6687,1.7475,1.7769,1.7983,1.8102,1.7742,1.7154,1.642,1.6032,0.0,0.0,0.0,0.0,0.0,0.0,0.0,0.0,0.0,1.7266,1.7424,1.7035,1.6061,0.0,0.0,1.3596,1.4107,0.0,0.0,0.0,0.0,0.0,0.0,0.0,0.0,0.0,0.0,0.0,0.0,0.0,0.0,0.0,0.0,0.0,0.0,0.0,0.0,0.0,0.0,3.1328,3.2207,3.3223,3.4101,3.412,3.1661,3.0203,2.892,0.0,0.0,2.5045,2.5594,2.5693,2.5693,2.5693,2.5693,2.5966,0.0,0.0,2.8027,3.0371,3.0801,3.166,0.0,0.0,3.4336,0.0,3.5801,3.6043,3.6124,3.6732,3.7822,3.947,3.9354,4.027,4.268,4.2414,4.2137,4.1907,4.0978,4.0526,4.0501,3.9948,3.9697,3.9697,3.9697,3.9697,3.9697,3.9697,3.9371,0.0,3.8693,3.804,3.7161,3.7059,3.6757,3.6405,3.6405,3.6405,3.6405,0.0,0.0,0.0,0.0,0.0,0.0,1.6233,1.6513,1.6914,1.7502,1.7582,1.7822,1.8424,1.7742,1.7313,1.7542,1.65,0.0,0.0,0.0,0.0,0.0,0.0,0.0,0.0,0.0,1.9185,1.9185,1.7844,1.651,1.5191,1.4918,1.48,1.4776,0.0,0.0,0.0,0.0,0.0,0.0,0.0,0.0,0.0,0.0,0.0,0.0,0.0,0.0,0.0,0.0,0.0,0.0,0.0,2.4677,2.6122,0.0,3.0176,3.1621,3.207,3.3418,3.3985,3.0947,2.9433,2.8179,0.0,0.0,2.4422,2.5459,2.5693,2.5693,2.5693,2.5693,2.5966,2.6875,2.7383,0.0,2.9943,3.0625,0.0,0.0,0.0,3.2695,3.3965,3.5254,3.6495,3.7707,3.7356,0.0,4.1023,4.0263,4.0531,4.2158,4.2213,4.1882,4.13,4.0802,4.0526,4.0501,3.9948,3.9697,3.9697,3.9697,3.9697,3.9697,3.9697,3.9371,0.0,3.8241,3.7688,3.7136,3.6631,3.6405,3.6405,3.6405,3.6405,3.6405,0.0,0.0,0.0,0.0,0.0,0.0,0.0,1.6046,1.6313,1.6901,1.6981,1.7208,1.7809,1.7487,1.7233,1.7326,1.6767,0.0,0.0,0.0,0.0,0.0,0.0,0.0,0.0,0.0,2.0307,1.9822,1.9403,1.8471,1.7116,1.6028,1.5891,1.6369,1.5297,1.5468,0.0,0.0,0.0,0.0,0.0,0.0,0.0,0.0,0.0,0.0,0.0,0.0,0.0,0.0,0.0,0.0,0.0,0.0,0.0,2.6894,2.8203,2.9414,2.9824,3.0762,3.1326,3.0082,2.907,2.8174,2.7454,0.0,2.5683,2.5674,2.5693,2.5693,2.5693,2.5693,2.5966,2.6875,2.7129,0.0,0.0,0.0,0.0,3.1582,3.3008,3.4062,0.0,0.0,3.5645,3.6833,3.7816,3.8889,4.0182,4.0981,4.1668,4.2213,4.143,4.0953,4.0777,4.0224,3.9948,3.9948,3.9772,3.9697,3.9697,3.9697,3.9697,3.9672,3.9295,3.9245,3.932,3.799,3.7563,3.7663,3.6782,3.6405,3.6405,3.6405,3.6405,3.6405,0.0,0.0,0.0,0.0,0.0,0.0,0.0,1.5925,1.6126,1.65,1.654,1.6847,1.7675,1.7288,1.7259,1.7769,1.7341,0.0,0.0,0.0,0.0,0.0,0.0,0.0,1.9505,2.1213,2.1777,2.0993,2.0514,1.9582,1.8315,1.7461,1.721,1.7488,1.6455,1.6304,0.0,0.0,0.0,0.0,0.0,0.0,1.9591,0.0,0.0,0.0,0.0,0.0,0.0,0.0,0.0,0.0,0.0,0.0,0.0,0.0,2.6816,2.7734,2.8476,2.9316,2.9863,2.9434,2.8691,2.7949,0.0,0.0,2.6055,2.5752,2.5693,2.5693,2.5693,2.5693,2.5908,2.666,2.6914,2.7324,0.0,0.0,0.0,3.1152,0.0,0.0,0.0,3.5344,3.6323,3.8152,3.9025,3.9814,4.0668,4.1241,4.153,4.153,4.0877,4.0425,4.0199,3.9873,3.9697,3.9697,3.9697,3.9697,3.9697,3.9697,3.9572,3.9371,3.907,3.8818,0.0,3.7613,3.7262,3.7312,3.6681,3.6405,3.6405,3.6405,3.6405,3.6405,0.0,0.0,0.0,0.0,0.0,0.0,0.0,1.6059,1.6246,1.6246,1.6246,1.666,1.7716,1.7181,1.7261,1.8637,0.0,0.0,0.0,0.0,0.0,0.0,0.0,0.0,2.0843,2.2814,2.3489,2.2642,2.1349,2.0137,1.9058,1.8958,1.8582,1.8009,1.7756,1.7501,0.0,0.0,0.0,0.0,1.7687,1.8551,0.0,0.0,0.0,0.0,0.0,0.0,0.0,0.0,0.0,0.0,0.0,0.0,0.0,0.0,0.0,0.0,0.0,2.8672,2.9199,2.875,2.8027,2.7344,2.6953,0.0,0.0,2.5674,2.5654,2.5654,2.5732,2.5713,2.5849,2.6348,2.6758,2.7305,0.0,2.9062,0.0,0.0,3.2109,0.0,3.5014,3.6247,3.8109,4.0905,4.0584,4.0829,4.2003,4.1078,4.0501,4.045,4.045,4.0199,3.9697,3.9697,3.9697,3.9697,3.9697,3.9697,3.9697,3.9697,3.9396,0.0,3.8818,3.8265,3.7236,3.7161,3.6883,3.6455,3.643,3.6405,3.6405,3.6405,3.6405,3.6405,0.0,0.0,0.0,0.0,0.0,0.0,0.0,0.0,0.0,0.0,1.5939,1.6046,1.6277,1.6567,1.6847,0.0,0.0,0.0,0.0,0.0,0.0,0.0,0.0,0.0,2.1113,2.4152,2.5269,2.428,2.3348,2.2233,2.0914,1.9814,1.8945,1.837,1.8076,1.7769,0.0,0.0,0.0,0.0,1.8708,1.9973,0.0,0.0,0.0,0.0,2.3901,2.441,0.0,0.0,0.0,0.0,0.0,0.0,0.0,0.0,2.5341,2.5497,2.5791,0.0,2.6523,2.6094,2.5566,2.5234,0.0,2.5117,0.0,0.0,0.0,0.0,0.0,2.5957,2.5927,2.6738,2.6953,2.7207,2.7734,0.0,0.0,3.2207,3.2891,3.3791,3.5056,3.5388,3.6763,3.9901,3.9552,3.972,4.0821,4.0651,4.0325,3.9898,3.9898,3.9823,3.9697,3.9697,3.9697,3.9697,3.9697,3.9697,3.9697,3.9697,3.9396,3.8894,3.8391,3.8065,3.7739,3.6958,3.6782,3.6983,3.6581,3.6405,3.6405,3.6405,3.6405,3.6405,0.0,0.0,0.0,0.0,0.0,0.0,0.0,0.0,0.0,0.0,0.0,1.6032,1.6032,1.6553,0.0,0.0,0.0,0.0,0.0,0.0,0.0,0.0,0.0,2.1046,2.1197,2.4597,2.5952,2.4967,2.4763,2.368,2.1752,2.0974,1.9846,1.8477,1.8036,1.7742,1.7582,1.7582,1.7582,1.7687,1.8394,0.0,0.0,0.0,0.0,0.0,2.4152,2.4479,0.0,2.5371,2.543,2.5391,0.0,0.0,0.0,0.0,2.4766,2.4766,2.4766,2.5098,2.5371,2.5137,2.4883,2.4785,2.5067,0.0,0.0,0.0,0.0,0.0,0.0,2.5918,2.6191,2.666,2.7051,0.0,0.0,0.0,3.1289,3.2383,3.2715,3.3718,0.0,3.5935,3.709,4.028,3.9934,3.9898,4.0473,4.0275,3.9998,3.9697,3.9697,3.9697,3.9697,3.9697,3.9697,3.9697,3.9697,3.9697,3.9697,3.9697,3.9245,3.8467,3.814,3.7713,3.7211,3.6656,3.6581,3.6784,3.6531,3.6405,3.6405,3.6405,3.6405,3.6405,0.0,0.0,0.0,0.0,0.0,0.0,0.0,0.0,0.0,0.0,0.0,0.0,0.0,0.0,0.0,0.0,0.0,0.0,0.0,0.0,0.0,0.0,1.9803,2.1246,2.1362,2.4653,2.6117,2.5557,2.5865,2.4726,2.2354,2.2227,2.0888,1.8531,1.8023,1.7742,1.7662,1.7702,1.7689,1.7649,1.7649,0.0,0.0,0.0,0.0,0.0,0.0,0.0,0.0,2.4844,2.5067,2.5086,2.4969,0.0,0.0,0.0,0.0,0.0,2.4394,2.4727,2.5086,2.4949,2.491,2.491,2.491,0.0,0.0,0.0,0.0,0.0,0.0,2.5879,0.0,0.0,0.0,0.0,2.9668,3.0508,3.1269,3.207,3.2226,0.0,3.6889,3.6822,3.7821,4.0935,4.0701,4.04,4.04,3.9948,3.9697,3.9697,3.9697,3.9647,3.9572,3.9572,3.9622,3.9697,3.9521,3.9496,3.9572,3.9471,3.8868,3.7889,0.0,0.0,3.6405,3.6405,3.6405,3.6405,3.6405,3.6405,3.6405,3.6405,3.6355,3.6279,0.0,0.0,0.0,0.0,0.0,0.0,0.0,0.0,0.0,0.0,0.0,0.0,0.0,0.0,0.0,0.0,0.0,0.0,0.0,0.0,0.0,1.7528,1.9876,2.1495,2.2125,2.4969,2.6695,2.7323,2.6719,2.5561,2.3926,2.3242,2.1494,1.8851,1.8758,1.8437,1.7942,1.825,1.821,1.7916,1.7916,0.0,0.0,0.0,0.0,0.0,0.0,0.0,0.0,2.4492,2.4766,2.4988,2.4219,0.0,0.0,0.0,0.0,0.0,2.4316,2.4727,2.4949,2.416,2.3984,2.3984,2.3984,0.0,0.0,0.0,0.0,0.0,0.0,2.6289,2.6621,0.0,0.0,2.8906,0.0,0.0,3.1601,3.2109,0.0,3.3659,3.6036,3.6106,3.7312,4.0414,4.0124,3.9823,3.9823,3.9747,3.9697,3.9697,3.9697,3.9471,3.9045,3.9045,3.922,3.9697,3.8718,3.8517,3.902,3.8492,3.7914,3.7312,0.0,3.6983,3.6405,3.6405,3.6405,3.6405,3.6405,3.6405,3.6405,3.6405,3.6081,3.5558,0.0,0.0,0.0,0.0,0.0,0.0,0.0,0.0,0.0,0.0,0.0,0.0,0.0,0.0,0.0,0.0,0.0,0.0,0.0,0.0,1.8075,1.8303,2.0671,2.2107,2.2308,2.5451,2.75,2.834,2.8231,2.7545,2.6238,2.3594,2.1177,1.8918,1.8758,1.845,1.8009,1.837,1.8317,1.7995,0.0,0.0,0.0,0.0,0.0,0.0,0.0,0.0,0.0,0.0,2.4219,2.4316,2.3906,0.0,0.0,0.0,0.0,0.0,2.3627,2.4043,2.4277,2.3887,2.4316,2.4707,2.4238,2.3965,0.0,0.0,0.0,0.0,0.0,0.0,2.7493,2.8569,0.0,3.0287,3.0427,3.0664,3.1249,0.0,0.0,3.4054,3.692,3.6942,3.7672,3.9892,3.9848,3.9697,3.9697,3.9697,3.9546,3.927,3.9546,3.9421,3.8919,3.8567,3.8542,3.8768,3.8241,3.814,3.8391,3.814,3.7713,3.7186,0.0,3.6933,3.6405,3.6405,3.6405,3.6405,3.6405,3.6405,3.638,3.6031,3.5755,3.5408,0.0,0.0,0.0,0.0,0.0,0.0,0.0,0.0,0.0,0.0,0.0,0.0,0.0,0.0,0.0,0.0,0.0,0.0,0.0,0.0,1.8195,1.8691,2.1248,2.2732,2.2822,2.6027,2.8184,2.9219,2.9551,2.9222,2.8142,2.4043,2.1219,1.9663,1.9061,1.8597,1.8209,1.8571,1.8531,1.8195,0.0,0.0,0.0,0.0,0.0,0.0,0.0,0.0,0.0,0.0,0.0,0.0,0.0,0.0,0.0,2.3218,2.3101,2.312,2.3218,2.3613,2.3906,2.3809,2.4531,2.5156,2.4687,2.4492,2.4473,0.0,0.0,0.0,0.0,2.7238,0.0,2.9769,3.1353,3.2141,3.1233,3.1333,3.2112,3.3579,3.3735,3.4889,3.7675,3.7691,3.8137,3.9594,3.9697,3.9697,3.9697,3.9572,3.9295,3.8894,3.9145,3.9044,3.8542,3.804,3.7939,3.8216,3.7814,3.7688,3.7814,3.7688,3.7387,3.6985,3.6985,3.6807,3.6405,3.6405,3.6405,3.6405,3.6405,3.6329,3.6107,3.5508,3.5307,3.5232,0.0,0.0,0.0,0.0,0.0,0.0,0.0,0.0,0.0,0.0,0.0,0.0,0.0,0.0,0.0,0.0,0.0,0.0,0.0,0.0,1.8009,1.8049,2.1056,2.3211,2.4298,2.6549,2.8457,3.0098,3.0137,2.9793,2.8913,2.4903,2.2617,2.1873,2.0399,1.9386,1.8878,1.9185,1.9132,1.8838,1.8571,0.0,0.0,0.0,0.0,0.0,0.0,0.0,0.0,0.0,0.0,0.0,0.0,0.0,2.3711,2.3218,2.3101,2.3179,2.3633,2.4043,2.4277,2.3887,2.3867,2.4121,2.4891,2.4707,2.4648,2.5421,0.0,0.0,0.0,2.8523,3.0454,3.0926,3.2889,3.4655,3.5324,0.0,3.5523,3.568,3.568,3.617,3.7388,3.753,3.8137,3.9594,3.9697,3.9697,3.9697,3.922,3.8969,3.8919,3.8391,3.7864,3.7312,3.7262,3.7764,3.8844,3.7285,3.6807,3.7236,3.6757,3.6505,3.6455,3.6455,3.6455,3.6405,3.6405,3.6405,3.6405,3.6405,3.6056,3.5483,3.4931,3.4776,3.4655,0.0,0.0,0.0,0.0,0.0,0.0,0.0,0.0,0.0,0.0,0.0,0.0,0.0,0.0,0.0,0.0,0.0,0.0,0.0,1.7876,1.8155,1.8515,2.151,2.3431,2.4076,2.7215,2.957,3.1016,3.1289,3.0498,2.8625,2.6641,2.4788,2.3117,2.1608,2.0687,2.0243,1.9628,1.9092,1.8651,1.8531,1.8196,0.0,0.0,0.0,0.0,0.0,0.0,0.0,0.0,2.2232,2.3315,2.314,2.3198,2.3315,2.314,2.3584,2.4209,2.4372,2.5056,2.5743,2.585,2.5658,2.5396,2.5179,2.5156,2.544,2.6348,2.666,0.0,0.0,0.0,3.2049,3.1624,3.3994,3.5818,3.5578,3.5502,3.5889,3.6765,3.6874,3.7422,3.8764,3.8868,3.9077,3.9645,3.9697,3.9546,3.9195,3.8994,3.8592,3.7888,3.7939,3.7739,3.7186,3.7186,3.7387,3.7814,3.6883,3.6505,3.6707,3.6505,3.6405,3.6405,3.6405,3.6405,3.6405,3.6405,3.6157,3.583,3.5479,3.5203,3.4931,3.4424,3.4198,3.4173,0.0,0.0,0.0,0.0,0.0,0.0,0.0,0.0,0.0,0.0,0.0,0.0,0.0,0.0,0.0,0.0,0.0,0.0,1.7422,1.7729,1.8076,1.8477,2.1112,2.296,2.3861,2.7176,2.966,3.1094,3.168,3.1024,2.9139,2.7904,2.6438,2.4828,2.3078,2.2245,2.2066,2.0544,1.9709,1.9251,1.8589,1.8103,0.0,0.0,0.0,0.0,0.0,0.0,0.0,0.0,2.1525,2.258,2.2994,2.3343,2.3627,2.3627,2.4425,2.5336,2.5336,2.5922,2.655,2.6844,2.6842,2.6579,2.5971,2.6016,2.6516,2.7395,2.7693,2.7941,2.8433,0.0,0.0,0.0,3.5439,3.7196,3.6764,3.6673,3.7049,3.8084,3.819,3.8582,3.9594,3.9546,3.9496,3.9672,3.9371,3.9069,3.8919,3.8592,3.799,3.7211,3.7387,3.7312,3.6935,3.6983,3.6983,3.691,3.6581,3.6405,3.6405,3.6405,3.6405,3.6405,3.6182,3.6107,3.6081,3.5906,3.5629,3.5207,3.4831,3.4625,3.4424,3.4048,3.3897,3.3922,0.0,0.0,0.0,0.0,0.0,0.0,0.0,0.0,1.849,1.849,1.849,0.0,0.0,0.0,0.0,0.0,0.0,0.0,1.7179,1.746,1.7569,1.7582,1.956,2.1705,2.3956,2.6296,2.8407,3.0215,3.1074,3.1289,3.0859,2.844,2.7293,2.72,2.4884,2.4076,2.4374,2.2091,2.1133,2.0907,1.8864,1.805,1.7943,0.0,0.0,0.0,0.0,0.0,0.0,0.0,2.0296,2.1525,2.2731,2.3887,2.4787,2.4787,2.5588,2.6524,2.6524,2.6524,2.6524,2.6524,2.6948,2.7345,2.745,2.7437,2.7695,2.8725,2.9262,2.968,3.0223,3.2198,0.0,3.5228,3.7392,3.9095,3.9597,3.9697,3.9697,3.9697,3.9672,3.9672,3.9697,3.9195,3.9094,3.9647,3.8642,3.8266,3.8818,3.7789,3.7186,3.7186,3.6707,3.6405,3.6405,3.6405,3.6405,3.6405,3.6405,3.6405,3.6405,3.6405,3.6405,3.638,3.578,3.5508,3.5458,3.4906,3.468,3.468,3.47,3.4374,3.3897,3.3897,3.3897,3.3972,0.0,0.0,0.0,0.0,0.0,0.0,0.0,0.0,1.849,1.849,1.849,0.0,0.0,0.0,0.0,0.0,0.0,0.0,1.6834,1.6914,1.7061,1.7326,1.9078,2.0773,2.2339,2.5823,2.8774,3.1133,3.1094,3.0703,2.9961,2.9218,2.8609,2.7946,2.6516,2.5564,2.5016,2.3321,2.2295,2.1671,2.0104,1.9314,1.8921,0.0,0.0,0.0,0.0,0.0,0.0,0.0,0.0,0.0,2.2731,2.3343,2.3757,2.4532,2.5588,2.6648,2.74,2.8211,2.8928,2.9293,0.0,0.0,0.0,2.9014,0.0,0.0,2.9787,3.0312,3.1112,3.2909,0.0,3.4724,3.6751,3.8316,3.8492,3.8868,3.912,3.912,3.8743,3.8668,3.9069,3.8592,3.8341,3.8492,3.8191,3.7914,3.7688,3.7362,3.7059,3.6656,3.648,3.6405,3.6405,3.6405,3.6405,3.6405,3.6405,3.6405,3.6405,3.6405,3.6405,3.638,3.578,3.5508,3.5433,3.4525,3.4148,3.4098,3.3721,3.347,3.337,3.3746,3.3646,3.3395,0.0,0.0,0.0,0.0,0.0,0.0,0.0,0.0,1.8624,1.8504,1.849,1.8517,0.0,0.0,0.0,0.0,0.0,0.0,0.0,1.6593,1.6714,1.7179,1.8292,2.0076,2.2554,2.625,2.8848,3.0234,3.0156,2.9824,2.9316,2.9316,2.9043,2.8501,2.8085,2.7343,2.6454,2.4825,2.3717,2.2808,2.1315,2.0235,1.9271,0.0,0.0,0.0,0.0,0.0,0.0,0.0,0.0,0.0,2.1987,2.3018,2.393,2.4575,2.5768,2.6984,2.7877,2.8778,2.9628,3.0432,3.116,3.1804,3.2211,0.0,0.0,0.0,3.1476,3.2107,3.2868,3.4027,0.0,3.5478,3.6774,3.7764,3.7965,3.8316,3.8517,3.8517,3.8216,3.814,3.8492,3.8015,3.7764,3.799,3.7613,3.7312,3.7186,3.6985,3.6757,3.6405,3.6405,3.6405,3.6405,3.6405,3.6405,3.6405,3.6132,3.6031,3.6031,3.6031,3.6031,3.5981,3.5228,3.4731,3.4525,3.3847,3.3571,3.3545,3.3219,3.3111,3.3162,3.3445,3.337,3.3169,0.0,0.0,1.742,1.7889,0.0,0.0,0.0,0.0,1.8824,1.8531,1.849,1.8384,0.0,0.0,0.0,0.0,0.0,0.0,0.0,0.0,1.663,1.7219,1.775,1.9925,2.385,2.7103,2.8574,2.8242,2.8652,2.8848,2.8809,2.8887,2.8906,2.8887,2.9316,2.8984,2.8033,2.6337,2.5097,2.418,2.2485,2.0893,1.946,1.9007,0.0,0.0,0.0,0.0,0.0,0.0,0.0,0.0,2.0881,2.2766,2.4532,2.4745,2.5962,2.7372,2.7965,2.8568,2.9314,3.0407,3.1537,0.0,3.2943,3.311,3.3147,3.309,0.0,3.4335,3.4909,3.528,3.5834,3.6885,3.7111,3.7337,3.7789,3.7889,3.7939,3.7939,3.7889,3.7864,3.7914,3.7437,3.7312,3.7814,3.6935,3.6631,3.7086,3.6681,3.6405,3.6405,3.6355,3.6329,3.6329,3.6279,3.6254,3.6254,3.5705,3.5433,3.5433,3.5433,3.5408,3.5282,3.4324,3.3596,3.3111,3.3111,3.3111,3.3111,3.3111,3.3111,3.3136,3.3144,3.3162,3.3169,0.0,0.0,1.7609,1.7929,0.0,0.0,0.0,0.0,0.0,1.8531,0.0,0.0,0.0,0.0,0.0,0.0,0.0,0.0,0.0,0.0,1.6874,1.7514,2.0129,2.221,2.3502,2.6085,2.7559,2.7865,2.8223,2.8262,2.7949,2.8613,2.875,2.8437,2.8867,2.8223,2.6777,2.601,2.5188,2.4259,2.3172,2.2302,2.1617,2.0554,1.9157,0.0,0.0,0.0,0.0,0.0,0.0,0.0,2.0612,2.164,2.2435,2.4255,2.5668,2.6857,2.786,2.9144,0.0,3.106,3.239,3.3658,3.4209,3.4311,3.4214,3.3646,3.3574,3.4031,3.5174,3.5472,3.5583,3.5809,3.6634,3.7086,3.6807,3.7086,3.7362,3.7362,3.6985,3.6885,3.7312,3.6908,3.6631,3.6757,3.6531,3.6455,3.6581,3.648,3.6405,3.6405,3.5956,3.5683,3.5683,3.5303,3.5077,3.5077,3.4906,3.4856,3.4856,3.4856,3.463,3.4248,3.3997,3.3596,3.3111,3.3111,3.3111,3.3111,3.3111,3.3111,3.3162,3.3571,3.3445,3.3169,0.0,0.0,0.0,0.0,0.0,0.0,0.0,0.0,0.0,0.0,0.0,0.0,0.0,0.0,0.0,0.0,1.7622,0.0,0.0,0.0,1.7034,1.7769,2.1295,2.3277,2.3293,2.5974,2.7246,2.7051,2.7266,2.748,2.7728,2.8125,2.8203,2.8008,2.8437,2.7676,2.6055,2.5791,2.5187,2.4341,2.3881,2.3054,2.2146,2.152,2.0232,1.8738,1.8612,0.0,0.0,0.0,0.0,0.0,0.0,0.0,2.1551,2.2785,2.4154,2.5617,2.6966,0.0,0.0,3.1313,0.0,3.4048,3.46,3.468,3.462,3.4271,3.4135,3.4274,3.5015,3.5107,3.5107,3.5107,3.5809,3.6207,3.5655,3.6282,3.6684,3.6433,3.6383,3.6531,3.6807,3.6581,3.6405,3.6405,3.6405,3.6405,3.6405,3.6405,3.6405,3.6405,3.583,3.5508,3.5508,3.4956,3.468,3.468,3.4449,3.4198,3.3947,3.4198,3.4022,3.3495,3.3495,3.3345,3.3111,3.3111,3.3111,3.3111,3.3111,3.3111,3.3119,3.3395,3.3319,3.3162,0.0,0.0,0.0,0.0,0.0,0.0,0.0,0.0,0.0,0.0,0.0,0.0,0.0,0.0,1.7836,0.0,0.0,0.0,0.0,0.0,0.0,1.7955,2.1399,2.3216,2.3102,2.5729,2.6885,2.6387,2.6557,2.7051,2.7902,2.7774,2.7728,2.7728,2.7949,2.7168,2.5557,2.5421,2.4894,2.4199,2.4277,2.345,2.2208,2.2282,2.1253,1.9798,1.9798,1.9039,1.801,1.801,0.0,0.0,0.0,0.0,2.1346,2.1569,2.2812,2.445,2.5834,0.0,2.8314,3.144,3.2918,0.0,3.4299,3.4424,3.4424,3.4424,3.4525,3.4575,3.4575,3.4575,3.4575,3.4575,3.5006,3.5207,3.4731,3.5504,3.5956,3.5533,3.5956,3.6304,3.6405,3.6405,3.6405,3.6405,3.6405,3.6355,3.6279,3.6254,3.6229,3.6128,3.5554,3.5207,3.5207,3.468,3.4424,3.4424,3.3972,3.352,3.3136,3.3545,3.3495,3.3111,3.3111,3.3111,3.3111,3.3111,3.3111,3.3111,3.3111,3.3111,3.3111,3.3111,3.3111,3.3111,0.0,0.0,0.0,0.0,0.0,0.0,0.0,0.0,0.0,0.0,1.9445,1.849,0.0,0.0,0.0,1.7326,1.6994,1.6914,1.7192,0.0,0.0,1.7982,1.9983,2.1627,2.2761,2.4085,2.5269,2.6387,2.7077,2.7925,2.8819,2.803,2.7728,2.7708,2.7324,2.6426,2.5117,2.4375,2.3769,2.3296,2.373,2.3524,2.2997,2.3409,2.2539,2.106,2.106,2.0251,1.9268,1.9268,1.9268,0.0,0.0,0.0,2.1525,2.2536,2.374,2.4766,2.4978,0.0,2.9227,0.0,3.2315,3.2591,0.0,0.0,3.3294,0.0,3.3671,3.3997,3.3997,3.3997,3.3997,3.3997,3.4474,3.4756,3.4726,3.4851,3.5102,3.5458,3.5558,3.5855,3.6355,3.6405,3.6405,3.6405,3.6405,3.6157,3.5633,3.5608,3.5382,3.4951,3.4399,3.4123,3.4123,3.3571,3.3294,3.3294,3.3219,3.3144,3.3111,3.3144,3.3187,3.3111,3.3111,3.3111,3.3111,3.3111,3.3111,3.3111,3.3111,3.3111,3.3111,3.3111,3.3111,3.3111,0.0,0.0,0.0,0.0,0.0,0.0,0.0,0.0,0.0,0.0,0.0,1.9921,0.0,0.0,0.0,1.8471,1.7575,1.7058,1.7192,1.7716,1.7995,1.7995,1.9747,2.1117,2.1982,2.3318,2.4381,2.5273,2.5884,2.7064,2.8684,2.8499,2.8564,2.8788,2.8075,2.6769,2.5047,2.416,2.3535,2.312,2.3296,2.3257,2.312,2.3315,2.2928,2.2315,2.2315,2.1525,2.0522,2.0522,2.007,1.9588,2.0116,0.0,0.0,0.0,2.2911,2.3996,2.4617,2.6797,2.9224,0.0,3.1546,3.2365,3.2943,0.0,3.2692,3.3061,3.3018,3.2968,3.2968,3.2968,3.2968,3.2968,3.342,3.3796,3.3796,3.4324,3.47,3.4625,3.5132,3.5583,3.5881,3.6182,3.6279,3.5931,3.5906,3.5655,3.5056,3.5031,3.4931,3.4726,3.4198,3.3897,3.3897,3.3345,3.3111,3.3111,3.3111,3.3111,3.3111,3.3111,3.3111,3.3111,3.3111,3.3111,3.3111,3.3111,3.3111,3.3111,3.3111,3.3111,3.3111,3.3111,3.3111,3.3111,0.0,0.0,0.0,0.0,0.0,0.0,0.0,0.0,0.0,0.0,0.0,0.0,0.0,0.0,0.0,0.0,1.8383,1.7319,1.6978,1.7422,1.7689,1.7822,1.911,2.0317,2.1376,2.2479,2.3487,2.4414,2.5172,2.654,2.8437,2.9125,2.9607,2.9833,2.8831,2.7208,2.5176,2.4199,2.3672,2.3393,2.3179,2.3101,2.3101,2.3101,2.3101,2.3101,2.3101,2.2536,2.1747,2.1747,2.1168,2.0404,2.0404,2.1033,0.0,0.0,0.0,0.0,0.0,0.0,2.8073,2.8967,3.0398,3.1762,0.0,0.0,3.2566,0.0,3.2616,3.2164,3.2039,3.2114,3.2164,3.2014,3.2491,3.2867,3.2867,3.3696,3.4198,3.3922,3.4625,3.5132,3.5282,3.5705,3.578,3.5332,3.5282,3.5056,3.455,3.4525,3.4449,3.4299,3.3897,3.3696,3.3696,3.3294,3.3111,3.3111,3.3111,3.3111,3.3111,3.3111,3.3111,3.3111,3.3111,3.3111,3.3111,3.3111,3.3111,3.3111,3.3111,3.3111,3.3111,3.3111,3.2993,3.2867,0.0,0.0,0.0,0.0,0.0,0.0,0.0,0.0,0.0,0.0,0.0,0.0,2.2695,2.2121,2.1378,2.0588,1.9111,1.7693,1.641,1.6607,1.6901,1.7233,1.7311,0.0,2.0982,2.1081,2.2215,2.4414,2.6033,2.7369,2.8437,3.0027,3.0603,3.0223,2.8979,2.7393,2.5577,2.4336,2.4004,2.4277,2.3413,2.3101,2.3101,2.3101,2.3101,2.3101,2.3101,2.3057,2.2994,2.2994,2.295,2.2906,2.2906,2.295,2.2994,0.0,0.0,0.0,0.0,2.4893,0.0,2.7048,2.8691,0.0,0.0,0.0,3.3043,3.3111,3.2616,3.2064,3.1537,3.1863,3.2039,3.1512,3.1888,3.2265,3.2265,3.2792,3.3345,3.3847,3.3947,3.4198,3.468,3.4801,3.4801,3.4731,3.4731,3.4525,3.3972,3.3947,3.3696,3.3212,3.3187,3.3162,3.3162,3.3093,3.3111,3.3111,3.3111,3.3111,3.3111,3.3111,3.3111,3.3111,3.3111,3.3111,3.3111,3.3111,3.3111,3.3111,3.3111,3.3111,3.3111,3.3111,3.2742,3.234,0.0,0.0,0.0,0.0,0.0,0.0,0.0,0.0,0.0,0.0,0.0,0.0,0.0,2.3271,2.2181,2.2568,2.1296,2.0098,1.9123,1.8592,1.8326,1.8339,1.7603,1.839,2.095,2.0737,2.1735,2.4004,2.4615,2.5706,2.7179,2.8344,2.8785,2.8621,2.8747,2.7631,2.5615,2.4629,2.3965,2.353,2.3218,2.3101,2.3101,2.3101,2.3101,2.3101,2.3101,2.3101,2.3101,2.3101,2.3101,2.3101,2.3101,2.3101,2.3101,2.3101,2.3101,0.0,0.0,0.0,0.0,2.4987,2.6648,2.833,2.8879,2.9393,3.0009,3.0804,3.0743,3.0619,3.0823,3.106,3.111,3.0934,3.106,3.1436,3.2114,3.239,3.2742,3.3294,3.3696,3.3972,3.4173,3.4525,3.4575,3.4223,3.4198,3.3947,3.3395,3.337,3.3294,3.3136,3.3111,3.3111,3.3111,3.3111,3.2893,3.2516,3.2893,3.2893,3.2541,3.2893,3.3111,3.3111,3.3111,3.3111,3.3111,3.3111,3.3111,3.3111,3.3111,3.2842,3.2516,3.2516,3.2164,3.1712,0.0,0.0,0.0,2.8242,0.0,2.7012,2.7012,2.6523,2.6269,2.6562,0.0,0.0,0.0,0.0,2.3573,2.3538,2.2621,2.1622,2.0747,2.0068,1.9514,1.9099,1.8303,1.8831,2.095,2.0605,2.1543,2.3789,2.3789,2.4481,2.5809,2.6506,2.6892,2.7057,2.7482,2.6976,2.5635,2.4785,2.4082,2.3491,2.3218,2.3101,2.312,2.3257,2.3218,2.312,2.3257,2.3218,2.3101,2.3101,2.3101,2.3101,2.3101,2.3101,2.3101,2.3101,2.3101,0.0,2.212,0.0,0.0,0.0,0.0,2.6864,2.7392,0.0,2.82,2.906,2.9028,2.8962,2.9398,2.9649,2.9911,3.0253,3.0482,3.0934,3.1813,3.2396,3.281,3.3079,3.3715,3.403,3.3664,3.3947,3.4022,3.3646,3.3621,0.0,3.3136,3.3111,3.3111,3.3111,3.2893,3.2792,3.2792,3.2591,3.2416,3.2215,3.2416,3.2516,3.2516,3.2692,3.2893,3.3111,3.3111,3.3111,3.3111,3.3111,3.2968,3.2792,3.2792,3.2541,3.219,3.2014,3.1712,3.1386,2.5792,2.7311,2.8281,2.8301,2.7578,2.7012,2.7012,2.6259,2.6005,2.6894,0.0,0.0,0.0,0.0,0.0,2.3553,2.299,2.2215,2.1002,2.0875,2.0395,1.9371,1.9235,1.9787,2.1065,2.0622,2.1513,2.3809,2.3789,2.3984,2.4394,2.4824,2.5254,2.5615,2.5234,2.5293,2.5577,2.4766,2.4394,2.4316,2.3432,2.3101,2.3159,2.3613,2.3516,2.314,2.3613,2.3496,2.3101,2.3101,2.3101,2.3101,2.3101,2.3101,2.3101,2.3101,0.0,0.0,0.0,0.0,0.0,0.0,0.0,0.0,2.6114,0.0,2.796,2.7981,2.7622,2.7242,2.7285,2.7707,2.8426,2.9546,3.0192,3.0783,3.1311,3.2769,3.3625,3.3207,3.4079,3.4262,3.324,3.3111,3.3111,3.3111,3.3111,3.3111,3.3111,3.3111,3.3111,3.3111,3.2516,3.2215,3.2215,3.1662,3.1662,3.219,3.1637,3.1964,3.3043,3.2466,3.2516,3.3043,3.3043,3.3043,3.3043,3.3111,3.2742,3.2215,3.2215,3.219,3.2114,3.1562,3.1361,3.1336,2.677,2.7621,2.793,2.8242,2.7578,2.7012,2.7012,2.6562,2.6289,0.0,0.0,0.0,2.6543,2.6465,2.619,2.5591,2.5408,2.4783,2.3505,2.2924,2.2276,2.1573,2.0045,2.0398,2.2909,2.1542,2.1944,2.4238,2.3945,2.3691,2.3452,2.3945,2.4219,2.4336,2.4512,2.4492,2.4316,2.4062,2.3965,2.3906,2.3315,2.3276,2.3594,2.3354,2.3198,2.312,2.3237,2.3198,2.3101,2.3101,2.3101,2.3101,2.3101,2.3101,2.3101,2.3101,2.3101,0.0,2.2031,0.0,0.0,0.0,0.0,0.0,2.3967,2.4513,2.5122,2.5637,2.5808,2.6088,2.6627,2.6862,2.7058,2.7342,2.8873,3.0331,3.126,3.2458,3.3462,3.4158,3.4511,3.4594,3.4262,3.3556,3.3111,0.0,3.3111,3.3111,3.3111,3.3111,3.3111,3.3111,3.2516,3.2215,3.2215,3.1662,3.1461,3.1612,3.1461,3.1763,3.2441,3.1863,3.1913,3.2466,3.2466,3.2466,3.2491,3.2893,3.2742,3.2215,3.2215,3.1738,3.1035,3.0884,3.0583,3.0231,2.6523,2.754,2.8008,2.8242,2.7871,2.748,2.7324,2.6934,2.6719,0.0,0.0,0.0,2.6641,2.6816,2.6777,2.6426,2.6387,2.5898,2.4766,2.4288,2.364,2.2715,2.144,2.1694,2.3683,2.2484,2.2697,2.4414,2.4004,2.3574,2.3101,2.3398,2.3516,2.3535,2.3725,2.375,2.3516,2.3516,2.3516,2.3516,2.3437,2.3574,2.3809,2.3906,2.3828,2.3647,2.3887,2.3828,2.3608,2.3477,2.3237,2.3101,2.3101,2.3101,2.3101,2.3101,0.0,0.0,0.0,0.0,0.0,2.2478,0.0,0.0,2.3379,2.3457,2.3614,0.0,2.4262,2.4582,2.4978,2.5484,2.5821,2.5997,2.752,2.9084,3.018,3.1869,3.3318,3.4216,3.4941,3.5156,3.4759,3.4121,3.3598,3.3111,3.3111,3.3111,3.3111,3.2612,3.2568,3.3068,3.1801,3.1339,3.1863,3.1336,3.1185,3.1386,3.116,3.1461,3.219,3.1411,3.1361,3.1863,3.1863,3.1863,3.1888,3.224,3.2164,3.1838,3.1637,3.116,3.0583,3.0357,3.0206,3.0105,0.0,2.7289,2.8262,2.834,2.832,2.8184,2.7851,2.7402,2.7266,0.0,2.7148,2.6816,2.7187,2.75,2.7395,2.6523,2.6426,2.5996,2.5106,2.5086,2.4479,2.3153,2.3033,2.3232,2.3754,2.3304,2.35,2.4355,2.4023,2.3613,2.3101,2.3101,2.3101,2.3101,2.3101,2.3101,2.3101,2.3101,2.3101,2.314,2.3613,2.3828,2.3945,2.4695,2.4687,2.4394,2.4727,2.4609,2.4219,2.3848,2.3457,2.3101,2.3101,2.3101,2.3101,2.3101,2.3101,0.0,0.0,0.0,0.0,2.3613,2.3418,0.0,2.3633,2.3418,2.3057,2.2906,2.2994,2.3057,2.2906,2.3823,2.472,2.5093,2.6152,2.7349,2.868,3.1181,3.3106,3.3659,3.5089,3.5654,3.4774,3.4594,3.4121,3.3154,3.3111,3.3025,3.2896,3.1821,3.1733,3.2853,3.081,3.0277,3.1486,3.0959,3.0934,3.1386,3.0859,3.1135,3.2089,3.1009,3.0809,3.1311,3.1311,3.1311,3.1311,3.1311,3.1311,3.126,3.0809,3.0583,3.0457,2.998,3.0105,3.0457,2.6536,2.7383,2.8008,2.8672,2.8516,2.8379,2.8633,2.8027,2.7812,2.8574,2.8535,2.8457,2.8535,2.8008,2.7461,2.6934,2.6582,2.5859,2.4629,2.4863,2.4652,2.3698,2.3238,2.3411,2.4247,2.3772,2.3695,2.3906,2.418,2.3906,2.3101,2.3101,2.3101,2.3101,2.3101,2.3101,2.3101,2.3101,2.3101,2.314,2.3613,2.3984,2.4277,2.4102,2.3984,2.3887,2.3613,2.3413,2.3335,2.3257,2.3159,2.3101,2.3101,2.3101,0.0,2.3101,0.0,0.0,0.0,0.0,0.0,2.3198,2.3159,0.0,2.3198,2.3159,2.2818,0.0,2.2403,2.2818,2.1836,2.2604,2.345,2.3549,2.4792,2.641,2.8407,3.0725,3.2371,3.2929,3.4188,3.4938,3.4718,3.3911,3.3326,3.3111,3.3111,3.2655,3.1645,3.1356,3.1311,3.1533,3.0715,3.081,3.2039,3.1512,3.1286,3.1386,3.0859,3.0934,3.1512,3.0457,3.0256,3.0758,3.0758,3.0758,3.0758,3.0758,3.0758,3.0758,3.0658,3.0357,2.993,2.9829,2.9854,2.993,2.5773,2.7031,2.8047,2.8262,2.8652,2.8926,2.8926,2.9379,2.9648,2.929,2.9238,2.9415,2.9938,2.882,2.7715,0.0,0.0,0.0,0.0,2.4824,2.4734,2.3828,2.3727,2.4003,2.4746,2.4517,2.4279,2.4102,2.4316,2.4236,2.3973,2.3973,2.4253,2.4808,2.4808,2.4467,2.4016,2.4553,2.4268,2.3477,2.3711,2.4043,2.4441,2.4796,2.472,2.4467,2.4556,2.4122,2.3457,2.3457,2.3457,0.0,2.3159,2.3237,2.3418,0.0,2.3101,2.3101,0.0,0.0,0.0,2.3101,2.3101,0.0,0.0,2.3101,2.2775,2.1569,2.2252,2.2555,2.0764,0.0,2.2061,2.1663,2.2234,2.3434,2.5335,2.8321,3.0748,3.1864,3.302,3.3783,3.3859,3.3908,3.3683,3.3154,3.3111,3.2568,3.1267,3.0619,3.0574,3.1178,3.0085,3.0351,3.2173,3.1938,3.1662,3.1386,3.1135,3.1009,3.0984,3.0156,2.9955,3.0206,3.0206,3.0206,3.0206,3.0206,3.0206,3.0206,3.0206,3.003,2.9804,2.9804,2.9804,2.9804,2.5127,2.6622,2.7871,2.7748,2.8628,2.9238,2.8965,3.0221,3.0936,2.9988,3.0158,3.0581,3.1233,2.9899,2.8533,0.0,0.0,0.0,0.0,2.4883,2.459,2.3828,2.4199,2.4512,2.4687,2.4863,2.4687,2.418,2.4258,2.4451,2.4787,2.4787,2.542,2.6524,2.6524,2.5964,2.521,2.6088,2.5657,2.4319,2.4444,2.4566,2.4808,2.5764,2.5701,2.5166,2.5435,2.469,2.3672,2.3769,2.3789,2.375,2.3432,2.3574,0.0,0.0,0.0,0.0,0.0,0.0,0.0,0.0,0.0,2.3198,0.0,0.0,0.0,0.0,0.0,0.0,0.0,0.0,0.0,0.0,0.0,0.0,0.0,2.5539,0.0,3.0163,3.1259,3.2047,3.247,3.3427,3.3752,3.2978,3.2918,3.2315,3.0956,2.9943,2.9715,3.0485,2.9375,2.9792,3.1985,3.2139,3.1855,3.11,3.0975,3.053,2.981,2.9564,2.9482,2.9482,2.9702,2.9804,2.9804,2.9804,2.9854,2.993,2.9829,2.9804,2.9804,2.9804,2.9804,2.9804,2.6195,2.6423,2.6836,2.7591,2.8086,2.8555,2.8867,2.9055,2.9619,3.0677,3.2169,3.2875,3.2177,3.1523,3.0615,2.9319,0.0,0.0,2.6212,2.5117,2.4277,2.3809,2.4199,2.4036,2.3335,2.4102,2.4082,2.3237,2.3672,2.4195,0.0,0.0,0.0,2.6524,2.6524,2.6442,2.6318,2.6442,2.6381,2.6221,2.6705,2.6519,2.5944,2.6079,2.5805,2.521,2.3903,2.333,2.3218,0.0,2.3789,2.3848,0.0,2.4043,2.3848,2.418,0.0,0.0,0.0,0.0,0.0,0.0,2.3711,2.3613,0.0,0.0,2.2775,2.1569,0.0,0.0,0.0,0.0,0.0,0.0,0.0,0.0,2.2033,2.3675,2.5493,2.7195,2.8143,2.9167,3.0553,3.1323,3.1928,3.2265,3.2315,3.1485,2.9693,2.9442,2.8958,2.8049,2.8846,2.9965,3.1304,3.1907,3.1455,2.9972,2.945,2.8392,2.7026,2.7891,2.8307,2.8347,2.9365,2.9804,2.9804,2.9804,3.008,3.0482,2.998,2.9804,2.9804,2.9804,2.9804,2.9804,2.6016,2.6406,2.6797,2.6894,2.748,2.8066,2.8496,2.9928,3.2069,3.5201,3.4484,3.4027,3.4773,3.3202,3.1867,3.1287,3.004,2.8998,2.8301,2.6998,2.5941,2.5272,2.4709,2.4258,2.3842,2.3984,2.3867,2.3516,2.3691,2.4155,0.0,0.0,0.0,2.7441,2.8131,2.8051,2.7504,2.8481,2.8298,2.7377,2.8284,2.8448,0.0,2.7818,2.7411,2.6729,2.4786,2.4082,2.4036,0.0,2.375,0.0,0.0,0.0,0.0,2.4141,0.0,0.0,0.0,0.0,0.0,0.0,0.0,0.0,2.3198,0.0,2.2775,0.0,0.0,0.0,0.0,0.0,0.0,0.0,1.9353,0.0,0.0,0.0,2.1887,0.0,0.0,0.0,2.9858,2.9994,3.0458,3.1646,3.2039,3.1247,2.906,2.9261,2.8866,2.7626,2.8773,2.9624,3.0124,3.0898,3.0414,2.8717,2.8211,2.7455,2.6565,2.7602,2.8084,2.8164,2.9326,2.9804,2.9804,2.9804,2.993,3.0105,2.988,2.998,3.0231,2.9905,2.9804,2.9804,2.5693,2.6181,2.6663,2.6744,2.7352,2.8133,2.9039,3.1085,3.3735,3.7192,3.5649,3.4899,3.6512,3.4804,3.3545,3.3394,3.2277,3.1196,3.0388,2.8986,2.7622,2.6349,2.5503,2.4736,2.4082,2.3887,2.373,2.3613,2.3613,2.4166,0.0,0.0,0.0,0.0,2.9742,2.9673,2.8891,3.0412,3.0121,2.8746,2.969,3.0001,2.979,2.8992,2.8457,2.7844,2.5964,2.5252,2.5147,2.444,2.4625,0.0,2.4306,2.4927,2.5649,0.0,0.0,0.0,2.4683,0.0,0.0,0.0,0.0,0.0,0.0,0.0,0.0,0.0,0.0,0.0,0.0,0.0,0.0,0.0,0.0,1.8596,0.0,0.0,0.0,0.0,0.0,0.0,0.0,2.8101,2.8933,3.0597,3.1249,3.0681,2.8701,2.9104,2.868,2.7125,2.8262,2.8912,2.8912,2.9686,2.918,2.7437,2.7017,2.6363,2.561,2.6707,2.736,2.7723,2.887,2.9507,2.9804,2.9955,3.0105,3.0231,3.0231,3.0482,3.0758,3.0055,2.9804,2.9804,2.5693,2.5713,2.615,2.7336,2.7902,2.89,3.1086,3.2126,3.3149,3.4363,3.5083,3.569,3.6335,3.6335,3.6134,0.0,0.0,3.2818,3.2224,0.0,2.8562,2.6394,2.6613,2.5669,2.3203,2.3574,2.3574,2.312,2.312,2.4231,0.0,0.0,0.0,0.0,3.0884,3.106,3.0578,3.1671,3.1521,3.0563,3.1104,3.1044,3.0398,0.0,2.8108,2.7964,2.683,0.0,0.0,2.6852,2.6988,0.0,0.0,0.0,0.0,0.0,0.0,0.0,0.0,0.0,0.0,2.4609,0.0,0.0,0.0,0.0,2.3652,0.0,0.0,0.0,0.0,0.0,0.0,0.0,0.0,0.0,0.0,0.0,0.0,0.0,0.0,0.0,0.0,2.5273,2.7245,2.8845,2.9517,2.9488,2.8656,2.9104,2.8262,2.582,2.6982,2.7673,2.7673,2.8337,2.7898,2.6351,2.5755,2.4661,2.3256,2.4382,2.5504,2.6607,2.7683,2.8767,2.9829,3.0357,3.0884,3.1336,3.1336,3.1361,3.1235,3.0181,2.9804,2.9804,2.6935,2.7579,2.8028,2.7673,2.8344,2.9744,3.2087,3.3219,3.451,3.653,3.6995,3.7538,3.8467,3.8567,3.8417,0.0,0.0,3.5964,3.5066,3.3315,0.0,3.0215,2.8693,2.7165,2.5628,2.4669,2.4004,2.3574,2.3237,2.4071,2.5915,0.0,0.0,0.0,0.0,3.0583,3.0131,3.121,0.0,0.0,0.0,3.0984,3.0994,0.0,2.9248,2.9067,2.7947,2.7562,0.0,2.6911,2.6889,2.7075,2.7128,2.7679,2.8277,2.769,2.8063,2.8302,0.0,0.0,2.6601,2.5216,0.0,0.0,0.0,0.0,0.0,0.0,0.0,0.0,0.0,0.0,0.0,0.0,0.0,0.0,0.0,0.0,0.0,0.0,0.0,0.0,0.0,0.0,0.0,2.7227,2.8474,2.8545,2.7033,2.8163,2.7893,2.5771,2.6935,2.722,2.6332,2.707,2.6802,2.5504,2.4691,2.4049,2.3599,2.444,2.4999,2.5442,2.6838,2.8117,2.9246,2.9738,3.0294,3.0884,3.0884,3.0884,3.0834,3.0457,3.0331,3.0382,2.8164,2.9235,2.9806,2.9004,3.0057,3.1567,3.3298,3.4434,3.5819,3.7766,3.8015,3.8442,3.9572,0.0,3.9346,0.0,3.8642,3.7839,3.6782,3.5398,0.0,3.2215,3.0579,2.8784,0.0,0.0,0.0,0.0,2.3815,2.4687,2.6195,2.6809,0.0,0.0,0.0,3.0583,3.0156,3.1235,3.1361,0.0,0.0,3.0708,0.0,0.0,3.003,3.0227,0.0,2.8688,2.8633,2.812,2.8117,2.8361,2.8395,2.9077,2.9741,2.8991,2.9398,2.9738,2.8392,2.7828,0.0,2.6054,2.5172,0.0,2.4102,0.0,2.4121,0.0,0.0,0.0,0.0,0.0,0.0,0.0,0.0,0.0,0.0,1.8457,0.0,0.0,0.0,0.0,0.0,0.0,2.4971,2.5819,2.7409,2.7869,0.0,2.7921,2.7904,2.6408,2.6716,2.6524,2.5693,2.6194,2.6,2.5106,2.4355,2.3926,2.3814,2.4089,2.4425,2.4851,2.5871,2.7182,2.8695,2.9368,3.0014,3.0683,3.126,3.1235,3.0859,3.0683,3.0733,3.0959,2.937,3.0463,3.1359,3.1383,3.2774,3.4098,3.465,3.5655,3.6807,3.7814,3.804,3.8492,3.9572,3.9245,3.9145,3.9647,3.922,3.8492,3.7337,3.6807,0.0,0.0,3.2263,3.0466,2.6858,0.0,0.0,0.0,0.0,0.0,2.733,0.0,0.0,0.0,3.116,0.0,3.0633,3.1712,3.1838,3.126,3.0783,3.0306,2.9854,2.9804,3.0457,3.126,3.0181,2.9804,2.988,3.0407,3.0583,3.0583,3.0489,3.1254,3.1769,2.9656,3.0092,3.0927,2.9328,2.8307,2.7568,2.7079,2.5999,0.0,0.0,0.0,2.4988,0.0,0.0,0.0,0.0,0.0,0.0,0.0,0.0,0.0,0.0,0.0,0.0,0.0,0.0,0.0,0.0,2.2378,2.358,2.4617,2.6212,2.7337,0.0,0.0,2.8156,2.7489,2.6332,2.5693,2.5693,2.5693,2.5527,2.5145,2.4668,2.4238,2.3828,2.3379,2.3711,2.4744,2.4744,2.6027,2.8163,2.9249,3.008,3.0809,3.239,3.234,3.1361,3.0884,3.1009,3.1512,3.0781,3.2047,3.333,3.3752,3.3851,3.4098,3.465,3.5655,3.6656,3.7312,3.8492,3.9371,3.9672,3.9923,3.9998,3.9722,3.9572,0.0,0.0,0.0,0.0,3.5382,3.3906,3.2347,3.0717,2.8522,2.6936,2.5908,0.0,0.0,2.7758,0.0,0.0,0.0,0.0,3.0884,3.008,3.116,3.106,3.0181,3.0055,3.0407,3.0884,0.0,3.0457,3.126,3.0181,2.9804,2.9804,2.9955,3.0281,3.0653,3.1058,3.1614,3.2164,3.205,3.2271,3.2302,3.0924,2.9761,2.8683,2.7666,2.6222,2.5086,0.0,0.0,0.0,0.0,0.0,0.0,0.0,0.0,0.0,0.0,0.0,0.0,0.0,0.0,0.0,1.7358,0.0,1.9633,1.9935,2.2176,2.3609,2.3537,2.4742,2.5272,2.4873,0.0,0.0,2.5764,2.5691,2.5693,2.5693,2.5693,2.5635,2.5566,2.5117,2.4891,2.4754,2.3965,2.3791,2.4038,2.4038,2.5355,2.7569,2.8143,2.9498,3.1235,3.1662,3.1888,3.1989,3.1863,3.1888,3.2089,3.2321,3.3405,3.4424,3.4931,3.5027,3.5152,3.5705,3.6332,3.7059,3.7814,3.8743,0.0,3.932,3.9823,4.0023,3.9722,3.9697,0.0,3.8969,0.0,0.0,3.6807,3.4979,3.3421,3.2192,2.9943,0.0,2.743,0.0,2.7532,2.8737,0.0,0.0,0.0,0.0,3.0708,3.0206,3.1035,3.1035,3.0482,3.0231,3.0357,0.0,3.003,3.0156,3.0608,3.0005,2.9804,2.9829,3.008,3.0507,3.1035,3.1587,3.2139,3.2641,3.2993,3.3111,3.2939,3.2239,3.1134,2.9897,2.868,2.7296,2.6046,2.5495,2.5352,2.5293,0.0,2.5039,2.4969,0.0,0.0,0.0,0.0,0.0,0.0,0.0,0.0,0.0,0.0,1.878,1.9497,1.9497,2.1923,2.3354,2.312,2.4168,2.474,0.0,0.0,0.0,2.5865,2.5777,2.5693,2.5693,2.5693,2.5693,2.5693,2.5273,2.5106,2.5086,2.4375,2.4062,2.4062,2.4062,2.5248,2.7267,2.8005,2.9385,3.111,3.1562,3.2089,3.2591,3.2591,3.2591,3.2641,3.3776,3.4449,3.4931,3.5408,3.6107,3.6807,3.7312,3.7462,3.7864,3.8894,0.0,3.9094,3.9094,3.9446,3.9697,3.9697,3.9697,3.9496,3.907,3.8366,3.7789,3.7312,3.5705,3.4099,3.256,3.1212,2.9843,0.0,2.8701,2.9112,2.978,0.0,0.0,0.0,0.0,0.0,0.0,3.111,3.1235,3.1135,3.0683,3.0231,2.9804,2.9804,2.9804,2.9804,2.9804,2.9804,2.9854,3.0357,3.0859,3.1386,3.1938,3.2491,3.2993,3.3086,3.3111,3.3111,3.3111,3.2152,3.0956,2.9897,2.8727,2.7484,2.6255,2.5926,2.579,2.5644,2.5293,2.4961,0.0,0.0,0.0,0.0,0.0,0.0,0.0,0.0,0.0,0.0,0.0,0.0,1.9497,2.1676,2.3101,2.3101,2.3996,0.0,0.0,0.0,0.0,2.6551,2.5964,2.5635,2.5693,0.0,2.5654,2.5644,2.5254,2.5106,2.5106,2.4551,2.4355,2.4414,2.4297,2.5238,2.6969,2.8141,2.9371,3.0667,3.1664,3.2276,3.2612,3.2785,3.2853,3.2896,3.453,3.4981,3.5382,0.0,3.6759,3.7914,3.8492,3.8969,3.932,3.9521,3.9948,4.0224,4.0224,3.9898,3.9697,3.9697,3.9697,0.0,0.0,0.0,0.0,3.7864,3.6235,3.5015,3.4259,3.2188,3.0944,3.0673,2.9432,2.9071,2.9653,0.0,0.0,0.0,0.0,0.0,3.0633,3.0708,0.0,3.0055,2.998,2.988,2.9804,2.9804,2.9804,2.9804,2.9804,2.9804,2.9804,2.9905,3.0306,3.0834,3.1361,3.1913,3.2466,3.2943,3.3111,3.3111,3.3111,3.2152,3.1134,3.0956,2.9988,2.8773,2.7531,2.6978,2.6428,2.5413,2.4824,2.4434,2.4082,0.0,0.0,0.0,0.0,0.0,0.0,0.0,0.0,0.0,0.0,1.9497,1.9497,2.1676,2.3101,2.3101,0.0,0.0,0.0,0.0,0.0,0.0,2.5102,0.0,0.0,0.0,2.5547,2.5176,2.5145,2.5106,2.5086,2.4258,2.4082,2.4375,2.3627,2.4247,2.5806,2.7059,2.8711,3.0505,3.1105,3.0817,3.0192,3.1178,3.1533,3.1689,3.5107,0.0,0.0,0.0,0.0,0.0,0.0,3.9772,3.9923,3.9346,3.9245,3.922,3.922,3.9496,3.9697,3.9697,3.9697,3.9697,3.9697,3.8642,3.8015,3.8015,3.6386,3.5232,3.4726,3.3024,3.2196,3.2196,3.0807,3.0269,3.0514,0.0,0.0,0.0,0.0,3.0934,0.0,0.0,0.0,3.0583,3.0005,2.9804,2.9804,2.9804,2.9804,2.9804,2.9804,2.9804,2.9804,2.9804,3.0156,3.0708,3.1235,3.1763,3.2315,3.2893,3.3111,3.3111,3.3111,3.2655,3.1948,3.1021,3.0379,2.9531,2.7981,2.7471,2.7005,2.5844,2.5427,2.5007,2.4002,2.3437,0.0,0.0,0.0,0.0,0.0,0.0,2.0206,0.0,0.0,0.0,0.0,0.0,0.0,0.0,0.0,0.0,0.0,0.0,0.0,0.0,0.0,0.0,0.0,0.0,0.0,2.5106,2.5106,2.4941,2.4727,2.4531,2.457,2.4746,2.4524,2.5097,2.6169,2.7437,2.874,2.9937,3.0167,2.9897,2.9442,3.0033,3.0664,3.1356,3.5683,3.5759,0.0,0.0,3.7839,3.8617,3.9396,4.0099,4.0249,3.9496,3.8793,3.8417,3.8517,3.922,3.9697,3.9697,3.9697,3.9697,3.9697,3.8642,3.8015,3.8015,3.6533,3.5408,3.4856,3.3822,3.3194,3.3111,3.1938,3.1336,3.121,0.0,0.0,0.0,0.0,0.0,0.0,0.0,3.0783,3.0984,3.0131,2.9804,2.9804,2.993,2.9905,2.9829,3.0055,3.0055,2.998,3.0105,3.0256,3.0557,3.1185,3.1612,3.2014,3.2692,3.2893,3.2918,3.3086,3.3111,3.2753,3.1355,3.0975,3.0553,2.8847,2.8292,2.7786,2.6417,2.5778,2.5125,2.4008,2.3516,0.0,0.0,0.0,0.0,0.0,0.0,0.0,0.0,0.0,0.0,2.1302,0.0,0.0,0.0,0.0,0.0,2.3101,0.0,0.0,0.0,0.0,2.5195,2.5693,0.0,2.5508,2.5106,2.5028,2.4805,2.4551,2.4727,2.4949,2.5125,2.5332,2.5939,2.684,2.7932,2.8651,2.9004,2.9004,2.8866,2.8634,2.8912,2.9624,3.0643,0.0,0.0,0.0,0.0,0.0,3.9396,3.9019,3.9848,4.0651,4.1,4.0199,3.9722,4.0224,3.9923,3.9697,3.9697,3.9697,3.9697,3.9697,3.8642,3.8015,3.8015,3.691,3.6031,3.5433,3.4374,3.3571,0.0,3.1938,3.116,0.0,0.0,0.0,0.0,0.0,0.0,0.0,3.0457,3.0357,2.993,2.9829,2.9804,2.9854,3.0357,3.0231,2.993,3.0884,3.0934,3.0608,3.1085,3.0633,3.0055,3.106,3.111,3.0959,3.1989,3.229,3.2416,3.2943,3.3111,3.3068,3.2864,3.2864,3.2513,3.1168,3.0213,2.8974,2.6752,2.4751,2.3448,2.3775,2.375,2.373,0.0,0.0,0.0,0.0,0.0,2.1302,2.1302,0.0,0.0,0.0,2.2403,0.0,0.0,2.3101,0.0,0.0,0.0,0.0,2.4394,0.0,2.4883,2.5674,2.5693,2.5508,2.5106,2.4668,2.4668,2.5028,2.4238,2.4336,2.5106,2.4687,2.5424,2.6907,2.7488,2.7725,2.7767,2.7767,2.7078,2.6207,2.7363,2.7814,2.8096,0.0,0.0,0.0,0.0,0.0,0.0,0.0,3.9747,4.0099,4.0325,3.9973,3.9772,3.9998,3.9823,3.9697,3.9697,3.9697,3.9697,3.9697,3.8642,3.8015,3.8015,3.696,3.6107,3.5508,3.4731,3.4123,0.0,0.0,0.0,0.0,0.0,0.0,0.0,0.0,3.0658,3.0758,3.0984,3.0959,3.0758,3.0758,3.0758,3.0733,3.0658,3.0482,3.0306,3.0407,3.0507,3.0658,3.0859,3.0859,3.0834,3.126,3.1461,3.1662,3.2089,3.2466,3.2792,3.3018,3.3111,3.2993,3.2641,3.2566,3.2339,3.1501,3.0778,2.9639,2.7363,2.5422,2.4186,2.437,2.4591,2.4693,2.4451,0.0,0.0,0.0,0.0,0.0,2.2403,0.0,2.2403,0.0,0.0,0.0,0.0,0.0,0.0,0.0,0.0,0.0,2.4394,0.0,2.4844,2.5674,2.5693,2.5371,2.4668,2.4492,2.4375,2.4343,2.4199,2.4648,2.5449,2.5245,2.5531,2.6167,2.6348,2.6476,2.6476,2.6476,2.6159,2.5791,2.6304,2.6935,2.7673,3.9938,0.0,4.0361,0.0,4.0689,4.0252,3.9752,3.9697,3.9697,3.9697,3.9697,3.9697,3.9697,3.9697,3.9697,3.9697,3.9697,3.9622,3.9471,3.8542,3.7939,3.7764,3.6908,0.0,3.578,3.5077,3.4449,3.3897,3.3345,0.0,0.0,0.0,0.0,0.0,3.0758,3.0909,3.1386,3.1235,3.126,3.1386,3.1235,3.126,3.1361,3.116,3.0984,3.0834,3.0783,3.0909,3.111,3.1286,3.1587,3.1838,3.1486,3.1662,3.2014,3.2164,3.2516,3.2867,3.3043,3.3111,3.2993,3.2566,3.2466,3.2365,3.1989,3.1336,3.0154,2.7752,2.6194,2.525,2.5207,2.5541,2.5708,2.5227,0.0,0.0,0.0,2.332,0.0,0.0,2.3101,2.3101,2.3101,2.3101,0.0,0.0,0.0,0.0,0.0,0.0,0.0,0.0,0.0,0.0,2.5674,2.5693,2.5382,2.4805,2.4668,2.4512,2.4375,2.4668,2.5089,2.5693,2.5693,2.5693,2.5693,2.5693,2.5693,2.5693,2.5693,2.5693,2.5693,2.5693,2.6304,2.703,4.0531,4.1795,4.243,4.1732,4.1591,4.1143,3.9878,3.9697,3.9697,3.9697,3.9697,3.9697,3.9697,3.9697,3.9697,3.9697,3.9697,3.9471,3.8919,3.8341,3.7764,0.0,0.0,3.6405,3.6405,3.5278,3.4449,3.3897,0.0,0.0,3.1386,0.0,3.1185,3.2139,3.1085,3.0909,3.1361,3.0834,3.0909,3.1336,3.0834,3.0934,3.1461,3.1989,3.1863,3.1537,3.2641,3.2667,3.229,3.2842,3.3043,3.291,3.1738,3.1386,3.1512,3.2064,3.2215,3.234,3.2918,3.3111,3.3111,3.3111,3.3111,3.3111,3.3068,3.219,3.0573,2.7713,2.6671,2.6262,2.6104,2.6526,2.6718,2.6166,0.0,0.0,0.0,2.3789,0.0,2.314,2.3101,2.3101,2.3101,2.3101,0.0,0.0,0.0,0.0,0.0,0.0,0.0,2.4394,2.4414,0.0,2.5674,2.5693,2.5674,2.5674,2.5273,2.5293,2.5674,2.5674,2.5674,2.5693,2.5693,2.5693,2.5693,2.5693,2.5693,2.5693,2.5693,2.5693,2.5693,2.5693,2.5693,2.5742,4.216,4.2274,4.2135,4.2807,4.2181,4.1169,3.9878,3.9697,3.9697,3.9697,4.0465,4.0969,4.0969,4.0211,3.9697,0.0,3.9697,3.9622,0.0,3.8542,3.7914,3.7739,3.7617,3.754,3.754,3.6467,3.5835,3.5652,0.0,0.0,0.0,3.1788,3.1888,3.219,3.1863,3.2014,3.2541,3.2365,3.239,3.2516,3.2365,3.239,3.2516,3.229,3.2114,3.1964,3.1938,3.2039,3.219,3.1989,3.2483,3.2943,3.219,3.2215,3.2491,3.2265,3.2491,3.2842,3.3061,3.3111,3.3111,3.3111,3.3111,3.3111,3.3111,3.1288,2.9259,2.7935,2.6866,2.6417,2.7195,2.7721,2.821,2.8551,2.734,0.0,2.5142,0.0,2.3633,2.314,2.3101,2.3101,2.3101,2.3101,0.0,0.0,0.0,0.0,0.0,0.0,0.0,0.0,2.4707,0.0,2.5674,2.5693,2.5586,2.5273,2.5184,2.5184,2.5293,2.5557,2.5693,2.5693,2.5693,2.5693,2.5693,2.5693,2.5693,2.5693,2.5693,2.5693,2.5693,2.5693,2.5693,2.5693,4.2334,4.2544,4.2398,4.2738,4.2133,4.1169,3.9878,3.9697,3.9697,3.9697,4.0415,4.1069,4.1541,4.0895,0.0,4.0415,3.9778,3.9626,4.0107,3.9007,3.8367,3.8415,3.8655,3.8559,3.8107,3.7668,0.0,3.7053,3.4793,3.3293,3.2541,3.2315,3.2315,3.2516,3.2315,3.2541,3.3111,3.2842,3.2867,3.3068,3.2842,3.2893,3.3086,3.2667,3.2541,3.2491,3.2139,3.224,3.2491,3.2139,3.2491,3.3018,3.2641,3.2792,3.3061,3.2641,3.2792,3.3111,3.3111,3.3111,3.3111,3.3111,3.3111,3.3061,3.2792,3.1148,2.9527,2.8955,2.8055,2.7516,2.8054,2.8209,2.8476,2.9216,2.7735,2.6336,2.5923,0.0,2.3809,0.0,0.0,0.0,0.0,2.3237,2.3276,0.0,0.0,0.0,0.0,0.0,0.0,2.4414,2.4844,0.0,2.5693,2.5693,2.5557,2.5312,2.5312,2.5312,2.5332,2.5605,2.5771,2.5977,2.5752,2.5791,2.5977,2.5752,2.5693,2.5693,2.5693,2.5693,2.5693,2.5693,2.5693,2.5693,4.138,4.2496,4.2882,4.1789,4.1541,4.1069,3.9878,3.9697,3.9697,3.9697,3.9826,4.0415,4.1591,4.1762,4.1785,4.1887,0.0,0.0,4.0698,3.9544,3.8932,3.9183,3.9642,3.9404,3.8379,3.8863,3.8726,3.7813,3.5746,3.4163,3.3111,3.2516,3.2566,3.3086,3.2516,3.2566,3.3043,3.2491,3.2591,3.3043,3.2491,3.2591,3.3111,3.3111,3.3111,3.3111,3.3111,3.3111,3.3111,3.3111,3.3111,3.3111,3.3111,3.3111,3.3111,3.3111,3.3111,3.3111,3.3111,3.3111,3.3111,3.3111,3.3111,3.2943,3.239,3.1717,3.108,3.0561,2.9847,2.9124,2.8723,2.8074,2.7853,2.8656,2.7077,2.5944,2.6343,2.5224,2.4062,0.0,0.0,0.0,2.314,2.3555,2.3633,0.0,0.0,0.0,0.0,0.0,2.4062,2.4453,2.4883,2.5312,2.5693,2.5693,2.5693,2.5693,2.5693,2.5693,2.5693,2.5693,2.5977,2.6367,2.5869,2.5996,2.6348,2.5869,2.5693,2.5693,2.5693,2.5693,2.5693,2.5693,2.5693,2.5693,0.0,0.0,4.0794,4.1468,4.0794,4.0032,3.9749,3.9697,3.9697,3.9697,4.1419,4.2738,4.3026,4.3464,4.3934,4.446,4.1956,4.0406,4.0649,3.8711,3.8444,4.025,4.0041,4.0189,4.076,4.05,3.8962,3.6171,3.5186,3.4163,3.3111,3.2943,3.2943,3.3111,3.2943,3.2943,3.3111,3.2943,3.2943,3.3111,3.2918,3.2943,3.3111,3.3111,3.3111,3.3111,3.3111,3.3111,3.3111,3.3111,3.3111,3.3111,3.3111,3.3111,3.3111,3.3111,3.3111,3.3111,3.3111,3.3111,3.3111,3.3111,3.3111,3.3043,3.2893,3.201,3.1175,3.1012,2.942,2.8287,2.9079,2.8337,2.8287,3.0256,2.8333,2.6844,2.7591,2.5544,2.373,0.0,2.3437,2.3633,2.3633,2.373,2.3887,0.0,0.0,0.0,0.0,2.459,2.4851,2.4902,2.5352,2.5577,2.5693,2.5693,2.5693,2.5693,2.5693,2.5693,2.5693,2.5693,2.5977,2.6367,2.5869,2.5996,2.6348,2.5869,2.5693,2.5693,2.5693,2.5693,2.5693,2.5693,2.5693,2.5693,4.0489,4.016,3.9929,4.0592,4.0185,3.9697,3.9697,3.9697,3.9697,3.9697,4.1133,4.2378,4.2995,4.3591,4.4106,4.4451,4.2187,4.0992,4.1531,4.0118,3.9663,4.0697,4.1185,4.1491,4.1587,4.1831,4.0504,3.7524,3.6877,3.5873,3.4526,3.4526,3.4262,3.3827,3.3827,3.3556,3.3111,3.3111,3.3111,3.3111,3.3111,3.3111,3.3111,3.3111,3.3111,3.3119,3.337,3.3445,3.3445,3.3445,3.3445,3.3445,3.3445,3.3294,3.3162,3.337,3.3269,3.3111,3.3111,3.3111,3.3111,3.3111,3.3111,3.3111,3.3111,3.2568,3.2064,3.2064,3.0553,2.9325,2.9594,2.8679,2.8237,2.9349,2.7768,2.6491,2.6911,2.5139,2.3711,2.3457,2.3652,2.3867,2.4062,2.4258,2.4394,2.4414,2.459,0.0,2.4707,2.5137,2.5273,2.5125,2.5703,2.6035,2.6035,2.6035,2.6035,2.6035,2.5791,2.5791,2.6035,2.6035,2.6387,2.6934,2.6309,2.6269,2.6621,2.5947,2.5693,2.5693,2.5693,2.5693,2.5693,2.5693,2.5693,2.5693,3.9597,3.9697,3.9697,3.9697,3.9697,3.9697,3.9697,3.9697,3.9697,3.9697,4.0253,4.1106,4.2359,4.2951,4.3329,4.3415,4.2018,4.1546,4.2582,4.1649,4.1071,4.1175,4.2361,4.267,4.1864,4.2613,4.1991,3.9794,3.9034,3.7831,3.6212,3.6212,3.5654,3.4718,3.4718,3.4121,3.3111,3.3111,3.3111,3.3111,3.3111,3.3111,3.3111,3.3111,3.3162,3.3269,3.3746,3.3947,3.4022,3.4022,3.4022,3.4022,3.4022,3.3646,3.3294,3.3771,3.3571,3.3194,3.3093,3.3187,3.3194,3.3194,3.3269,3.3319,3.3319,3.3269,3.3219,3.3294,3.2206,3.1031,3.0556,2.9189,2.8109,2.801,2.6587,2.5543,2.5708,0.0,2.3711,2.3789,2.3848,2.4043,2.4473,2.4902,2.5019,2.4648,2.5265,2.5605,2.5341,2.5625,2.5684,2.5419,2.6035,2.6426,2.6484,2.6484,2.6484,2.6484,2.6113,2.6133,2.6484,2.6484,2.6914,2.7669,2.6836,2.668,2.6953,2.6172,2.5752,2.5693,2.5693,2.5693,2.5693,2.5693,2.5693,2.5693,3.9597,3.9697,3.9697,3.9697,3.9697,3.9697,3.9697,3.9697,3.9697,3.9697,4.0303,4.1202,4.2359,4.2628,4.2955,4.3502,4.3165,4.2743,4.2467,4.0079,3.9929,4.2777,4.2252,4.2234,4.3021,4.2175,4.1074,3.9794,3.8534,3.7366,3.6212,3.6212,3.5654,3.4718,3.4718,3.4121,3.3111,3.3111,3.3111,3.3111,3.3111,3.3111,3.3111,3.3111,3.337,3.3796,3.3872,3.4198,3.46,3.46,3.46,3.46,3.46,3.4223,3.3796,3.3872,3.3847,3.3671,3.3194,3.342,3.3771,3.3771,3.4123,3.4474,3.4474,3.4098,3.3897,3.4374,3.2719,3.1463,3.2322,2.9855,2.8168,2.9557,2.6879,2.4993,2.6044,0.0,2.3379,2.375,2.4102,2.4492,2.4969,2.5371,2.5557,2.5479,2.5615,2.5879,2.6172,2.625,2.6426,2.6699,2.6504,2.6562,2.6914,2.6914,2.6914,2.6914,2.6855,2.6855,2.6914,2.6914,2.7187,2.7689,2.7129,2.6953,2.6973,2.6484,2.6074,2.5693,2.5693,2.5693,2.5693,2.5693,2.5693,2.5693,3.8743,3.8793,3.8793,3.8793,3.8793,3.8894,3.9195,3.8994,3.8894,3.922,4.011,4.0707,4.0568,4.1459,4.1923,4.1636,4.1511,4.1354,4.1055,4.0972,4.1337,4.2345,4.2467,4.2602,4.2821,4.2261,4.1343,4.0106,3.9517,3.8931,3.8485,3.8485,3.7919,3.6896,3.6293,3.5272,3.3911,3.3368,3.3244,3.3495,3.3194,3.3244,3.352,3.352,3.3671,3.3972,3.4575,3.4906,3.5132,3.5132,3.5132,3.5132,3.5132,3.4731,3.4399,3.47,3.4374,3.3897,3.3947,3.4148,3.4349,3.4349,3.4525,3.468,3.468,3.4525,3.4424,3.4675,3.3826,3.3116,3.3218,3.1852,3.0773,3.0633,2.8628,0.0,0.0,2.5375,2.438,2.4487,2.4863,2.5293,2.5742,2.6172,2.6426,2.6426,2.6426,2.6504,2.6719,2.6719,2.6914,2.7344,2.7168,2.7285,2.7695,2.748,2.7363,2.7363,2.7129,2.7129,2.7363,2.7363,2.7598,2.7988,2.7559,2.7226,2.6992,2.6797,2.6328,2.5713,2.5996,2.5937,2.5693,2.5693,2.5693,2.5693,3.799,3.8015,3.8015,3.8015,3.8015,3.8165,3.8592,3.8291,3.8165,3.8617,3.9402,3.9642,3.8978,4.0041,4.0419,3.9579,3.9711,3.9754,3.9492,4.1657,4.2508,4.1629,4.267,4.309,4.265,4.2321,4.1662,4.0636,4.0487,4.0397,4.0397,4.0546,4.0052,3.8995,3.8178,3.6933,3.542,3.434,3.415,3.4463,3.3752,3.3721,3.4098,3.4098,3.4173,3.4399,3.5182,3.5583,3.5683,3.5683,3.5683,3.5683,3.5683,3.5307,3.4956,3.5382,3.4906,3.4349,3.465,3.4781,3.4881,3.4881,3.5002,3.5102,3.5102,3.5002,3.4951,3.5077,3.4901,3.4583,3.4219,3.3744,3.2959,3.1821,0.0,0.0,0.0,2.6343,2.5533,2.5259,2.5527,2.5849,2.6348,2.6855,2.7129,2.7031,2.7109,2.7168,2.7168,2.7168,2.7363,2.7845,2.7812,2.7969,2.8281,2.7969,2.7812,2.7865,2.7461,2.748,2.7812,2.7812,2.7988,2.8281,2.7949,2.75,2.7031,2.7129,2.666,2.5918,2.625,2.6191,2.583,2.5732,2.5693,2.5693,3.7914,3.8015,3.8015,3.8015,3.8015,3.8015,3.8065,3.804,3.8015,3.8065,3.7684,3.7807,3.8792,3.8588,3.8334,3.8243,3.9271,3.9404,3.8289,4.0419,4.167,4.1587,4.267,4.326,4.323,4.2073,4.1452,4.1362,4.0696,4.0397,4.0397,4.1025,4.0769,3.9708,3.9629,3.9001,3.7883,3.6706,3.6286,3.6209,3.5022,3.4625,3.463,3.463,3.4931,3.5382,3.5458,3.5881,3.6355,3.6355,3.6355,3.6355,3.6355,3.5931,3.5458,3.5483,3.5433,3.5282,3.4806,3.5056,3.5433,3.5433,3.5855,3.6279,3.6279,3.5855,3.5583,3.6179,3.5429,3.5006,3.6013,3.4381,3.3053,3.3458,0.0,0.0,2.8439,2.7129,2.6078,2.5731,2.5674,2.5849,2.6348,2.7129,2.7461,2.7051,2.7383,2.7669,2.7669,2.7669,2.7812,2.8242,2.8242,2.8262,2.8301,2.8262,2.8242,2.8242,2.8203,2.8223,2.8242,2.8242,2.8262,2.8301,2.8262,2.7773,2.7051,2.7461,2.7109,2.6348,2.6387,2.6367,2.6289,2.583,2.5693,2.5693,3.6983,3.6985,3.6985,3.6985,3.6985,3.7111,3.7437,3.7211,3.7111,3.7462,3.7629,3.7645,3.739,3.7808,3.7815,3.7103,3.8107,3.8289,3.7103,3.9901,4.1947,4.2629,4.3061,4.315,4.2731,4.2291,4.1841,4.1422,4.1115,4.1205,4.1662,4.1901,4.1799,4.1381,4.072,3.994,3.9126,3.8021,3.7779,3.7908,3.6393,3.6015,3.6237,3.5476,3.5307,3.5533,3.5931,3.6182,3.6405,3.6405,3.6405,3.6405,3.6405,3.6254,3.6056,3.6056,3.6056,3.6006,3.5805,3.5881,3.6056,3.6056,3.6207,3.6405,3.6405,3.6207,3.6107,3.6355,3.6078,3.5881,3.6329,3.5677,3.5125,3.5322,0.0,3.2504,3.1777,2.9905,2.8391,2.7819,2.7242,2.6992,2.7168,2.7715,2.7988,2.7812,2.7949,2.8047,2.8047,2.8047,2.8125,2.8281,2.8301,2.8301,2.8301,2.8301,2.8301,2.8301,2.8301,2.8301,2.8301,2.8301,2.8301,2.8301,2.8301,2.7949,2.7461,2.7871,2.7559,2.6797,2.707,2.6855,2.6367,2.6211,2.5977,2.5693,3.6405,3.6405,3.6405,3.6405,3.6405,3.6531,3.686,3.6656,3.6556,3.6885,3.7288,3.7289,3.6499,3.7103,3.7243,3.6452,3.7103,3.7243,3.6452,3.9332,4.174,4.325,4.329,4.312,4.2671,4.25,4.2171,4.1722,4.1722,4.1961,4.241,4.262,4.2671,4.2671,4.1941,4.1357,4.084,3.9722,3.9494,3.9662,3.7752,3.7202,3.7437,3.6218,3.5805,3.5855,3.6279,3.6405,3.6405,3.6405,3.6405,3.6405,3.6405,3.6405,3.6405,3.6405,3.6405,3.6405,3.6405,3.6531,3.6631,3.6455,3.6531,3.6656,3.6656,3.6807,3.6885,3.6885,3.6782,3.6656,3.6656,3.6531,3.6405,3.6405,3.5579,3.4693,3.4007,3.1802,3.0013,2.931,2.8318,2.7728,2.7728,2.8047,2.8301,2.8301,2.8301,2.8301,2.8301,2.8301,2.8301,2.8301,2.8301,2.8301,2.8301,2.8301,2.8301,2.8301,2.8301,2.8301,2.8301,2.8301,2.8301,2.8301,2.8301,2.8047,2.7748,2.8125,2.7871,2.7226,2.7402,2.7187,2.6758,2.6484,2.6191,2.5937,3.6405,3.6405,3.6405,3.6405,3.6405,3.6405,3.6405,3.6405,3.6405,3.6405,3.6405,3.6405,3.6405,3.6405,3.6405,3.6405,3.6405,3.6405,3.6405,3.863,4.0916,4.321,4.329,4.329,4.329,4.2701,4.241,4.241,4.241,4.241,4.241,4.303,4.329,4.329,4.329,4.329,4.325,4.207,4.1587,4.142,3.9067,3.8107,3.7971,3.6849,3.6405,3.6405,3.6405,3.6405,3.6405,3.6405,3.6405,3.6405,3.6405,3.6405,3.6405,3.6405,3.6405,3.6405,3.6405,3.6832,3.7061,3.6556,3.6832,3.7186,3.7186,3.7613,3.799,3.8015,3.7563,3.7186,3.7186,3.6782,3.6405,3.6405,3.5906,3.5263,3.4509,3.2402,3.0639,2.9846,2.8571,2.7728,2.7728,2.8047,2.8301,2.8301,2.8301,2.8301,2.8301,2.8301,2.8301,2.8301,2.8301,2.8301,2.8301,2.8301,2.8301,2.8301,2.8301,2.8301,2.8301,2.8301,2.8301,2.8301,2.8301,2.8047,2.7767,2.8125,2.8047,2.7689,2.7187,2.7285,2.7611,2.6719,2.6387,2.6387,3.6405,3.6405,3.6405,3.6405,3.6405,3.6405,3.6405,3.6405,3.6405,3.6405,3.6405,3.6405,3.6405,3.6405,3.6405,3.6405,3.6405,3.6756,3.754,3.905,4.0575,4.2029,4.286,4.329,4.329,4.315,4.303,4.303,4.303,4.303,4.306,4.32,4.329,4.329,4.329,4.329,4.329,4.2941,4.282,4.267,4.1169,4.0074,3.9227,3.8017,3.7103,3.6405,3.6405,3.6405,3.6405,3.6405,3.6405,3.6405,3.6405,3.6681,3.6908,3.6531,3.6681,3.6935,3.6935,3.7337,3.7638,3.7086,3.7061,3.7287,3.7663,3.7588,3.7538,3.7914,3.7864,3.7638,3.7262,3.7362,3.7262,3.6531,3.6533,3.6466,3.5908,3.439,3.3278,3.3024,3.0939,2.9517,2.9517,2.8767,2.8301,2.8301,2.8301,2.8301,2.8301,2.8301,2.8301,2.8301,2.8301,2.8301,2.8301,2.8301,2.8437,2.873,2.8437,2.8437,2.8711,2.8437,2.8301,2.8301,2.8301,2.8223,2.8125,2.8242,2.8223,2.8086,2.7969,2.7812,2.7689,2.7434,2.6914,2.6387,3.6405,3.6405,3.6405,3.6405,3.6405,3.6405,3.6405,3.6405,3.6405,3.6405,3.6405,3.6405,3.6405,3.6405,3.6405,3.6405,3.6405,3.6662,3.7356,3.8514,3.9426,3.9884,4.1406,4.2594,4.329,4.309,4.306,4.329,4.329,4.329,4.329,4.329,4.329,4.329,4.329,4.329,4.329,4.329,4.329,4.321,4.207,4.0916,3.9754,3.8559,3.7356,3.6405,3.6405,3.6405,3.6405,3.6405,3.6556,3.6732,3.6732,3.7061,3.7362,3.6631,3.6807,3.7186,3.7186,3.7588,3.799,3.7889,3.7839,3.7939,3.8266,3.8266,3.8266,3.8617,3.8492,3.8241,3.7914,3.7939,3.7789,3.7111,3.7287,3.7387,3.7061,3.5893,3.4831,3.4229,3.2038,3.0391,2.9811,2.8999,2.8613,2.8789,2.8633,2.8535,2.8535,2.8379,2.8301,2.8301,2.8301,2.8301,2.8301,2.8301,2.8418,2.8672,2.8418,2.8418,2.8652,2.8398,2.8301,2.8301,2.8301,2.8301,2.8301,2.8301,2.8301,2.8281,2.8105,2.7988,2.7891,2.7787,2.7226,2.6641,3.6405,3.6405,3.6405,3.6405,3.6405,3.6405,3.6405,3.6405,3.6405,3.6405,3.6405,3.6405,3.6405,3.6405,3.6405,3.6405,3.6405,3.6405,3.6405,3.7448,3.7844,3.7307,3.9326,4.121,4.2892,4.2593,4.2641,4.32,4.326,4.329,4.329,4.329,4.329,4.329,4.329,4.329,4.329,4.329,4.329,4.321,4.207,4.0916,3.9754,3.8559,3.7356,3.6405,3.6405,3.6405,3.6405,3.6455,3.6857,3.7262,3.7262,3.7638,3.7889,3.6857,3.6958,3.7337,3.7337,3.7739,3.8291,3.8818,3.8994,3.8994,3.8994,3.9295,3.9647,3.9697,3.9295,3.8969,3.8919,3.8492,3.8115,3.8015,3.804,3.8065,3.8015,3.6944,3.5679,3.4334,3.2516,3.0796,2.9436,2.9129,2.9141,2.9607,2.9199,2.8984,2.8984,2.8574,2.834,2.834,2.834,2.834,2.8301,2.8359,2.8379,2.834,2.832,2.832,2.834,2.832,2.8301,2.8301,2.8301,2.8301,2.8301,2.8301,2.8301,2.8262,2.7924,2.7949,2.8242,2.7865,2.7383,2.7012,3.6405,3.6405,3.6405,3.6405,3.6405,3.6405,3.6405,3.6405,3.6405,3.6405,3.6405,3.6405,3.6405,3.6405,3.6405,3.6405,3.6405,3.6405,3.6405,3.7448,3.7844,3.7307,3.8562,3.9494,3.99,4.1517,4.247,4.262,4.309,4.329,4.329,4.329,4.329,4.329,4.329,4.329,4.329,4.329,4.329,4.321,4.207,4.0916,3.9754,3.8559,3.7356,3.6405,3.6405,3.6405,3.648,3.686,3.7362,3.7839,3.7839,3.8216,3.8542,3.7864,3.8065,3.8517,3.8517,3.8919,3.9346,3.9496,3.9521,3.9521,3.9521,3.927,3.917,3.9597,3.9597,3.9371,3.8994,3.912,3.9044,3.814,3.8391,3.8517,3.8065,3.7742,3.7419,3.7119,3.4814,3.3074,3.2756,3.0751,2.9473,2.957,2.9492,2.9434,2.9434,2.9023,2.8789,2.8789,2.8789,2.8633,2.8301,2.8965,2.9121,2.8769,2.8457,2.8457,2.8769,2.8437,2.8301,2.8301,2.8301,2.8301,2.8301,2.8301,2.8301,2.8281,2.8184,2.8203,2.8242,2.7865,2.7383,2.6914,3.6405,3.6405,3.6405,3.6405,3.6405,3.6405,3.6405,3.6132,3.6056,3.638,3.6132,3.6081,3.638,3.6405,3.6405,3.6405,3.6405,3.6405,3.6405,3.6989,3.7031,3.6464,3.7236,3.7682,3.7725,3.9445,4.0884,4.2008,4.2872,4.329,4.329,4.329,4.329,4.329,4.329,4.329,4.329,4.329,4.329,4.324,4.2349,4.1298,4.0151,3.9261,3.8028,3.6807,3.6807,3.6807,3.6835,3.7387,3.7939,3.8417,3.8417,3.8818,3.9094,3.8241,3.8417,3.8919,3.8919,3.9069,3.9371,3.9622,3.9697,3.9697,3.9697,3.9471,3.9346,3.9647,3.9697,3.9597,3.932,3.9496,3.9496,3.8919,3.9069,3.9145,3.8843,3.8818,3.854,3.7829,3.5626,3.3634,3.2226,3.0721,2.9961,3.0176,3.0,2.9863,2.9863,2.9473,2.9219,2.9219,2.9219,2.9121,2.8906,2.9336,2.9355,2.8926,2.8691,2.8594,2.8613,2.8398,2.8301,2.8301,2.8301,2.8301,2.8301,2.8301,2.8301,2.8301,2.8301,2.8301,2.8242,2.7865,2.7266,2.6621,3.638,3.6405,3.6405,3.6405,3.6405,3.638,3.6279,3.583,3.5633,3.6078,3.5755,3.5683,3.6182,3.6355,3.6405,3.6405,3.6405,3.6405,3.6405,3.6405,3.6107,3.5533,3.6032,3.6261,3.6157,3.7423,3.9103,4.1123,4.2408,4.3021,4.3021,4.321,4.329,4.329,4.329,4.329,4.329,4.329,4.329,4.327,4.2686,4.1866,4.0958,4.0154,3.8921,3.7625,3.7409,3.7337,3.7412,3.7965,3.8467,3.8944,3.902,3.932,3.9496,3.8567,3.8642,3.907,3.907,3.907,3.912,3.9572,3.9697,3.9697,3.9697,3.9697,3.9697,3.9697,3.9697,3.9697,3.9697,3.9697,3.9697,3.9697,3.9697,3.9697,3.9697,3.9697,3.9258,3.8007,3.6224,3.401,3.1354,3.0863,3.0851,3.1247,3.07,3.0312,3.0312,2.9902,2.9668,2.9668,2.9668,2.9648,2.9626,2.9648,2.9414,2.8926,2.8926,2.8691,2.8301,2.8301,2.8301,2.8301,2.8301,2.8301,2.8301,2.8301,2.8301,2.8301,2.8301,2.8301,2.8242,2.7734,2.7012,2.623,3.6329,3.6405,3.6405,3.6405,3.6405,3.6207,3.5683,3.5533,3.5357,3.5002,3.5257,3.5533,3.5608,3.6081,3.6405,3.6405,3.6405,3.6405,3.6405,3.6405,3.6107,3.5533,3.6045,3.6138,3.5612,3.7227,3.8485,3.9297,4.0967,4.1864,4.1864,4.286,4.329,4.329,4.329,4.329,4.329,4.329,4.329,4.327,4.2769,4.2495,4.2138,4.0518,3.9749,3.9411,3.8305,3.7889,3.799,3.8567,3.8818,3.8994,3.9421,3.9647,3.9672,3.9521,3.9521,3.9572,3.9572,3.9572,3.9597,3.9672,3.9697,3.9697,3.9697,3.9697,3.9697,3.9697,3.9697,3.9697,3.9697,3.9697,3.9697,3.9697,3.9697,3.9697,3.9697,3.9697,3.9645,3.9413,3.8012,3.6425,3.4737,3.3479,3.2731,3.2794,3.1534,3.0801,3.0801,3.0351,3.0117,3.0117,3.0117,2.9941,2.957,2.9922,2.9707,2.8926,2.8926,2.8691,2.8301,2.8301,2.8301,2.8301,2.8301,2.8301,2.8301,2.8301,2.8301,2.8301,2.8301,2.8301,2.8203,2.7402,2.6562,2.5771,3.5855,3.6157,3.6405,3.6405,3.6405,3.6182,3.5583,3.5232,3.4956,3.4705,3.4675,3.4705,3.5006,3.5579,3.6031,3.638,3.6405,3.6405,3.6405,3.6405,3.6304,3.6006,3.5931,3.5931,3.6006,3.6416,3.6942,3.7513,4.0236,4.1947,4.2548,4.3061,4.329,4.3319,4.3678,4.3858,4.3858,4.4287,4.4436,4.4344,4.3803,4.3603,4.3486,4.2361,4.126,4.0202,3.8583,3.8216,3.8517,3.8844,3.9069,3.9371,3.9622,3.9697,3.9697,3.9697,3.9697,3.9697,3.9697,3.9697,3.9697,3.9697,3.9697,3.9697,3.9697,3.9697,3.9697,3.9697,3.9697,3.9697,3.9697,3.9697,3.9697,3.9697,3.9697,3.9697,3.9697,3.9697,3.9413,3.8582,3.7902,3.6918,3.5453,3.4681,3.4348,3.4348,3.3754,3.2985,3.215,3.1946,3.1445,3.0644,3.0586,3.0488,3.0312,3.0488,3.0137,2.9277,2.9277,2.8926,2.8301,2.8301,2.8301,2.8301,2.8301,2.8301,2.8301,2.8301,2.8301,2.8301,2.8301,2.8008,2.7559,2.7422,2.6836,2.6094]}]]